[[{"header":{"parameterUnit":"m.s-1","parameterCategory":1,"la1":31.0,"la2":29.5877,"lo1":-88.7671,"lo2":-86.6584,"dx":0.0162,"dy":0.0185,"nx":115,"ny":88,"refTime":"2023-01-10T18:00:00:Z","depth":0,"parameterNumber":2,"parameterNumberName":"U-component_of_WINDS"},"data":[0.0,0.0,0.0,0.0,0.0,0.0,0.0,0.0,0.0,0.0,0.0,0.0,0.0,0.0,0.0,0.0,0.0,0.0,0.0,0.0,0.0,0.0,0.0,0.0,0.0,0.0,0.0,0.0,0.0,0.0,0.0,0.0,0.0,0.0,0.0,0.0,0.0,0.0,0.0,0.0,0.0,0.0,0.0,0.0,0.0,0.0,0.0,0.0,0.0,0.0,0.0,0.0,0.0,0.0,0.0,0.0,0.0,0.0,0.0,0.0,0.0,0.0,0.0,0.0,0.0,0.0,0.0,0.0,0.0,0.0,0.0,0.0,0.0,0.0,0.0,0.0,0.0,0.0,0.0,0.0,0.0,0.0,0.0,0.0,0.0,0.0,0.0,0.0,0.0,0.0,0.0,0.0,0.0,0.0,0.0,0.0,0.0,0.0,0.0,0.0,0.0,0.0,0.0,0.0,0.0,0.0,0.0,0.0,0.0,0.0,0.0,0.0,0.0,0.0,0.0,0.0,0.0,0.0,0.0,0.0,0.0,0.0,0.0,0.0,0.0,0.0,0.0,0.0,0.0,0.0,0.0,0.0,0.0,0.0,0.0,0.0,0.0,0.0,0.0,0.0,0.0,0.0,0.0,0.0,0.0,0.0,0.0,0.0,0.0,0.0,0.0,0.0,0.0,0.0,0.0,0.0,0.0,0.0,0.0,0.0,0.0,0.0,0.0,0.0,0.0,0.0,0.0,0.0,0.0,0.0,0.0,0.0,0.0,0.0,0.0,0.0,0.0,0.0,0.0,0.0,0.0,0.0,0.0,0.0,0.0,0.0,0.0,0.0,0.0,0.0,0.0,0.0,0.0,0.0,0.0,0.0,0.0,0.0,0.0,0.0,0.0,0.0,0.0,0.0,0.0,0.0,0.0,0.0,0.0,0.0,0.0,0.0,0.0,0.0,0.0,0.0,0.0,0.0,0.0,0.0,0.0,0.0,0.0,0.0,0.0,0.0,0.0,0.0,0.0,0.0,0.0,0.0,0.0,0.0,0.0,0.0,0.0,0.0,0.0,0.0,0.0,0.0,0.0,0.0,0.0,0.0,0.0,0.0,0.0,0.0,0.0,0.0,0.0,0.0,0.0,0.0,0.0,0.0,0.0,0.0,0.0,0.0,0.0,0.0,0.0,0.0,0.0,0.0,0.0,0.0,0.0,0.0,0.0,0.0,0.0,0.0,0.0,0.0,0.0,0.0,0.0,0.0,0.0,0.0,0.0,0.0,0.0,0.0,0.0,0.0,0.0,0.0,0.0,0.0,0.0,0.0,0.0,0.0,0.0,0.0,0.0,0.0,0.0,0.0,0.0,0.0,0.0,0.0,0.0,0.0,0.0,0.0,0.0,0.0,0.0,0.0,0.0,0.0,0.0,0.0,0.0,0.0,0.0,0.0,0.0,0.0,0.0,0.0,0.0,0.0,0.0,0.0,0.0,0.0,0.0,0.0,0.0,0.0,0.0,0.0,0.0,0.0,0.0,0.0,0.0,0.0,0.0,0.0,0.0,0.0,0.0,0.0,0.0,0.0,0.0,0.0,0.0,0.0,0.0,0.0,0.0,0.0,0.0,0.0,0.0,0.0,0.0,0.0,0.0,0.0,0.0,0.0,0.0,0.0,0.0,0.0,0.0,0.0,0.0,0.0,0.0,0.0,0.0,0.0,0.0,0.0,0.0,0.0,0.0,0.0,0.0,0.0,0.0,0.0,0.0,0.0,0.0,0.0,0.0,0.0,0.0,0.0,0.0,0.0,0.0,0.0,0.0,0.0,0.0,0.0,0.0,0.0,0.0,0.0,0.0,0.0,0.0,0.0,0.0,0.0,0.0,0.0,0.0,0.0,0.0,0.0,0.0,0.0,0.0,0.0,0.0,0.0,0.0,0.0,0.0,0.0,0.0,0.0,0.0,0.0,0.0,0.0,0.0,0.0,0.0,0.0,0.0,0.0,0.0,0.0,0.0,0.0,0.0,0.0,0.0,0.0,0.0,0.0,0.0,0.0,0.0,0.0,0.0,0.0,0.0,0.0,0.0,0.0,0.0,0.0,0.0,0.0,0.0,0.0,0.0,0.0,0.0,0.0,0.0,0.0,0.0,0.0,0.0,0.0,0.0,0.0,0.0,0.0,0.0,0.0,0.0,0.0,0.0,0.0,0.0,0.0,0.0,0.0,0.0,0.0,0.0,0.0,0.0,0.0,0.0,0.0,0.0,0.0,0.0,0.0,0.0,0.0,0.0,0.0,0.0,0.0,0.0,0.0,0.0,0.0,0.0,0.0,0.0,0.0,0.0,0.0,0.0,0.0,0.0,0.0,0.0,0.0,0.0,0.0,0.0,0.0,0.0,0.0,0.0,0.0,0.0,0.0,0.0,0.0,0.0,0.0,0.0,0.0,0.0,0.0,0.0,0.0,0.0,0.0,0.0,0.0,0.0,0.0,0.0,0.0,0.0,0.0,0.0,0.0,0.0,0.0,0.0,0.0,0.0,0.0,0.0,0.0,0.0,0.0,0.0,0.0,0.0,0.0,0.0,0.0,0.0,0.0,0.0,0.0,0.0,0.0,0.0,0.0,0.0,0.0,0.0,0.0,0.0,0.0,0.0,0.0,0.0,0.0,0.0,0.0,0.0,0.0,0.0,0.0,0.0,0.0,0.0,0.0,0.0,0.0,0.0,0.0,0.0,0.0,0.0,0.0,0.0,0.0,0.0,0.0,0.0,0.0,0.0,0.0,0.0,0.0,0.0,0.0,0.0,0.0,0.0,0.0,0.0,0.0,0.0,0.0,0.0,0.0,0.0,0.0,0.0,0.0,0.0,0.0,0.0,0.0,0.0,0.0,0.0,0.0,0.0,0.0,0.0,0.0,0.0,0.0,0.0,0.0,0.0,0.0,0.0,0.0,0.0,0.0,0.0,0.0,0.0,0.0,0.0,0.0,0.0,0.0,0.0,0.0,0.0,0.0,0.0,0.0,0.0,0.0,0.0,0.0,0.0,0.0,0.0,0.0,0.0,0.0,0.0,0.0,0.0,0.0,0.0,0.0,0.0,0.0,0.0,0.0,0.0,0.0,0.0,0.0,0.0,0.0,0.0,0.0,0.0,0.0,0.0,0.0,0.0,0.0,0.0,0.0,0.0,0.0,0.0,0.0,0.0,0.0,0.0,0.0,0.0,0.0,0.0,0.0,0.0,0.0,0.0,0.0,0.0,0.0,0.0,0.0,0.0,0.0,0.0,0.0,0.0,0.0,0.0,0.0,0.0,0.0,0.0,0.0,0.0,0.0,0.0,0.0,0.0,0.0,0.0,0.0,0.0,0.0,0.0,0.0,0.0,0.0,0.0,0.0,0.0,0.0,0.0,0.0,0.0,0.0,0.0,0.0,0.0,0.0,0.0,0.0,0.0,0.0,0.0,0.0,0.0,0.0,0.0,0.0,0.0,0.0,0.0,0.0,0.0,0.0,0.0,0.0,0.0,0.0,0.0,0.0,0.0,0.0,0.0,0.0,0.0,0.0,0.0,0.0,0.0,0.0,0.0,0.0,0.0,0.0,0.0,0.0,0.0,0.0,0.0,0.0,0.0,0.0,0.0,0.0,0.0,0.0,0.0,0.0,0.0,0.0,0.0,0.0,0.0,0.0,0.0,0.0,0.0,0.0,0.0,0.0,0.0,0.0,0.0,0.0,0.0,0.0,0.0,0.0,0.0,0.0,0.0,0.0,0.0,0.0,0.0,0.0,0.0,0.0,0.0,0.0,0.0,0.0,0.0,0.0,0.0,0.0,0.0,0.0,0.0,0.0,0.0,0.0,0.0,0.0,0.0,0.0,0.0,0.0,0.0,0.0,0.0,0.0,0.0,0.0,0.0,0.0,0.0,0.0,0.0,0.0,0.0,0.0,0.0,0.0,0.0,0.0,0.0,0.0,0.0,0.0,0.0,0.0,0.0,0.0,0.0,0.0,0.0,0.0,0.0,0.0,0.0,0.0,0.0,0.0,0.0,0.0,0.0,0.0,0.0,0.0,0.0,0.0,0.0,0.0,0.0,0.0,0.0,0.0,0.0,0.0,0.0,0.0,0.0,0.0,0.0,0.0,0.0,0.0,0.0,0.0,0.0,0.0,0.0,0.0,0.0,0.0,0.0,0.0,0.0,0.0,0.0,0.0,0.0,0.0,0.0,0.0,0.0,0.0,0.0,0.0,0.0,0.0,0.0,0.0,0.0,0.0,0.0,0.0,2.5384,0.0,0.0,0.0,2.4226,0.0,0.0,0.0,0.0,0.0,0.0,0.0,0.0,0.0,0.0,0.0,0.0,0.0,0.0,0.0,0.0,0.0,0.0,0.0,0.0,0.0,0.0,0.0,0.0,0.0,0.0,0.0,0.0,0.0,0.0,0.0,0.0,0.0,0.0,0.0,0.0,0.0,0.0,0.0,0.0,0.0,0.0,0.0,0.0,0.0,0.0,0.0,0.0,0.0,0.0,0.0,0.0,0.0,0.0,0.0,0.0,0.0,0.0,0.0,0.0,0.0,0.0,0.0,0.0,0.0,0.0,0.0,0.0,0.0,0.0,0.0,0.0,0.0,0.0,0.0,0.0,0.0,0.0,0.0,0.0,0.0,0.0,0.0,0.0,0.0,0.0,0.0,0.0,0.0,0.0,0.0,0.0,0.0,0.0,0.0,0.0,0.0,0.0,0.0,0.0,0.0,0.0,0.0,0.0,0.0,0.0,0.0,0.0,0.0,0.0,2.6062,2.6062,2.6062,2.5474,2.4263,0.0,0.0,0.0,0.0,0.0,0.0,0.0,0.0,0.0,0.0,0.0,0.0,0.0,0.0,0.0,0.0,0.0,0.0,0.0,0.0,0.0,0.0,0.0,0.0,0.0,0.0,0.0,0.0,0.0,0.0,0.0,0.0,0.0,0.0,0.0,0.0,0.0,0.0,0.0,0.0,0.0,0.0,0.0,0.0,0.0,0.0,0.0,0.0,0.0,0.0,0.0,0.0,0.0,0.0,0.0,0.0,0.0,0.0,0.0,0.0,0.0,0.0,0.0,0.0,0.0,0.0,0.0,0.0,0.0,0.0,0.0,0.0,0.0,0.0,0.0,0.0,0.0,0.0,0.0,0.0,0.0,0.0,0.0,0.0,0.0,0.0,0.0,0.0,0.0,0.0,0.0,0.0,0.0,0.0,0.0,0.0,0.0,0.0,0.0,0.0,0.0,0.0,0.0,0.0,0.0,0.0,0.0,0.0,0.0,0.0,0.0,0.0,2.6502,2.5841,2.43,0.0,0.0,0.0,0.0,0.0,0.0,0.0,0.0,0.0,0.0,0.0,0.0,0.0,0.0,0.0,0.0,0.0,0.0,0.0,0.0,0.0,0.0,0.0,0.0,0.0,0.0,0.0,0.0,0.0,0.0,0.0,0.0,0.0,0.0,0.0,0.0,0.0,0.0,0.0,0.0,0.0,0.0,0.0,0.0,0.0,0.0,0.0,0.0,0.0,0.0,0.0,0.0,0.0,0.0,0.0,0.0,0.0,0.0,0.0,0.0,0.0,0.0,0.0,0.0,0.0,0.0,0.0,0.0,0.0,0.0,0.0,0.0,0.0,0.0,0.0,0.0,0.0,0.0,0.0,0.0,0.0,0.0,0.0,0.0,0.0,0.0,0.0,0.0,0.0,0.0,0.0,0.0,0.0,0.0,0.0,0.0,0.0,0.0,0.0,0.0,0.0,0.0,0.0,0.0,0.0,0.0,0.0,0.0,0.0,0.0,2.6245,2.5568,2.6209,0.0,2.4337,0.0,0.0,0.0,0.0,0.0,0.0,0.0,0.0,0.0,0.0,0.0,0.0,0.0,0.0,0.0,0.0,0.0,0.0,0.0,0.0,0.0,0.0,0.0,0.0,0.0,0.0,0.0,0.0,0.0,0.0,0.0,0.0,0.0,0.0,0.0,0.0,0.0,0.0,0.0,0.0,0.0,0.0,0.0,0.0,0.0,0.0,0.0,0.0,0.0,0.0,0.0,0.0,0.0,0.0,0.0,0.0,0.0,0.0,0.0,0.0,0.0,0.0,0.0,0.0,0.0,0.0,0.0,0.0,0.0,0.0,0.0,0.0,0.0,0.0,0.0,0.0,0.0,0.0,0.0,0.0,0.0,0.0,0.0,0.0,0.0,0.0,0.0,0.0,0.0,0.0,0.0,0.0,0.0,0.0,0.0,0.0,0.0,0.0,0.0,0.0,0.0,0.0,0.0,0.0,0.0,0.0,0.0,0.0,0.0,0.0,2.6209,2.5401,2.5274,2.487,0.0,0.0,0.0,0.0,0.0,0.0,0.0,0.0,0.0,0.0,0.0,0.0,0.0,0.0,0.0,0.0,0.0,0.0,0.0,0.0,0.0,0.0,0.0,0.0,0.0,0.0,0.0,0.0,0.0,0.0,0.0,0.0,0.0,0.0,0.0,0.0,0.0,0.0,0.0,0.0,0.0,0.0,0.0,0.0,0.0,0.0,0.0,0.0,0.0,0.0,0.0,0.0,0.0,0.0,0.0,0.0,0.0,0.0,0.0,0.0,0.0,0.0,0.0,0.0,0.0,0.0,0.0,0.0,0.0,0.0,0.0,0.0,0.0,0.0,0.0,0.0,0.0,0.0,0.0,0.0,0.0,0.0,0.0,0.0,0.0,0.0,0.0,0.0,0.0,0.0,0.0,0.0,0.0,0.0,0.0,0.0,0.0,0.0,0.0,0.0,0.0,0.0,0.0,0.0,0.0,0.0,0.0,0.0,0.0,0.0,2.6082,2.634,2.5731,2.4743,2.4191,2.419,0.0,0.0,0.0,0.0,0.0,0.0,0.0,0.0,0.0,0.0,0.0,0.0,0.0,0.0,0.0,0.0,0.0,0.0,0.0,0.0,0.0,0.0,0.0,0.0,0.0,0.0,0.0,0.0,0.0,0.0,0.0,0.0,0.0,0.0,0.0,0.0,0.0,0.0,0.0,0.0,0.0,0.0,0.0,0.0,0.0,0.0,0.0,0.0,0.0,0.0,0.0,0.0,0.0,0.0,0.0,0.0,0.0,0.0,0.0,0.0,0.0,0.0,0.0,0.0,0.0,0.0,0.0,0.0,0.0,0.0,0.0,0.0,0.0,0.0,0.0,0.0,0.0,0.0,0.0,0.0,0.0,0.0,0.0,0.0,0.0,0.0,0.0,0.0,0.0,0.0,0.0,0.0,0.0,0.0,0.0,0.0,0.0,0.0,0.0,0.0,0.0,0.0,0.0,0.0,0.0,0.0,0.0,0.0,2.432,2.5866,2.6654,2.6502,2.5034,2.419,0.0,0.0,0.0,0.0,0.0,0.0,0.0,0.0,0.0,0.0,0.0,0.0,0.0,0.0,0.0,0.0,0.0,0.0,0.0,0.0,0.0,0.0,0.0,0.0,0.0,0.0,0.0,0.0,0.0,0.0,0.0,0.0,0.0,0.0,0.0,0.0,0.0,0.0,0.0,0.0,0.0,0.0,0.0,0.0,0.0,0.0,0.0,0.0,0.0,0.0,0.0,0.0,0.0,0.0,0.0,0.0,0.0,0.0,0.0,0.0,0.0,0.0,0.0,0.0,0.0,0.0,0.0,0.0,0.0,0.0,0.0,0.0,0.0,0.0,0.0,0.0,0.0,0.0,0.0,0.0,0.0,0.0,0.0,0.0,0.0,0.0,0.0,0.0,0.0,0.0,0.0,0.0,0.0,0.0,0.0,0.0,0.0,0.0,0.0,0.0,0.0,0.0,0.0,0.0,0.0,0.0,0.0,0.0,0.0,2.5039,2.6066,2.6891,2.731,2.5846,2.5,0.0,0.0,0.0,0.0,0.0,0.0,0.0,0.0,0.0,0.0,0.0,0.0,0.0,0.0,0.0,0.0,0.0,0.0,0.0,0.0,0.0,0.0,0.0,0.0,0.0,0.0,0.0,0.0,0.0,0.0,0.0,0.0,0.0,0.0,0.0,0.0,0.0,0.0,0.0,0.0,0.0,0.0,0.0,0.0,0.0,0.0,0.0,0.0,0.0,0.0,0.0,0.0,0.0,0.0,0.0,0.0,0.0,0.0,0.0,0.0,0.0,0.0,0.0,0.0,0.0,0.0,0.0,0.0,0.0,0.0,0.0,0.0,0.0,0.0,0.0,0.0,0.0,0.0,0.0,0.0,0.0,0.0,0.0,0.0,0.0,0.0,0.0,0.0,0.0,0.0,0.0,0.0,0.0,0.0,0.0,0.0,0.0,0.0,0.0,0.0,0.0,0.0,0.0,0.0,0.0,0.0,0.0,0.0,0.0,2.5849,2.636,2.7001,2.7714,2.6307,2.5461,0.0,0.0,0.0,0.0,0.0,0.0,0.0,0.0,0.0,0.0,0.0,0.0,0.0,0.0,0.0,0.0,0.0,0.0,0.0,0.0,0.0,0.0,0.0,0.0,0.0,0.0,0.0,0.0,0.0,0.0,0.0,0.0,0.0,0.0,0.0,0.0,0.0,0.0,0.0,0.0,0.0,0.0,0.0,0.0,0.0,0.0,0.0,0.0,0.0,0.0,0.0,0.0,0.0,0.0,0.0,0.0,0.0,0.0,0.0,0.0,0.0,0.0,0.0,0.0,0.0,0.0,0.0,0.0,0.0,0.0,0.0,0.0,0.0,0.0,0.0,0.0,0.0,0.0,0.0,0.0,0.0,0.0,0.0,0.0,0.0,0.0,0.0,0.0,0.0,0.0,0.0,0.0,0.0,0.0,0.0,0.0,0.0,0.0,0.0,0.0,0.0,0.0,0.0,0.0,0.0,0.0,0.0,0.0,2.5114,2.6622,2.6733,2.7153,2.7735,2.6381,2.5498,0.0,0.0,0.0,0.0,0.0,0.0,0.0,0.0,0.0,0.0,0.0,0.0,0.0,0.0,0.0,0.0,0.0,0.0,0.0,0.0,0.0,0.0,0.0,0.0,0.0,0.0,0.0,0.0,0.0,0.0,0.0,0.0,0.0,0.0,0.0,0.0,0.0,0.0,0.0,0.0,0.0,0.0,0.0,0.0,0.0,0.0,0.0,0.0,0.0,0.0,0.0,0.0,0.0,0.0,0.0,0.0,0.0,0.0,0.0,0.0,0.0,0.0,0.0,0.0,0.0,0.0,0.0,0.0,0.0,0.0,0.0,0.0,0.0,0.0,0.0,0.0,0.0,0.0,0.0,0.0,0.0,0.0,0.0,0.0,0.0,0.0,0.0,0.0,0.0,0.0,0.0,0.0,0.0,0.0,0.0,0.0,0.0,0.0,0.0,0.0,0.0,0.0,0.0,0.0,0.0,0.0,0.0,0.0,0.0,2.7506,2.8101,2.8507,2.8662,2.7727,2.688,0.0,0.0,0.0,0.0,0.0,0.0,0.0,0.0,0.0,0.0,0.0,0.0,0.0,0.0,0.0,0.0,0.0,0.0,0.0,0.0,0.0,0.0,0.0,0.0,0.0,0.0,0.0,0.0,0.0,0.0,0.0,0.0,0.0,0.0,0.0,0.0,0.0,0.0,0.0,0.0,0.0,0.0,0.0,0.0,0.0,0.0,0.0,0.0,0.0,0.0,0.0,0.0,0.0,0.0,0.0,0.0,0.0,0.0,0.0,0.0,0.0,0.0,0.0,0.0,0.0,0.0,0.0,0.0,0.0,0.0,0.0,0.0,0.0,0.0,0.0,0.0,0.0,0.0,0.0,0.0,0.0,0.0,0.0,0.0,0.0,0.0,0.0,0.0,0.0,0.0,0.0,0.0,0.0,0.0,0.0,0.0,0.0,0.0,0.0,0.0,0.0,0.0,0.0,0.0,0.0,0.0,0.0,0.0,0.0,2.9237,3.0138,3.042,3.0019,2.954,2.8618,2.7232,0.0,0.0,0.0,0.0,0.0,0.0,0.0,0.0,0.0,0.0,0.0,0.0,0.0,0.0,0.0,0.0,0.0,0.0,0.0,0.0,0.0,0.0,0.0,0.0,0.0,0.0,0.0,0.0,0.0,0.0,0.0,0.0,0.0,0.0,0.0,0.0,0.0,0.0,0.0,0.0,0.0,0.0,0.0,0.0,0.0,0.0,0.0,0.0,0.0,0.0,0.0,0.0,0.0,0.0,0.0,0.0,0.0,0.0,0.0,0.0,0.0,0.0,0.0,0.0,0.0,0.0,0.0,0.0,0.0,0.0,0.0,0.0,0.0,0.0,0.0,0.0,0.0,0.0,0.0,0.0,0.0,0.0,0.0,0.0,0.0,0.0,0.0,0.0,0.0,0.0,0.0,0.0,0.0,0.0,0.0,0.0,0.0,0.0,0.0,0.0,0.0,0.0,0.0,0.0,0.0,0.0,0.0,0.0,3.1605,3.2637,3.2723,3.175,3.1602,3.0471,0.0,0.0,0.0,0.0,0.0,0.0,0.0,0.0,0.0,0.0,0.0,0.0,0.0,0.0,0.0,0.0,0.0,0.0,0.0,0.0,0.0,0.0,0.0,0.0,0.0,0.0,0.0,0.0,0.0,0.0,0.0,0.0,0.0,0.0,0.0,0.0,0.0,0.0,0.0,0.0,0.0,0.0,0.0,0.0,0.0,0.0,0.0,0.0,0.0,0.0,0.0,0.0,0.0,0.0,0.0,0.0,0.0,0.0,0.0,0.0,0.0,0.0,0.0,0.0,0.0,0.0,0.0,0.0,0.0,0.0,0.0,0.0,0.0,0.0,0.0,0.0,0.0,0.0,0.0,0.0,0.0,0.0,0.0,0.0,0.0,0.0,0.0,0.0,0.0,0.0,0.0,0.0,0.0,0.0,0.0,0.0,0.0,0.0,0.0,0.0,0.0,0.0,0.0,0.0,0.0,0.0,0.0,0.0,0.0,3.3349,3.5356,3.5483,3.3425,3.2292,3.1094,0.0,0.0,0.0,0.0,0.0,0.0,0.0,0.0,0.0,0.0,0.0,0.0,0.0,0.0,0.0,0.0,0.0,0.0,0.0,0.0,0.0,0.0,0.0,0.0,0.0,0.0,0.0,0.0,0.0,0.0,0.0,0.0,0.0,0.0,0.0,0.0,0.0,0.0,0.0,0.0,0.0,0.0,0.0,0.0,0.0,0.0,0.0,0.0,0.0,0.0,0.0,0.0,0.0,0.0,0.0,0.0,0.0,0.0,0.0,0.0,0.0,0.0,0.0,0.0,0.0,0.0,0.0,0.0,0.0,0.0,0.0,0.0,0.0,0.0,0.0,0.0,0.0,0.0,0.0,0.0,0.0,0.0,0.0,0.0,0.0,0.0,0.0,0.0,0.0,0.0,0.0,0.0,0.0,0.0,0.0,0.0,0.0,0.0,0.0,0.0,0.0,0.0,0.0,0.0,0.0,0.0,0.0,0.0,3.2748,3.4518,3.7275,3.8005,3.6602,3.44,3.2501,0.0,0.0,0.0,0.0,0.0,0.0,0.0,0.0,0.0,0.0,0.0,0.0,0.0,0.0,0.0,0.0,0.0,0.0,0.0,0.0,0.0,0.0,0.0,0.0,0.0,0.0,0.0,0.0,0.0,0.0,0.0,0.0,0.0,0.0,0.0,0.0,0.0,0.0,0.0,0.0,0.0,0.0,0.0,0.0,0.0,0.0,0.0,0.0,0.0,0.0,0.0,0.0,0.0,0.0,0.0,0.0,0.0,0.0,0.0,0.0,0.0,0.0,0.0,0.0,0.0,0.0,0.0,0.0,0.0,0.0,0.0,0.0,0.0,0.0,0.0,0.0,0.0,0.0,0.0,0.0,0.0,0.0,0.0,0.0,0.0,0.0,0.0,0.0,0.0,0.0,0.0,0.0,0.0,0.0,0.0,0.0,0.0,0.0,0.0,0.0,0.0,0.0,0.0,0.0,0.0,0.0,0.0,0.0,3.4592,3.5568,3.8596,4.0184,4.0,3.6971,3.4201,0.0,0.0,0.0,0.0,0.0,0.0,0.0,0.0,0.0,0.0,0.0,0.0,0.0,0.0,0.0,0.0,0.0,0.0,0.0,0.0,0.0,0.0,0.0,0.0,0.0,0.0,0.0,0.0,0.0,0.0,0.0,0.0,0.0,0.0,0.0,0.0,0.0,0.0,0.0,0.0,0.0,0.0,0.0,0.0,0.0,0.0,0.0,0.0,0.0,0.0,0.0,0.0,0.0,0.0,0.0,0.0,0.0,0.0,0.0,0.0,0.0,0.0,0.0,0.0,0.0,0.0,0.0,0.0,0.0,0.0,0.0,0.0,0.0,0.0,0.0,0.0,0.0,0.0,0.0,0.0,0.0,0.0,0.0,0.0,0.0,0.0,0.0,0.0,0.0,0.0,0.0,0.0,0.0,0.0,0.0,0.0,0.0,0.0,0.0,0.0,0.0,0.0,0.0,0.0,0.0,0.0,0.0,0.0,3.5725,3.7108,3.9748,4.0775,4.0111,3.7008,3.4755,0.0,0.0,0.0,0.0,0.0,0.0,0.0,0.0,0.0,0.0,0.0,0.0,0.0,0.0,0.0,0.0,0.0,0.0,0.0,0.0,0.0,0.0,0.0,0.0,0.0,0.0,0.0,0.0,0.0,0.0,0.0,0.0,0.0,0.0,0.0,0.0,0.0,0.0,0.0,0.0,0.0,0.0,0.0,0.0,0.0,0.0,0.0,0.0,3.1319,0.0,0.0,0.0,0.0,0.0,0.0,0.0,0.0,0.0,0.0,0.0,0.0,0.0,0.0,0.0,0.0,0.0,0.0,0.0,0.0,0.0,0.0,0.0,0.0,0.0,0.0,0.0,0.0,0.0,0.0,0.0,0.0,0.0,0.0,0.0,0.0,0.0,0.0,0.0,0.0,0.0,0.0,0.0,0.0,0.0,0.0,0.0,0.0,0.0,0.0,0.0,0.0,0.0,0.0,0.0,0.0,0.0,0.0,0.0,3.6242,3.8264,4.0702,4.1582,4.0725,3.8699,3.6481,0.0,0.0,0.0,0.0,0.0,0.0,0.0,0.0,0.0,0.0,0.0,0.0,0.0,0.0,0.0,0.0,0.0,0.0,0.0,0.0,0.0,0.0,0.0,0.0,0.0,0.0,0.0,0.0,0.0,0.0,0.0,0.0,0.0,0.0,0.0,0.0,0.0,0.0,0.0,0.0,0.0,0.0,0.0,0.0,0.0,0.0,0.0,0.0,0.0,0.0,0.0,0.0,0.0,0.0,0.0,0.0,0.0,0.0,0.0,0.0,0.0,0.0,0.0,0.0,0.0,0.0,0.0,0.0,0.0,0.0,0.0,0.0,0.0,0.0,0.0,0.0,0.0,0.0,0.0,0.0,0.0,0.0,0.0,0.0,0.0,0.0,0.0,0.0,0.0,0.0,0.0,0.0,0.0,0.0,0.0,0.0,0.0,0.0,0.0,0.0,0.0,0.0,0.0,0.0,0.0,0.0,0.0,3.3449,3.6786,3.9592,4.1718,4.2532,4.186,4.0725,3.8293,3.4426,0.0,0.0,0.0,0.0,0.0,0.0,0.0,0.0,0.0,0.0,0.0,0.0,0.0,0.0,0.0,0.0,0.0,0.0,0.0,0.0,0.0,0.0,0.0,0.0,0.0,0.0,0.0,0.0,0.0,0.0,0.0,0.0,0.0,0.0,0.0,0.0,0.0,0.0,2.9489,2.9342,0.0,0.0,0.0,0.0,0.0,0.0,0.0,0.0,3.3046,0.0,0.0,0.0,0.0,0.0,0.0,0.0,0.0,0.0,0.0,0.0,0.0,0.0,0.0,0.0,0.0,0.0,0.0,0.0,0.0,0.0,0.0,0.0,0.0,0.0,0.0,0.0,0.0,0.0,0.0,0.0,0.0,0.0,0.0,0.0,0.0,0.0,0.0,0.0,0.0,0.0,0.0,0.0,0.0,0.0,0.0,0.0,0.0,0.0,0.0,0.0,0.0,0.0,0.0,0.0,0.0,3.206,3.4866,3.8164,4.2001,4.3182,4.3695,4.3509,4.1371,3.8608,3.5303,0.0,0.0,0.0,0.0,0.0,0.0,0.0,0.0,0.0,0.0,0.0,0.0,0.0,0.0,0.0,0.0,0.0,0.0,0.0,0.0,0.0,0.0,0.0,0.0,0.0,0.0,0.0,0.0,0.0,0.0,0.0,0.0,0.0,0.0,0.0,0.0,0.0,0.0,0.0,3.087,3.0944,0.0,0.0,0.0,0.0,0.0,0.0,0.0,0.0,3.5459,0.0,0.0,0.0,0.0,0.0,0.0,0.0,0.0,0.0,0.0,0.0,0.0,0.0,0.0,0.0,0.0,0.0,0.0,0.0,0.0,0.0,0.0,0.0,0.0,0.0,0.0,0.0,0.0,0.0,0.0,0.0,0.0,0.0,0.0,0.0,0.0,0.0,0.0,0.0,0.0,0.0,0.0,0.0,0.0,0.0,0.0,0.0,0.0,0.0,0.0,0.0,0.0,0.0,0.0,0.0,3.34,3.6767,4.0044,4.3219,4.3769,4.4023,4.3949,4.1616,3.8739,0.0,0.0,0.0,0.0,0.0,0.0,0.0,0.0,0.0,0.0,0.0,0.0,0.0,0.0,0.0,0.0,0.0,0.0,0.0,0.0,0.0,0.0,0.0,0.0,0.0,0.0,0.0,0.0,0.0,0.0,0.0,0.0,0.0,0.0,0.0,0.0,0.0,0.0,0.0,0.0,3.1935,3.2485,3.5312,0.0,0.0,0.0,0.0,0.0,0.0,3.6362,3.6193,0.0,0.0,0.0,0.0,0.0,0.0,0.0,0.0,0.0,0.0,0.0,0.0,0.0,0.0,0.0,0.0,0.0,0.0,0.0,0.0,0.0,0.0,0.0,0.0,0.0,0.0,0.0,0.0,0.0,0.0,0.0,0.0,0.0,0.0,0.0,0.0,0.0,0.0,0.0,0.0,0.0,0.0,0.0,0.0,0.0,0.0,0.0,0.0,0.0,0.0,0.0,0.0,0.0,0.0,0.0,3.4363,3.8266,4.1586,4.4135,4.4246,4.4358,4.4432,4.1534,3.8535,0.0,0.0,0.0,0.0,0.0,0.0,0.0,0.0,0.0,0.0,0.0,0.0,0.0,0.0,0.0,0.0,0.0,0.0,0.0,0.0,0.0,0.0,0.0,0.0,0.0,0.0,0.0,0.0,0.0,0.0,0.0,0.0,0.0,0.0,0.0,0.0,0.0,0.0,0.0,0.0,0.0,3.4211,3.7294,3.6352,0.0,0.0,0.0,0.0,3.7448,3.7624,0.0,0.0,0.0,0.0,0.0,0.0,0.0,0.0,0.0,0.0,0.0,0.0,0.0,0.0,0.0,0.0,0.0,0.0,0.0,0.0,0.0,0.0,0.0,0.0,0.0,0.0,0.0,0.0,0.0,0.0,0.0,0.0,0.0,0.0,0.0,0.0,0.0,0.0,0.0,0.0,0.0,0.0,0.0,0.0,0.0,0.0,0.0,0.0,0.0,0.0,0.0,0.0,0.0,0.0,0.0,0.0,3.514,3.8563,4.1883,4.4952,4.5138,4.5509,4.6104,4.1014,3.7644,0.0,0.0,0.0,0.0,0.0,0.0,0.0,0.0,0.0,0.0,0.0,0.0,0.0,0.0,0.0,0.0,0.0,0.0,0.0,0.0,0.0,0.0,0.0,0.0,0.0,0.0,0.0,0.0,0.0,0.0,0.0,0.0,0.0,0.0,0.0,0.0,0.0,0.0,0.0,0.0,0.0,3.5614,3.8212,3.8365,3.8034,0.0,0.0,4.0716,4.1515,4.2213,0.0,0.0,0.0,0.0,0.0,0.0,0.0,0.0,0.0,0.0,0.0,0.0,0.0,0.0,0.0,0.0,0.0,0.0,0.0,0.0,0.0,0.0,0.0,0.0,0.0,0.0,0.0,0.0,0.0,0.0,0.0,0.0,0.0,0.0,0.0,0.0,0.0,0.0,0.0,0.0,0.0,0.0,0.0,0.0,0.0,0.0,0.0,0.0,0.0,0.0,0.0,0.0,0.0,0.0,0.0,3.3635,3.6054,4.0251,4.3547,4.5844,4.5547,4.5472,4.5769,4.068,3.7273,0.0,0.0,0.0,0.0,0.0,0.0,0.0,0.0,0.0,0.0,0.0,0.0,0.0,0.0,0.0,0.0,0.0,0.0,0.0,0.0,0.0,0.0,0.0,0.0,0.0,0.0,0.0,0.0,0.0,0.0,0.0,0.0,0.0,0.0,0.0,0.0,0.0,0.0,0.0,0.0,0.0,0.0,3.8505,3.9093,0.0,0.0,0.0,4.1589,4.1038,0.0,0.0,0.0,0.0,0.0,0.0,0.0,0.0,0.0,0.0,0.0,0.0,0.0,0.0,0.0,0.0,0.0,0.0,0.0,0.0,0.0,0.0,0.0,0.0,0.0,0.0,0.0,0.0,0.0,0.0,0.0,0.0,0.0,0.0,0.0,0.0,0.0,0.0,0.0,0.0,0.0,0.0,0.0,0.0,0.0,0.0,0.0,0.0,0.0,0.0,0.0,0.0,0.0,0.0,0.0,0.0,0.0,3.6663,4.169,4.5026,4.6438,4.6104,4.5881,4.5807,4.1497,0.0,0.0,0.0,0.0,0.0,0.0,0.0,0.0,0.0,0.0,0.0,0.0,0.0,0.0,0.0,0.0,0.0,0.0,0.0,0.0,0.0,0.0,0.0,0.0,0.0,0.0,0.0,2.6722,0.0,0.0,0.0,0.0,0.0,0.0,0.0,0.0,0.0,0.0,0.0,0.0,0.0,0.0,3.8395,3.9203,4.0341,4.1442,0.0,0.0,4.2947,4.2139,4.4892,4.548,0.0,0.0,0.0,0.0,0.0,0.0,0.0,0.0,0.0,0.0,0.0,0.0,0.0,0.0,0.0,0.0,0.0,0.0,0.0,0.0,0.0,0.0,0.0,0.0,0.0,0.0,0.0,0.0,0.0,0.0,0.0,0.0,0.0,0.0,0.0,0.0,0.0,0.0,0.0,0.0,0.0,0.0,0.0,0.0,0.0,0.0,0.0,0.0,0.0,0.0,0.0,0.0,0.0,0.0,0.0,3.6737,4.2284,4.5621,4.6475,4.7181,4.7553,4.7478,4.4246,4.094,0.0,0.0,0.0,0.0,0.0,0.0,0.0,0.0,0.0,0.0,0.0,0.0,0.0,0.0,0.0,0.0,0.0,0.0,0.0,0.0,0.0,0.0,0.0,0.0,0.0,0.0,0.0,0.0,0.0,0.0,0.0,0.0,0.0,0.0,0.0,0.0,0.0,0.0,0.0,0.0,0.0,4.0047,4.0855,4.291,4.4929,0.0,0.0,4.614,4.7498,4.9224,4.882,4.3938,0.0,0.0,0.0,0.0,0.0,0.0,0.0,0.0,0.0,0.0,0.0,0.0,0.0,0.0,0.0,0.0,0.0,0.0,0.0,0.0,0.0,0.0,0.0,0.0,0.0,0.0,0.0,0.0,0.0,0.0,0.0,0.0,0.0,0.0,0.0,0.0,0.0,0.0,0.0,0.0,0.0,0.0,0.0,0.0,0.0,0.0,0.0,0.0,0.0,0.0,0.0,0.0,0.0,3.5477,3.6716,4.2352,4.5695,4.6475,4.7293,4.7441,4.6958,4.4729,4.1757,0.0,0.0,0.0,0.0,0.0,0.0,0.0,0.0,0.0,0.0,0.0,0.0,0.0,0.0,0.0,0.0,0.0,0.0,0.0,0.0,0.0,0.0,0.0,0.0,0.0,0.0,0.0,0.0,3.4871,3.4835,3.2816,0.0,0.0,0.0,0.0,0.0,0.0,0.0,0.0,0.0,0.0,4.1479,4.3718,4.57,0.0,0.0,4.8783,4.8783,4.8379,4.9701,4.8967,4.3608,4.2763,0.0,0.0,0.0,0.0,0.0,0.0,0.0,0.0,0.0,0.0,0.0,0.0,0.0,0.0,0.0,0.0,0.0,0.0,0.0,0.0,0.0,0.0,0.0,0.0,0.0,0.0,0.0,0.0,0.0,0.0,0.0,0.0,0.0,0.0,0.0,0.0,0.0,0.0,0.0,0.0,0.0,0.0,0.0,0.0,0.0,0.0,0.0,0.0,0.0,0.0,0.0,0.0,3.6085,3.6705,4.2835,4.629,4.6847,4.7627,4.7887,4.7553,4.5992,4.3429,0.0,0.0,0.0,0.0,0.0,0.0,0.0,0.0,0.0,0.0,0.0,0.0,0.0,0.0,0.0,0.0,0.0,0.0,0.0,0.0,0.0,0.0,0.0,0.0,0.0,0.0,0.0,0.0,3.5569,3.5128,3.2852,0.0,0.0,0.0,0.0,0.0,0.0,0.0,0.0,0.0,0.0,4.3461,4.592,4.7425,4.8673,4.9774,4.9994,4.9811,4.915,5.0068,4.937,4.5186,0.0,0.0,0.0,0.0,0.0,0.0,0.0,0.0,0.0,0.0,0.0,0.0,0.0,0.0,0.0,0.0,0.0,0.0,0.0,0.0,0.0,0.0,0.0,0.0,0.0,0.0,0.0,0.0,0.0,0.0,2.079,0.0,0.0,0.0,0.0,0.0,0.0,0.0,0.0,0.0,0.0,0.0,0.0,0.0,0.0,0.0,0.0,0.0,0.0,0.0,0.0,0.0,0.0,3.6642,3.6816,4.3912,4.7627,4.7701,4.8481,4.9224,4.993,4.8444,4.6438,4.3875,0.0,0.0,0.0,0.0,0.0,0.0,0.0,0.0,0.0,0.0,0.0,0.0,0.0,0.0,0.0,0.0,0.0,0.0,0.0,0.0,0.0,0.0,0.0,0.0,0.0,0.0,2.9635,3.1323,3.2716,0.0,0.0,0.0,0.0,0.0,0.0,0.0,0.0,0.0,0.0,4.2286,4.6104,4.6948,4.7792,4.9003,5.0582,4.9481,4.8967,5.0508,5.0729,5.0472,0.0,0.0,0.0,0.0,0.0,0.0,0.0,0.0,0.0,0.0,0.0,0.0,0.0,0.0,0.0,0.0,0.0,0.0,0.0,0.0,0.0,0.0,0.0,0.0,0.0,0.0,0.0,2.2497,2.2015,0.0,0.0,0.0,0.0,0.0,0.0,0.0,0.0,0.0,0.0,0.0,3.2501,3.2771,0.0,0.0,0.0,0.0,0.0,0.0,0.0,0.0,0.0,0.0,0.0,0.0,3.7745,3.8562,4.4506,4.7961,4.8481,4.9299,5.0116,5.0933,4.9893,4.7887,4.4915,0.0,0.0,0.0,0.0,0.0,0.0,0.0,0.0,0.0,0.0,0.0,0.0,0.0,0.0,0.0,0.0,0.0,0.0,0.0,0.0,0.0,0.0,0.0,0.0,0.0,3.2779,0.0,0.0,0.0,0.0,0.0,0.0,0.0,0.0,0.0,0.0,0.0,3.8652,4.1882,4.3901,4.5773,4.7645,4.9554,5.1316,0.0,0.0,0.0,0.0,0.0,0.0,0.0,0.0,0.0,0.0,0.0,0.0,0.0,0.0,4.3615,4.0161,4.0961,4.2087,4.1941,0.0,0.0,0.0,0.0,0.0,0.0,0.0,0.0,0.0,0.0,0.0,0.0,0.0,0.0,2.647,0.0,2.5374,0.0,0.0,0.0,0.0,0.0,0.0,0.0,0.0,3.4056,3.5614,3.6266,3.6345,3.6345,0.0,3.5465,3.3276,0.0,0.0,0.0,0.0,0.0,0.0,0.0,0.0,3.8748,3.8971,4.5175,4.8779,4.9336,5.0153,5.0971,5.1751,5.1008,4.9559,4.7478,4.3726,4.0791,0.0,0.0,0.0,0.0,0.0,0.0,0.0,0.0,0.0,0.0,0.0,0.0,0.0,0.0,0.0,0.0,0.0,0.0,0.0,0.0,0.0,0.0,0.0,3.4247,0.0,0.0,0.0,0.0,0.0,0.0,0.0,0.0,0.0,3.678,3.8836,4.1662,4.5112,4.6287,4.7315,4.8563,0.0,0.0,0.0,0.0,0.0,0.0,0.0,4.9224,4.8233,4.8783,4.9481,4.9994,5.0508,5.0648,5.0112,0.0,0.0,4.6838,4.68,4.7673,4.8547,4.8879,4.8806,4.8294,4.9768,5.0912,0.0,0.0,0.0,0.0,0.0,0.0,0.0,0.0,3.2915,3.325,0.0,3.1541,0.0,0.0,0.0,0.0,0.0,3.3584,0.0,0.0,4.12,4.2723,4.0606,4.0531,4.0531,4.0383,3.8116,3.7373,3.7894,3.5636,0.0,0.0,0.0,0.0,0.0,0.0,3.9677,3.8599,4.6141,5.0153,5.0153,5.1008,5.1788,5.2531,5.1788,5.1379,5.1305,4.8221,4.6178,4.5287,3.9268,0.0,0.0,0.0,0.0,0.0,0.0,0.0,0.0,0.0,0.0,0.0,0.0,0.0,0.0,0.0,0.0,0.0,0.0,0.0,0.0,3.3954,0.0,0.0,0.0,0.0,0.0,0.0,0.0,0.0,0.0,0.0,3.8212,4.1185,4.4452,4.6764,0.0,0.0,0.0,0.0,5.1169,4.9003,4.8563,4.8673,4.8746,5.0618,5.2601,5.4106,0.0,0.0,5.5941,5.4436,5.3335,5.2491,5.4913,5.6235,5.3849,5.1907,5.1508,5.3634,5.2409,5.0737,5.0707,5.2096,5.2784,3.5679,0.0,0.0,0.0,0.0,3.2733,3.3165,3.3844,3.3844,3.3993,3.4141,3.3473,0.0,0.0,0.0,0.0,0.0,0.0,3.7596,3.99,4.2129,4.3429,4.3912,4.3912,4.3875,4.3838,4.2537,4.2352,4.3095,4.2433,3.95,3.4476,0.0,0.0,0.0,0.0,4.2166,4.4172,4.8667,5.1045,5.1045,5.1825,5.2382,5.2568,5.1825,5.1676,5.2234,5.0265,4.8481,4.7033,4.4135,0.0,0.0,0.0,0.0,0.0,0.0,0.0,0.0,0.0,0.0,0.0,0.0,0.0,0.0,0.0,0.0,0.0,0.0,0.0,3.4587,3.678,3.7147,0.0,0.0,0.0,0.0,0.0,0.0,0.0,0.0,0.0,4.4415,4.4819,4.57,0.0,0.0,4.8086,4.7829,5.0215,5.2123,5.2601,5.3151,0.0,5.506,5.484,5.4693,5.517,5.7262,5.8694,5.8253,5.8731,5.9134,5.8841,5.9575,5.9905,5.9134,5.816,5.7747,5.8359,5.8406,5.8333,5.837,5.9087,5.9465,3.9577,3.6684,3.6159,3.6001,3.6081,3.6044,3.6838,3.8079,3.8079,3.8451,3.9008,3.8042,3.7596,3.7559,3.663,0.0,0.0,0.0,4.0717,4.3578,4.4023,4.4804,4.5769,4.6104,4.6252,4.6252,4.603,4.6401,4.7218,4.6252,4.3949,4.0383,0.0,0.0,3.8934,4.198,4.4358,4.6104,4.9559,5.1565,5.1862,5.2679,5.3088,5.3051,5.2605,5.2717,5.3497,5.2308,5.1156,5.0153,4.7627,4.4172,0.0,0.0,0.0,0.0,0.0,0.0,0.0,0.0,0.0,0.0,0.0,3.2072,0.0,0.0,0.0,0.0,3.678,3.7477,3.8285,3.9019,0.0,0.0,0.0,0.0,0.0,0.0,0.0,4.0675,4.5002,4.8086,4.8086,4.8526,4.9224,5.0325,5.0472,5.0472,5.0472,0.0,5.4509,5.484,5.528,5.5941,5.6895,5.7042,5.7336,5.8327,5.9612,6.0456,6.0236,6.1227,6.1825,6.1419,6.1702,6.1935,6.1412,6.1359,6.1337,6.1374,6.1741,6.2071,6.2071,6.2475,6.2658,4.2617,4.2459,4.0093,3.9203,3.9379,3.9379,4.1206,4.4172,4.4172,4.5064,4.629,4.4098,4.3095,4.2946,4.0717,0.0,4.3169,4.3206,4.4395,4.6587,4.6698,4.6735,4.6735,4.7516,4.7887,4.7924,4.8593,4.9336,5.0005,4.7887,4.7107,4.7738,4.6401,4.4023,4.1163,4.4581,4.6178,4.5658,4.9447,5.1825,5.2679,5.3423,5.3831,5.3905,5.3905,5.424,5.4946,5.4314,5.3905,5.3794,5.019,4.733,4.5509,0.0,0.0,0.0,0.0,0.0,0.0,0.0,0.0,0.0,0.0,0.0,0.0,0.0,0.0,0.0,4.1552,0.0,4.3791,4.1222,0.0,0.0,0.0,4.0855,4.4599,4.5883,4.6691,4.7241,0.0,0.0,5.0068,5.205,5.4142,5.5831,5.5794,5.5611,5.5611,5.6895,5.7556,5.6161,5.6124,5.6235,5.6859,5.829,6.0126,6.1998,6.2805,6.2438,6.1851,6.2218,6.2237,6.124,6.1901,6.2567,6.1842,6.2251,6.2842,6.2879,6.2842,6.2805,6.2768,6.2805,6.2805,4.4564,4.4711,4.4378,4.3894,4.341,4.341,4.4317,4.5881,4.5881,4.6141,4.6438,4.5881,4.5621,4.5584,4.4989,4.5398,4.6513,4.655,4.6847,4.7478,4.8667,4.8927,4.837,4.9187,4.9596,4.9596,4.915,4.9336,5.0079,4.9522,4.9039,4.8667,4.889,4.7404,4.4321,4.5732,4.7033,4.8036,5.0265,5.2085,5.346,5.372,5.4091,5.4723,5.4723,5.4834,5.4983,5.4834,5.4723,5.4686,5.2605,5.0413,4.811,4.3615,0.0,0.0,0.0,0.0,0.0,0.0,0.0,0.0,0.0,3.3696,3.1792,0.0,3.7477,0.0,4.3204,4.6287,4.7095,4.6471,0.0,0.0,4.5553,4.5736,4.7315,4.9848,5.0802,4.9114,5.2013,5.4179,5.4179,5.5207,5.7005,5.9648,5.7519,5.5611,5.5647,5.7519,5.8804,5.8584,5.9832,6.108,6.097,6.152,6.2108,6.2695,6.2842,6.2732,6.2548,6.2695,6.2682,6.2347,6.2558,6.2705,6.2589,6.2705,6.3122,6.3833,6.3429,6.2805,6.2805,6.2842,6.2842,4.5173,4.5352,4.5385,4.4813,4.398,4.4928,4.5981,4.7033,4.686,4.7083,4.7553,4.7553,4.759,4.7553,4.7553,4.7813,4.8221,4.8221,4.8444,4.8816,4.967,5.0079,5.0042,5.0859,5.1268,5.1268,5.1156,5.1305,5.1751,5.2122,5.2048,5.1639,5.2494,5.1454,4.863,4.7553,4.7478,4.837,5.0376,5.2382,5.424,5.4351,5.4203,5.3943,5.4277,5.4314,5.3943,5.3608,5.3571,5.3868,5.2382,5.0748,4.8927,4.5026,4.1646,0.0,0.0,0.0,0.0,0.0,0.0,0.0,0.0,0.0,0.0,0.0,4.0666,4.1846,4.6397,4.9003,4.8343,4.8306,4.8563,4.9224,4.926,5.0031,5.1867,5.4032,5.495,5.3959,5.6124,5.774,5.774,5.8437,5.9538,6.1374,5.9979,5.8804,5.8877,6.0015,6.0823,6.086,6.1961,6.2805,6.2805,6.2805,6.2952,6.3282,6.3392,6.3503,6.387,6.3906,6.3914,6.3962,6.3972,6.3826,6.3709,6.3847,6.4347,6.5375,6.4861,6.4016,6.3906,6.3906,6.3943,4.5341,4.5312,4.5045,4.4357,4.3565,4.5406,4.6431,4.6783,4.6576,4.7165,4.8481,4.8742,4.889,4.889,4.889,4.889,4.889,4.9002,4.941,5.0116,5.0339,5.0822,5.1565,5.2382,5.2754,5.2791,5.346,5.3868,5.398,5.4686,5.4909,5.476,5.5577,5.476,5.2271,4.9559,4.811,4.8073,5.045,5.2717,5.476,5.4648,5.3905,5.2717,5.3274,5.3311,5.2605,5.1936,5.1862,5.2494,5.1156,5.0153,4.9633,4.5918,4.3466,0.0,3.9806,0.0,0.0,0.0,0.0,0.0,0.0,0.0,0.0,4.3674,4.489,4.6544,4.9921,5.1279,4.9554,4.9481,5.0472,5.2637,5.3004,5.4179,5.6932,5.7886,5.8584,5.9281,6.0052,6.0566,6.0493,6.1263,6.1741,6.1814,6.2181,6.2328,6.2695,6.2622,6.2622,6.2805,6.2915,6.3062,6.3099,6.3135,6.3466,6.409,6.4281,6.4537,6.5301,6.5417,6.5513,6.5714,6.5696,6.553,6.5229,6.5387,6.6145,6.743,6.6696,6.5778,6.5448,6.5375,6.5485,4.6632,4.6659,4.6864,4.6829,4.6627,4.7042,4.529,4.2176,4.2308,4.3721,4.6104,4.8036,4.889,4.889,4.889,4.889,4.8927,4.9596,4.9968,5.0153,5.1491,5.2234,5.2419,5.32,5.3571,5.3571,5.372,5.4128,5.476,5.4946,5.4351,5.3125,5.3868,5.3051,5.0711,0.0,0.0,0.0,5.2122,5.3571,5.3943,5.2754,5.2234,5.2605,5.2754,0.0,5.2605,5.2457,5.2419,5.2568,5.1676,0.0,0.0,0.0,0.0,0.0,0.0,0.0,0.0,0.0,0.0,0.0,4.7165,4.6948,4.5297,4.6507,4.8343,5.0618,5.1573,5.2894,5.4987,5.5794,5.6602,5.7703,5.84,5.9061,5.9685,5.9832,6.0015,6.0162,6.0896,6.1374,6.141,6.2071,6.2585,6.2548,6.2695,6.2805,6.2805,6.2805,6.2805,6.2842,6.3392,6.3796,6.3833,6.4347,6.4751,6.5066,6.5113,6.5459,6.617,6.6372,6.6624,6.7195,6.7266,6.7247,6.7231,6.723,6.754,6.8495,6.8421,6.7834,6.6549,6.6292,6.6439,4.6998,0.0,4.7186,4.6597,0.0,4.5509,4.3664,4.0848,4.3431,4.551,4.7144,4.837,4.889,4.8853,4.8073,4.7701,4.7701,4.7293,4.7961,4.9522,5.0376,5.1639,5.32,5.3608,5.3794,5.3831,5.4203,5.4611,5.502,5.5837,5.5837,5.5057,5.5837,5.5577,5.4426,5.5169,5.4611,5.2605,5.3757,5.4983,5.6134,5.5429,5.4834,5.4463,5.4426,0.0,0.0,0.0,0.0,0.0,0.0,0.0,0.0,0.0,0.0,5.1342,5.0228,4.9707,5.008,5.0823,5.164,5.2456,5.3899,5.3222,4.9706,5.132,5.3188,5.4766,5.5317,5.6381,5.8327,5.8951,5.9355,5.9795,6.0162,6.0419,6.0456,6.075,6.1006,6.108,6.1704,6.2181,6.2218,6.2548,6.2805,6.2805,6.2805,6.2805,6.2805,6.2805,6.2915,6.3356,6.3759,6.4237,6.4604,6.5007,6.5668,6.6203,6.65,6.703,6.8073,6.8292,6.8601,6.9247,6.9155,6.9082,6.9853,6.9449,6.9119,6.9816,6.9779,6.9486,6.8862,6.8568,6.8385,4.6998,4.6998,4.6998,4.5891,4.4143,4.4143,4.3171,4.1902,0.0,0.0,0.0,4.8704,4.9002,4.9002,4.7738,4.7218,4.7256,4.6104,4.6995,4.9522,4.9707,5.1193,5.3757,5.3794,5.3868,5.4054,5.4686,5.5169,5.5503,5.684,5.7583,5.7769,5.8401,5.8772,5.8958,5.9738,5.8809,5.6246,5.58,5.6655,5.8624,5.8289,5.7435,5.6097,5.5912,5.5206,5.3868,5.3794,5.3794,5.3794,5.3163,5.2939,5.32,5.264,5.2454,5.2902,5.2902,5.3534,5.502,5.5726,5.6766,5.8211,5.935,5.8412,5.4667,5.6257,5.7749,5.8364,5.9024,5.9685,6.0346,6.0566,6.0603,6.0603,6.075,6.086,6.0896,6.1374,6.1814,6.1887,6.2365,6.2805,6.2768,6.2805,6.2805,6.2805,6.2805,6.2915,6.2989,6.3099,6.3392,6.4127,6.453,6.4824,6.5338,6.5925,6.6439,6.7614,6.7982,6.8678,6.9834,7.0291,7.0657,7.1191,7.0954,7.1044,7.1903,7.1207,7.0657,7.1034,7.0877,7.0641,7.117,7.1044,7.0697,4.6998,4.6998,4.6998,4.6819,4.6498,4.6498,4.6506,4.6416,4.57,4.5537,4.5918,4.7999,4.9299,4.993,4.9707,5.0005,5.0748,5.1193,5.1639,5.2122,5.2791,5.3348,5.3794,5.3794,5.4166,5.4797,5.4946,5.5763,5.7063,5.7398,5.7843,5.8475,5.8661,5.9069,5.9738,6.0593,6.0815,6.0295,5.8921,5.8364,5.8661,5.6617,5.5429,5.5169,5.4611,5.4054,5.3831,5.3868,5.3794,5.3794,5.3683,5.4277,5.5652,5.5649,5.654,5.8512,5.8698,5.9144,6.0072,6.0295,6.0661,6.1426,6.1122,6.0152,5.8769,5.9485,6.0047,6.0073,6.0173,6.0272,6.0456,6.1043,6.141,6.1484,6.2034,6.2475,6.2401,6.2511,6.2585,6.2585,6.2732,6.2805,6.2805,6.2805,6.2805,6.2805,6.2915,6.3135,6.3796,6.3906,6.4273,6.5007,6.5742,6.6145,6.6512,6.7577,6.8311,6.8678,6.9383,7.0032,7.0971,7.1135,7.1381,7.216,7.194,7.1874,7.1805,7.1961,7.1659,7.1151,7.1478,7.2028,7.1757,7.229,7.2899,4.6998,4.6998,4.6998,4.6998,4.6998,4.7187,4.7356,4.75,4.7302,4.7095,4.7163,4.8642,4.9639,5.0116,4.967,4.967,5.0042,4.9522,5.0005,5.1231,5.1639,5.2531,5.3757,5.424,5.4648,5.5057,5.5949,5.6766,5.7472,5.7918,5.8364,5.8735,5.9144,5.9775,6.0593,6.1447,6.1856,6.1819,6.1113,6.0741,6.0704,5.9627,5.9032,5.9032,5.8252,5.7806,5.7806,5.7843,5.7806,5.7806,5.7847,5.8182,5.8921,5.8953,5.9436,6.0518,6.0593,6.0778,6.1187,6.1187,6.1329,6.1619,6.173,6.1545,6.0981,6.072,6.0756,6.1103,6.1091,6.1275,6.1728,6.2083,6.2254,6.2254,6.2585,6.2805,6.2805,6.2805,6.2805,6.2805,6.2805,6.2805,6.2805,6.2805,6.2805,6.2842,6.3172,6.3943,6.5154,6.5411,6.5521,6.5925,6.6623,6.7283,6.776,6.8752,6.9633,7.011,7.0543,7.1107,7.1741,7.1709,7.1609,7.1769,7.1646,7.1603,7.1865,7.2325,7.2507,7.3068,7.3264,7.3603,7.3459,7.3933,7.4125,4.6998,4.6998,4.6998,4.6998,4.7043,4.7276,4.7471,4.7731,4.8532,4.8903,4.893,4.9634,5.0193,5.0565,5.0006,4.9819,4.9819,4.8742,4.9187,5.0822,5.0933,5.2048,5.398,5.4723,5.5206,5.5652,5.6915,5.7583,5.7843,5.8401,5.8809,5.9069,5.9998,6.0815,6.1484,6.2264,6.2673,6.2673,6.2673,6.2673,6.2673,6.2524,6.2413,6.2376,6.1596,6.1187,6.1187,6.1187,6.1187,6.1187,6.1193,6.1193,6.1187,6.1181,6.1255,6.1447,6.1484,6.1558,6.1744,6.1744,6.1744,6.1744,6.2301,6.2636,6.2406,6.1735,6.1476,6.1971,6.1985,6.2206,6.2733,6.2818,6.2805,6.2805,6.2805,6.2805,6.2805,6.2805,6.2805,6.2805,6.2805,6.2805,6.2805,6.2805,6.2915,6.3209,6.398,6.5154,6.6256,6.6733,6.7026,6.7173,6.7577,6.8128,6.8862,6.9743,7.0513,7.1248,7.1411,7.1778,7.2255,7.2121,7.2023,7.2096,7.1829,7.2026,7.2726,7.3062,7.3406,7.3942,7.4299,7.4882,7.5005,7.5042,7.5065,4.6998,4.6998,4.6998,4.6998,4.7033,4.7043,4.7517,4.8125,4.8279,4.9037,5.0149,5.0545,5.1182,5.1888,5.2121,5.2531,5.3162,5.3162,5.3162,5.3348,5.346,5.398,5.4834,5.502,5.5837,5.7063,5.7472,5.7918,5.8512,5.8698,5.9107,5.9887,6.1373,6.219,6.2376,6.3082,6.349,6.349,6.349,6.349,6.3453,6.2784,6.2413,6.2376,6.1633,6.1187,6.1298,6.1187,6.1224,6.1187,6.1261,6.1224,6.1224,6.1224,6.1558,6.2227,6.2301,6.2599,6.3267,6.3379,6.3305,6.3379,6.3379,6.3408,6.328,6.3197,6.3076,6.302,6.2915,6.2892,6.3002,6.2855,6.2805,6.2805,6.2805,6.2805,6.2805,6.2805,6.2805,6.2805,6.2805,6.2805,6.2805,6.2879,6.3209,6.4016,6.5264,6.6292,6.6769,6.7834,6.8568,6.8605,6.8788,6.8862,6.9192,7.0257,7.1174,7.1468,7.1945,7.2459,7.2731,7.3171,7.3443,7.3082,7.3642,7.3733,7.3852,7.415,7.4186,7.4095,7.4524,7.5175,7.5763,7.5983,7.5799,4.6998,4.6998,4.6998,4.7283,4.7676,4.7711,4.8139,4.8853,4.9636,5.0308,5.0947,5.182,5.233,5.2453,5.305,5.3497,5.3794,5.3794,5.4054,5.45,5.4537,5.4946,5.5726,5.6283,5.6878,5.7509,5.7992,5.8364,5.8735,5.9181,6.0072,6.1298,6.2116,6.2636,6.3119,6.3453,6.3602,6.3602,6.3602,6.3602,6.3565,6.3305,6.3119,6.3082,6.2822,6.2636,6.2636,6.2636,6.2636,6.2636,6.2636,6.2636,6.2636,6.2636,6.2784,6.3082,6.3119,6.3267,6.3602,6.3602,6.3602,6.3602,6.3602,6.3557,6.3511,6.3465,6.3382,6.3299,6.311,6.3002,6.3002,6.2855,6.2805,6.2805,6.2805,6.2805,6.2805,6.2805,6.2805,6.2805,6.2805,6.2842,6.2915,6.3246,6.409,6.5264,6.6549,6.732,6.7871,6.8898,6.9486,6.9669,7.0,7.033,7.0403,7.1248,7.2092,7.2606,7.2973,7.3266,7.3758,7.3678,7.3749,7.3785,7.3924,7.4232,7.4457,7.4696,7.4833,7.4892,7.558,7.646,7.6754,7.6827,7.6644,4.6998,4.7033,4.7212,4.764,4.8175,4.8389,4.8972,4.9829,5.0757,5.1312,5.1791,5.2852,5.3148,5.305,5.3534,5.3794,5.3831,5.4017,5.4463,5.502,5.5243,5.5837,5.6655,5.7212,5.7621,5.7881,5.8401,5.8809,5.9144,6.0147,6.1224,6.2301,6.2636,6.3007,6.3527,6.3602,6.3602,6.3602,6.3602,6.3602,6.3602,6.3602,6.3602,6.3602,6.3602,6.3602,6.3602,6.3602,6.3602,6.3602,6.3602,6.3602,6.3602,6.3602,6.3602,6.3602,6.3602,6.3602,6.3602,6.3602,6.3602,6.3602,6.3557,6.3557,6.3511,6.3419,6.3373,6.3289,6.3147,6.3051,6.3002,6.2855,6.2805,6.2805,6.2805,6.2805,6.2805,6.2805,6.2805,6.2805,6.3062,6.3282,6.3613,6.4457,6.5632,6.6623,6.7687,6.8495,6.9155,6.9889,7.044,7.0477,7.1284,7.1688,7.1541,7.2165,7.301,7.3487,7.3744,7.4221,7.4845,7.4493,7.4424,7.4811,7.4181,7.4271,7.5415,7.5762,7.5531,7.6537,7.7082,7.7169,7.7194,7.7304,7.7304,4.6998,4.7105,4.7818,4.8175,4.8247,4.896,4.9901,5.0948,5.1148,5.1871,5.3046,5.3281,5.3444,5.372,5.3831,5.3831,5.3943,5.4574,5.4983,5.5206,5.5912,5.6692,5.7435,5.7509,5.7918,5.8512,5.8735,5.9181,5.9961,6.1447,6.2339,6.245,6.3119,6.3527,6.3602,6.3602,6.3602,6.3602,6.3602,6.3602,6.3602,6.3602,6.3602,6.3602,6.3602,6.3602,6.3602,6.3602,6.3602,6.3602,6.3602,6.3602,6.3602,6.3602,6.3602,6.3602,6.3602,6.3602,6.3602,6.3602,6.3602,6.3602,6.3511,6.3465,6.3465,6.3289,6.3194,6.3051,6.3147,6.3099,6.3002,6.2904,6.2805,6.2805,6.2805,6.2805,6.2805,6.2915,6.2842,6.2989,6.3649,6.442,6.5154,6.6586,6.7283,6.7944,6.9009,6.9963,7.0073,7.0734,7.1211,7.1615,7.2349,7.3046,7.1872,7.2679,7.356,7.4074,7.4625,7.4955,7.5175,7.5372,7.5702,7.6008,7.6152,7.6418,7.6836,7.672,7.6323,7.67,7.7056,7.7243,7.7304,7.7341,7.7341,4.7308,4.782,4.84,4.9066,4.9758,5.0246,5.0973,5.1798,5.2287,5.2815,5.3281,5.3521,5.3678,5.3831,5.4351,5.4574,5.4611,5.4909,5.5577,5.6543,5.6952,5.7509,5.8215,5.8289,5.8401,5.8735,5.9218,6.0184,6.1447,6.2153,6.2673,6.3156,6.3453,6.3602,6.3602,6.3602,6.3602,6.3602,6.3602,6.3602,6.3602,6.3602,6.3602,6.3602,6.3602,6.3602,6.3602,6.3602,6.3602,6.3602,6.3602,6.3602,6.3602,6.3602,6.3602,6.3602,6.3602,6.3602,6.3602,6.3602,6.3602,6.3602,6.3557,6.3585,6.3511,6.3382,6.3326,6.3279,6.3099,6.3051,6.3002,6.2953,6.2904,6.2805,6.2842,6.2915,6.2915,6.3282,6.3613,6.3833,6.4751,6.5925,6.6806,6.7797,6.8641,6.9229,7.0183,7.077,7.0991,7.1578,7.2202,7.2753,7.3303,7.3707,7.3817,7.4001,7.4588,7.5102,7.5616,7.6019,7.6313,7.6423,7.6656,7.6619,7.7194,7.7144,7.7082,7.7082,7.6765,7.6765,7.7118,7.7426,7.7341,7.7598,7.7524,4.7851,4.8483,4.9074,4.9749,5.0592,5.1072,5.1762,5.2554,5.2944,5.3277,5.3481,5.3717,5.3943,5.424,5.476,5.5354,5.58,5.5837,5.6432,5.7472,5.7769,5.8178,5.8624,5.8698,5.8846,5.9255,6.0221,6.1336,6.2301,6.2673,6.3082,6.3565,6.3602,6.3602,6.3602,6.3602,6.3602,6.3602,6.3602,6.3602,6.3602,6.3602,6.3602,6.3602,6.3602,6.3602,6.3602,6.3602,6.3602,6.3639,6.3862,6.4122,6.4345,6.4382,6.4419,6.4419,6.4419,6.4419,6.4419,6.4419,6.4419,6.4419,6.4373,6.4373,6.4327,6.4234,6.4261,6.4398,6.4376,6.4304,6.4512,6.4622,6.4315,6.3759,6.3613,6.387,6.4347,6.4934,6.5411,6.5852,6.6623,6.7577,6.8385,6.9192,6.9853,7.0477,7.1211,7.1688,7.1798,7.2386,7.301,7.3634,7.4184,7.4735,7.5065,7.5432,7.5432,7.5836,7.6276,7.679,7.7047,7.7231,7.7341,7.7341,7.7243,7.7181,7.7118,7.7181,7.7217,7.7129,7.7547,7.8002,7.8002,7.8075,7.8185,4.8657,4.9033,4.9785,5.0346,5.0784,5.1526,5.2325,5.3072,5.298,5.3314,5.3866,5.3868,5.4351,5.4909,5.5243,5.5986,5.71,5.7323,5.7435,5.7695,5.8289,5.8624,5.8698,5.8809,5.9329,6.0072,6.1558,6.2339,6.2562,6.3156,6.3565,6.3602,6.3602,6.3602,6.3602,6.3602,6.3602,6.3602,6.3602,6.3602,6.3602,6.3602,6.3602,6.3602,6.3602,6.3639,6.3676,6.3676,6.3713,6.3788,6.4419,6.5199,6.5794,6.5877,6.5989,6.5868,6.6017,6.6017,6.5979,6.5942,6.5831,6.5831,6.5848,6.5652,6.5615,6.5668,6.5866,6.6347,6.6629,6.6948,6.7399,6.7421,6.6801,6.5632,6.5301,6.5888,6.6953,6.7577,6.7981,6.8495,6.8825,6.9229,7.0,7.066,7.1174,7.1394,7.1982,7.2532,7.2569,7.3193,7.3634,7.4074,7.4845,7.5616,7.6203,7.6644,7.6497,7.646,7.6827,7.7231,7.7194,7.7341,7.7341,7.7341,7.7341,7.7217,7.7531,7.7531,7.7641,7.7687,7.817,7.8662,7.8699,7.8846,7.9213,4.9153,4.9528,5.0576,5.1144,5.1538,5.2436,5.303,5.3318,5.34,5.3933,5.4498,5.4611,5.5094,5.5912,5.6469,5.7026,5.7546,5.8029,5.8326,5.8364,5.8586,5.8698,5.8846,5.9292,6.0258,6.1484,6.2116,6.271,6.3193,6.349,6.3602,6.3602,6.3602,6.3602,6.3602,6.3602,6.3602,6.3602,6.3602,6.3602,6.3602,6.3602,6.3602,6.3602,6.3602,6.3862,6.4382,6.4419,6.4419,6.4456,6.5236,6.5831,6.6054,6.6128,6.6128,6.6091,6.6091,6.6091,6.6091,6.6128,6.6165,6.6128,6.6081,6.6044,6.6155,6.6553,6.6864,6.7148,6.7418,6.7834,6.7863,6.7794,6.763,6.699,6.6953,6.7136,6.7871,6.8311,6.8862,6.9633,7.022,7.066,7.0991,7.1615,7.2055,7.2202,7.2789,7.3266,7.3413,7.4001,7.4771,7.5322,7.5983,7.635,7.6754,7.7011,7.6937,7.6827,7.7121,7.7341,7.7341,7.7341,7.7341,7.7451,7.7451,7.7609,7.7824,7.8163,7.8446,7.8885,7.9663,7.9764,7.9543,7.9874,8.0498,4.9994,5.0322,5.1105,5.1551,5.175,5.2554,5.3072,5.3355,5.3853,5.442,5.4944,5.5354,5.5949,5.6729,5.7286,5.7658,5.7955,5.8512,5.8698,5.8698,5.8698,5.8846,5.9292,6.0333,6.1298,6.2264,6.271,6.3119,6.3565,6.3602,6.3602,6.3602,6.3602,6.3602,6.3602,6.3602,6.3602,6.3602,6.3602,6.3602,6.3602,6.3602,6.3602,6.3639,6.3899,6.4308,6.4828,6.5385,6.5608,6.5496,6.6091,6.6658,6.6945,6.7009,6.6972,6.6982,6.702,6.7057,6.702,6.7094,6.6982,6.6982,6.6982,6.702,6.7168,6.7763,6.8197,6.8494,6.9133,6.9495,6.9667,6.9577,6.9486,6.9486,6.8935,6.8935,6.9302,6.9889,7.0403,7.1027,7.1431,7.1688,7.1908,7.2092,7.2642,7.2936,7.3377,7.3891,7.4147,7.4845,7.5542,7.6093,7.646,7.679,7.7194,7.7304,7.7304,7.7268,7.7268,7.7341,7.7341,7.7341,7.7341,7.7855,7.8002,7.8405,7.8683,7.949,8.003,8.0645,8.1048,8.1452,8.1562,8.1856,8.2296,5.099,5.1255,5.1544,5.1651,5.1701,5.2304,5.3003,5.3539,5.428,5.4892,5.5352,5.6063,5.6806,5.7435,5.7698,5.7992,5.8586,5.8661,5.8809,5.8846,5.8921,5.9292,6.0295,6.1521,6.2264,6.2636,6.323,6.3527,6.3602,6.3602,6.3565,6.3453,6.3527,6.3565,6.349,6.3527,6.3602,6.3602,6.3602,6.3602,6.3602,6.3602,6.3676,6.375,6.4382,6.4865,6.5348,6.65,6.6982,6.6462,6.6993,6.7662,6.8283,6.8506,6.8357,6.8283,6.8468,6.8357,6.8431,6.8246,6.8357,6.8431,6.8431,6.8617,6.8729,6.9311,6.9966,7.0406,7.1115,7.1765,7.2152,7.2149,7.2129,7.2202,7.0954,7.0881,7.2165,7.2275,7.2129,7.2275,7.2459,7.2532,7.2496,7.2642,7.3046,7.3597,7.3927,7.4404,7.4918,7.5579,7.6019,7.646,7.6864,7.7011,7.7341,7.7341,7.7341,7.7341,7.7341,7.7341,7.7488,7.7524,7.7671,7.8148,7.8699,7.9103,7.969,8.0498,8.0975,8.1232,8.1929,8.303,8.3398,8.3324,8.3251,5.1429,5.162,5.2206,5.2427,5.2672,5.3744,5.433,5.464,5.5336,5.6084,5.6726,5.6945,5.7542,5.8326,5.8364,5.8512,5.8698,5.8735,5.9069,5.9552,5.9589,6.0444,6.1521,6.2153,6.2747,6.323,6.3453,6.3602,6.3602,6.3527,6.3305,6.2784,6.3305,6.3305,6.2859,6.3342,6.3602,6.3602,6.3602,6.3602,6.3602,6.3639,6.3899,6.4493,6.4753,6.5459,6.6537,6.7651,6.8134,6.7948,6.8023,6.8246,6.8468,6.8543,6.8543,6.8543,6.8543,6.8543,6.8543,6.8543,6.8766,6.9323,6.9323,6.9657,7.0289,7.0893,7.1309,7.1595,7.2023,7.2429,7.2573,7.2496,7.2496,7.2496,7.1982,7.1945,7.2349,7.2532,7.2532,7.2532,7.2532,7.2789,7.3156,7.3413,7.3707,7.4441,7.4992,7.5432,7.5836,7.6313,7.679,7.6937,7.7194,7.7268,7.7341,7.7341,7.7341,7.7341,7.7341,7.7378,7.7671,7.7965,7.8185,7.8552,7.9286,7.9764,8.0534,8.1342,8.1562,8.1782,8.292,8.3948,8.3801,8.3691,8.3654,5.1982,5.2118,5.298,5.3251,5.3361,5.4686,5.5303,5.5451,5.631,5.6945,5.7468,5.7798,5.8169,5.8661,5.8698,5.8921,5.9181,5.9218,5.9664,6.0444,6.0815,6.1521,6.2301,6.271,6.3156,6.3527,6.3602,6.3416,6.3156,6.3082,6.2822,6.2599,6.2859,6.3007,6.3044,6.3342,6.3602,6.3602,6.3602,6.3602,6.3602,6.3973,6.4308,6.4939,6.5422,6.6537,6.7725,6.8246,6.8506,6.8506,6.8506,6.8543,6.8543,6.8543,6.8543,6.8543,6.8543,6.8543,6.8543,6.8543,6.8914,6.9509,6.9732,7.014,7.0759,7.1561,7.1939,7.1763,7.2392,7.265,7.2553,7.2532,7.2532,7.2496,7.2532,7.2532,7.2532,7.2532,7.2532,7.2569,7.2826,7.3156,7.367,7.3964,7.4588,7.5212,7.5689,7.613,7.657,7.7047,7.7341,7.7341,7.7341,7.7341,7.7341,7.7341,7.7451,7.7451,7.8075,7.7965,7.8222,7.8626,7.9066,7.9507,7.9984,8.0534,8.1269,8.1893,8.2223,8.2774,8.3911,8.4315,8.4132,8.4058,8.4022,5.2572,5.2845,5.3851,5.4099,5.4082,5.5324,5.595,5.6135,5.7085,5.7617,5.7843,5.8359,5.8582,5.8735,5.8884,5.9255,5.9887,5.9961,6.0593,6.1336,6.2004,6.2562,6.2673,6.323,6.349,6.3565,6.3565,6.3082,6.2636,6.2413,6.2264,6.2264,6.2339,6.2784,6.3156,6.349,6.3602,6.3602,6.3602,6.375,6.3936,6.4419,6.4865,6.5534,6.6648,6.754,6.8208,6.8506,6.8543,6.8543,6.8543,6.8543,6.8543,6.8543,6.8543,6.8543,6.8543,6.8543,6.858,6.8654,6.9063,6.9769,6.9917,7.0289,7.1167,7.1909,7.2013,7.1985,7.2576,7.2686,7.259,7.2532,7.2532,7.2532,7.2532,7.2532,7.2606,7.2606,7.2606,7.2679,7.334,7.3744,7.4111,7.4551,7.5322,7.6056,7.6423,7.6644,7.69,7.7157,7.7341,7.7341,7.7341,7.7341,7.7341,7.7341,7.7488,7.7671,7.8736,7.9103,7.9213,7.9617,8.0167,8.0608,8.0828,8.1232,8.1819,8.2333,8.2627,8.292,8.3434,8.3985,8.4352,8.4352,8.4352,5.3524,5.4275,5.4621,5.5147,5.5817,5.6677,5.7089,5.7163,5.7942,5.828,5.8433,5.8535,5.8609,5.8772,5.9329,5.9733,6.0147,6.0704,6.1373,6.219,6.297,6.3305,6.3342,6.3565,6.3602,6.349,6.297,6.2599,6.2301,6.1819,6.1484,6.1558,6.2153,6.2487,6.2784,6.3379,6.3602,6.3602,6.3639,6.3973,6.4456,6.4828,6.5534,6.6611,6.7688,6.8246,6.8468,6.8543,6.8543,6.8543,6.8543,6.8543,6.8543,6.8543,6.8543,6.8543,6.8543,6.8543,6.8617,6.9063,6.9806,7.0437,7.0698,7.1255,7.2666,7.2124,7.224,7.2447,7.265,7.261,7.2496,7.2532,7.2606,7.2606,7.2679,7.2863,7.3266,7.3413,7.3377,7.3597,7.4147,7.4845,7.5432,7.5579,7.6203,7.6864,7.7047,7.7121,7.7231,7.7304,7.7341,7.7341,7.7341,7.7341,7.7378,7.7598,7.8075,7.8442,7.9433,8.0204,8.0314,8.0424,8.0901,8.1269,8.1525,8.1929,8.2186,8.2223,8.237,8.2663,8.292,8.3324,8.3765,8.4132,8.4205,5.4474,5.5373,5.5862,5.6351,5.6952,5.7732,5.8066,5.8141,5.8429,5.8614,5.8656,5.8651,5.8837,5.9292,5.9738,6.0258,6.1187,6.193,6.2562,6.3007,6.3453,6.3565,6.3602,6.3602,6.3602,6.349,6.2784,6.2301,6.1819,6.1447,6.1224,6.1261,6.2004,6.2636,6.2933,6.3379,6.3565,6.3713,6.401,6.4419,6.4791,6.5645,6.65,6.7614,6.8283,6.8543,6.8543,6.8543,6.8543,6.8543,6.8543,6.8543,6.8543,6.8543,6.8543,6.8543,6.8543,6.8543,6.8691,6.9249,7.0029,7.0846,7.1255,7.2184,7.2949,7.2717,7.261,7.2834,7.2779,7.2553,7.2532,7.2936,7.301,7.312,7.3413,7.3817,7.4111,7.3964,7.3891,7.4258,7.4955,7.5506,7.5983,7.635,7.668,7.7157,7.7157,7.7231,7.7231,7.7341,7.7341,7.7341,7.7341,7.7341,7.7451,7.7892,7.8736,7.9396,8.0277,8.0938,8.1305,8.1415,8.1562,8.1782,8.1893,8.2003,8.2186,8.2186,8.2186,8.237,8.259,8.2774,8.292,8.3141,8.3141,5.5364,5.6348,5.7052,5.7464,5.7769,5.8401,5.8661,5.8661,5.8698,5.8809,5.8884,5.8884,5.9361,5.9998,6.0333,6.1224,6.2376,6.3082,6.3416,6.349,6.3527,6.3602,6.3602,6.3602,6.3602,6.349,6.2784,6.2079,6.1447,6.1187,6.1187,6.1336,6.2004,6.2747,6.3416,6.3602,6.375,6.3936,6.4419,6.5051,6.5459,6.6574,6.7503,6.8246,6.8468,6.8543,6.8543,6.8543,6.8543,6.8543,6.8543,6.8543,6.8543,6.8543,6.8543,6.8543,6.8543,6.8543,6.8729,6.9397,7.0289,7.0958,7.1478,7.2369,7.3075,7.2881,7.2758,7.313,7.3221,7.3198,7.2936,7.3487,7.3854,7.3964,7.4515,7.4918,7.4955,7.4478,7.4588,7.5028,7.5763,7.635,7.657,7.6827,7.7121,7.7341,7.7341,7.7341,7.7341,7.7341,7.7341,7.7524,7.7598,7.8148,7.8295,7.8809,7.9617,8.0131,8.1012,8.1489,8.1966,8.1929,8.1893,8.2039,8.215,8.2186,8.2186,8.2186,8.2186,8.2186,8.226,8.2443,8.237,8.2223,8.2296,5.6256,5.7126,5.7353,5.7839,5.8475,5.8661,5.8698,5.8698,5.8735,5.9107,5.9627,5.9738,6.0184,6.0927,6.1707,6.2524,6.3193,6.3565,6.3602,6.3602,6.3602,6.3602,6.3602,6.3602,6.3602,6.3416,6.2903,6.2122,6.1373,6.1187,6.1298,6.141,6.2079,6.2896,6.3416,6.3639,6.401,6.4456,6.4902,6.5608,6.6537,6.7168,6.7725,6.8468,6.8543,6.8543,6.8543,6.8543,6.8543,6.8543,6.8543,6.8543,6.8543,6.8543,6.8543,6.8543,6.8543,6.8543,6.8691,6.9806,7.0586,7.092,7.1292,7.2072,7.2689,7.231,7.2704,7.3572,7.4212,7.4404,7.4515,7.4588,7.4661,7.4771,7.4955,7.5285,7.5689,7.5726,7.5616,7.5946,7.657,7.7011,7.7047,7.7084,7.7194,7.7341,7.7341,7.7341,7.7341,7.7341,7.7378,7.7671,7.8002,7.8699,7.936,8.0021,8.0681,8.0865,8.1452,8.1782,8.2113,8.215,8.2186,8.2186,8.2186,8.2186,8.2186,8.2186,8.2186,8.2186,8.2186,8.2186,8.2223,8.2296,8.237,5.7159,5.7983,5.8062,5.8326,5.8661,5.8698,5.8698,5.8772,5.9144,5.9552,5.9961,6.0407,6.1038,6.1744,6.219,6.2859,6.3453,6.3602,6.3602,6.3602,6.3602,6.3602,6.3602,6.3602,6.3602,6.358,6.3339,6.2519,6.1373,6.167,6.1602,6.1558,6.2376,6.323,6.3639,6.4048,6.4419,6.4902,6.5645,6.6425,6.7317,6.7651,6.8171,6.8394,6.8543,6.8543,6.8543,6.8543,6.8543,6.8543,6.8543,6.8543,6.8543,6.8543,6.8543,6.8543,6.8543,6.8543,6.8654,6.9694,7.0586,7.1552,7.1886,7.2964,7.3914,7.3922,7.3481,7.4233,7.4669,7.4918,7.4845,7.5285,7.5506,7.5616,7.5836,7.624,7.657,7.668,7.668,7.6644,7.6974,7.7194,7.7231,7.7268,7.7304,7.7341,7.7341,7.7341,7.7341,7.7451,7.7561,7.8295,7.8772,7.947,8.0167,8.0718,8.1305,8.1562,8.1746,8.2076,8.2186,8.2186,8.2186,8.2186,8.2186,8.2186,8.2186,8.2186,8.2186,8.2186,8.2186,8.2223,8.2333,8.2406,8.259,5.8021,5.8698,5.8698,5.8698,5.8735,5.8884,5.8958,5.9107,5.9812,6.0295,6.0518,6.115,6.1893,6.2487,6.271,6.3044,6.3602,6.3602,6.3602,6.3602,6.3602,6.3602,6.3602,6.3602,6.3647,6.383,6.3888,6.3297,6.2155,6.2533,6.2337,6.2258,6.3109,6.3758,6.3973,6.4456,6.4828,6.5682,6.65,6.7317,6.7688,6.8171,6.8543,6.8543,6.8543,6.8543,6.8543,6.8543,6.8543,6.8543,6.8543,6.8543,6.8543,6.8543,6.858,6.8729,6.8766,6.8766,6.9063,7.014,7.1441,7.2332,7.3001,7.4078,7.4954,7.4996,7.5158,7.5161,7.5432,7.5542,7.5726,7.5983,7.6276,7.6423,7.6864,7.7304,7.7194,7.7194,7.7157,7.7194,7.7341,7.7341,7.7341,7.7341,7.7341,7.7341,7.7341,7.7341,7.7378,7.7745,7.8075,7.9029,7.9727,8.0351,8.0865,8.1195,8.1636,8.1929,8.1966,8.215,8.2186,8.2186,8.2186,8.2186,8.2186,8.2186,8.2186,8.2186,8.2186,8.2186,8.2186,8.237,8.2663,8.2957,8.3214,5.8461,5.8698,5.8698,5.8698,5.8846,5.9441,5.9775,5.9887,6.0667,6.1484,6.1893,6.2227,6.271,6.323,6.3424,6.349,6.3647,6.3698,6.3742,6.3742,6.3742,6.3698,6.3647,6.3602,6.3873,6.4046,6.4209,6.3646,6.316,6.3804,6.3729,6.3158,6.3678,6.4337,6.4867,6.524,6.5571,6.6722,6.7205,6.7651,6.8257,6.848,6.8554,6.8543,6.8543,6.8543,6.8543,6.8543,6.8543,6.8543,6.8543,6.8543,6.8543,6.8543,6.8951,6.9323,6.9583,6.9583,6.988,7.1143,7.2555,7.3038,7.341,7.3892,7.4937,7.5477,7.5674,7.6006,7.646,7.6754,7.668,7.7011,7.7157,7.7121,7.7194,7.7341,7.7341,7.7341,7.7341,7.7341,7.7402,7.7402,7.7402,7.7341,7.7341,7.7341,7.7341,7.7378,7.7671,7.8222,7.8809,7.9764,8.0498,8.1122,8.1342,8.1709,8.1856,8.2186,8.2186,8.2186,8.2186,8.2186,8.2186,8.2186,8.2186,8.2186,8.2186,8.2186,8.2186,8.237,8.2627,8.292,8.3214,8.3508,8.3948,5.8805,5.8698,5.8698,5.8995,5.9404,5.9775,6.0184,6.0778,6.1521,6.2079,6.2487,6.2933,6.3305,6.361,6.383,6.3958,6.3963,6.4091,6.4214,6.4174,6.4174,6.4091,6.4046,6.4131,6.4292,6.4291,6.4593,6.4799,6.4499,6.4434,6.4327,6.4254,6.4785,6.5615,6.6128,6.6657,6.7133,6.7679,6.8032,6.8481,6.8743,6.8809,6.8717,6.8506,6.8506,6.8543,6.8543,6.8543,6.8543,6.8543,6.8543,6.8766,6.9063,6.9286,6.9546,7.0326,7.0883,7.0883,7.066,7.1552,7.2666,7.3781,7.419,7.4842,7.5866,7.6068,7.6191,7.6717,7.6644,7.6864,7.7231,7.7304,7.7341,7.7341,7.7341,7.7341,7.7341,7.7341,7.7341,7.7402,7.7463,7.7463,7.756,7.761,7.7549,7.7488,7.7598,7.7781,7.8442,7.9396,7.9984,8.0645,8.1232,8.1782,8.1893,8.2039,8.2003,8.2186,8.2186,8.2186,8.2186,8.2186,8.2186,8.2186,8.2186,8.2186,8.2223,8.2333,8.248,8.281,8.3214,8.3544,8.3911,8.4682,8.5159,5.9318,5.9283,5.919,5.9441,5.9961,6.0333,6.089,6.1558,6.2376,6.271,6.2859,6.3305,6.361,6.3786,6.4046,6.4249,6.4368,6.4592,6.4664,6.4699,6.4664,6.4519,6.4445,6.4519,6.4592,6.4483,6.4942,6.5383,6.5605,6.5543,6.5422,6.5289,6.6049,6.678,6.754,6.796,6.826,6.8474,6.8795,6.9058,6.9219,6.9134,6.8908,6.8717,6.8602,6.8543,6.8543,6.8543,6.8543,6.8543,6.8803,6.9174,6.9546,6.988,7.04,7.1106,7.1701,7.1886,7.1775,7.2258,7.2889,7.3855,7.4635,7.5011,7.6031,7.6306,7.6375,7.668,7.6497,7.6644,7.7084,7.7304,7.7341,7.7341,7.7341,7.7341,7.7341,7.7402,7.7402,7.7524,7.7584,7.7703,7.7777,7.7901,7.7915,7.7733,7.7855,7.8148,7.9103,8.0277,8.0828,8.1305,8.1636,8.2039,8.2113,8.2186,8.2186,8.2186,8.2186,8.2186,8.2186,8.2186,8.2186,8.2186,8.2223,8.2517,8.2774,8.2774,8.281,8.3251,8.3691,8.4205,8.4756,8.5527,8.6077,6.0217,6.0808,6.0481,6.0306,6.0115,6.1596,6.2227,6.247,6.3163,6.3505,6.3512,6.361,6.3915,6.4128,6.4291,6.4445,6.4664,6.4699,6.4803,6.4803,6.4699,6.4769,6.4734,6.4803,6.4904,6.5112,6.5482,6.6116,6.6754,6.6995,6.6739,6.6629,6.7362,6.7897,6.8367,6.8749,6.9129,6.9285,6.9431,6.9428,6.9468,6.9388,6.9134,6.8959,6.8717,6.8506,6.8543,6.8543,6.8654,6.8654,6.9137,6.9769,7.014,7.0586,7.1218,7.1961,7.2221,7.2518,7.2778,7.3261,7.4153,7.4487,7.4784,7.4937,7.5254,7.4755,7.499,7.6116,7.6019,7.646,7.6974,7.7341,7.7341,7.7341,7.7341,7.7304,7.7402,7.7463,7.7524,7.7584,7.774,7.7857,7.819,7.8411,7.8344,7.8259,7.8846,7.9213,7.9947,8.0938,8.1379,8.1782,8.1966,8.215,8.215,8.2186,8.2186,8.2186,8.2186,8.2186,8.2186,8.2186,8.2186,8.226,8.237,8.2847,8.3361,8.3581,8.3765,8.3875,8.4205,8.4829,8.5453,8.6151,8.6554,6.0913,6.1093,6.214,6.2429,6.2146,6.2786,6.3351,6.3803,6.4142,6.4292,6.4253,6.4292,6.4369,6.4557,6.4807,6.4909,6.5105,6.5397,6.5359,6.5456,6.5456,6.5299,6.5268,6.5268,6.5388,6.5541,6.5973,6.6496,6.7025,6.8013,6.8564,6.8685,6.8781,6.9327,6.9705,6.9633,6.99,7.0119,7.003,6.9959,6.9959,6.9923,6.9625,6.9091,6.9041,6.8754,6.8554,6.8506,6.8803,6.9174,6.9595,7.0215,7.0958,7.1478,7.2035,7.2741,7.2815,7.3038,7.3261,7.3744,7.4041,7.4821,7.5416,7.5679,7.4774,7.4829,7.5248,7.5735,7.5652,7.5946,7.7047,7.7304,7.7341,7.7341,7.7304,7.7304,7.7463,7.7524,7.7643,7.7762,7.799,7.8179,7.8586,7.8994,7.8928,7.8859,7.9595,8.0277,8.0901,8.1379,8.1746,8.1966,8.2113,8.2186,8.2251,8.2186,8.2186,8.2186,8.2186,8.2186,8.2186,8.2186,8.2223,8.2333,8.2627,8.3141,8.3728,8.4389,8.4792,8.5013,8.527,8.5637,8.6224,8.6738,8.6885,6.1446,6.1857,6.3192,6.3676,6.3554,6.3748,6.4203,6.4623,6.4699,6.4699,6.4661,6.4471,6.4427,6.4562,6.4724,6.4938,6.5102,6.5536,6.5769,6.5833,6.5781,6.569,6.5663,6.574,6.5843,6.5991,6.6573,6.7205,6.809,6.9167,6.9602,6.9833,7.009,7.0409,7.0546,7.0563,7.0532,7.0719,7.0532,7.04,7.0432,7.0304,7.0099,6.9468,6.9261,6.8997,6.8866,6.891,6.9211,6.9694,7.0301,7.1045,7.1826,7.2495,7.2867,7.3149,7.3372,7.3372,7.3372,7.3447,7.3632,7.419,7.4933,7.5123,7.4996,7.4737,7.4605,7.511,7.4992,7.5506,7.69,7.7084,7.7268,7.7341,7.7341,7.7341,7.7524,7.768,7.7762,7.7879,7.8105,7.8368,7.8977,7.9459,7.9704,7.9854,8.0688,8.1149,8.1415,8.1782,8.2003,8.2113,8.215,8.2251,8.2251,8.2251,8.2186,8.2251,8.2251,8.2186,8.2186,8.2223,8.2443,8.2774,8.3141,8.3508,8.4205,8.5049,8.571,8.6261,8.6334,8.6297,8.6518,8.6921,8.6958,6.1771,6.318,6.3284,6.3408,6.3622,6.4355,6.4693,6.4723,6.4765,6.4765,6.4647,6.4044,6.3796,6.4016,6.4135,6.4287,6.468,6.5372,6.5743,6.5667,6.582,6.5833,6.591,6.5987,6.6333,6.6936,6.7475,6.8282,6.9398,6.9744,7.0206,7.0552,7.0667,7.0744,7.0871,7.0494,7.0494,7.0777,7.0501,7.0593,7.069,7.0532,7.0304,6.9995,6.9587,6.9303,6.9466,6.9472,6.9815,7.0362,7.1231,7.1937,7.2295,7.2927,7.3224,7.3335,7.3372,7.3372,7.3372,7.3372,7.3484,7.3632,7.4301,7.41,7.3404,7.3295,7.3776,7.4654,7.4647,7.5285,7.613,7.6827,7.7157,7.7268,7.7268,7.7353,7.7473,7.7503,7.7546,7.792,7.8239,7.8611,7.9277,7.9903,8.0369,8.0948,8.1781,8.2123,8.1994,8.2039,8.2186,8.2186,8.2186,8.2251,8.2316,8.2251,8.2251,8.2316,8.2316,8.2251,8.2296,8.2406,8.2737,8.3177,8.3801,8.4315,8.5013,8.5747,8.6224,8.6591,8.6811,8.6848,8.6995,8.7031,8.7031,6.1997,6.2551,6.3065,6.331,6.3598,6.4872,6.5178,6.4795,6.514,6.5178,6.468,6.4298,6.3866,6.3706,6.3552,6.3604,6.3872,6.4628,6.5013,6.5089,6.5474,6.5859,6.5974,6.632,6.6821,6.7359,6.8052,6.8898,6.9629,7.0129,7.0514,7.086,7.0821,7.0898,7.0717,7.0402,7.0228,7.0755,7.0777,7.0777,7.0871,7.0748,7.0563,7.0337,6.9995,6.9967,7.0226,7.0255,7.0629,7.1406,7.2384,7.2508,7.2829,7.3387,7.3424,7.3424,7.3424,7.3372,7.3372,7.3372,7.3372,7.3521,7.3744,7.3654,7.3268,7.3609,7.4034,7.4322,7.4574,7.5432,7.6717,7.7047,7.7268,7.7157,7.7182,7.7252,7.7297,7.7176,7.7236,7.7905,7.8351,7.8685,7.926,7.9702,8.023,8.0567,8.1181,8.1865,8.1856,8.2039,8.2186,8.2186,8.2186,8.2316,8.2316,8.2316,8.2316,8.2343,8.2316,8.2186,8.2333,8.2627,8.3104,8.3618,8.4425,8.5159,8.571,8.6187,8.6481,8.6811,8.6921,8.6995,8.7031,8.7031,8.7031,6.1843,6.2127,6.2666,6.2858,6.3089,6.4397,6.4666,6.4282,6.4743,6.4666,6.4141,6.3858,6.3435,6.2974,6.2897,6.2897,6.2974,6.3743,6.4166,6.4243,6.4666,6.5243,6.5859,6.6513,6.7244,6.7898,6.8936,6.9783,7.0206,7.0629,7.086,7.0821,7.0667,7.0667,7.0591,7.0486,7.0409,7.086,7.0871,7.0871,7.0898,7.0805,7.0748,7.0563,7.0413,7.0514,7.0951,7.1289,7.1605,7.2567,7.3007,7.3007,7.3442,7.3527,7.3527,7.354,7.3604,7.354,7.3476,7.3372,7.3372,7.341,7.393,7.3766,7.3305,7.3424,7.3904,7.4286,7.4574,7.5506,7.657,7.69,7.7145,7.7059,7.7289,7.7334,7.7509,7.7328,7.7404,7.8072,7.8351,7.8722,7.9056,7.95,7.9941,8.017,8.0432,8.1019,8.1663,8.1856,8.2039,8.2076,8.2215,8.238,8.2444,8.2444,8.2508,8.2471,8.2444,8.2251,8.27,8.3067,8.3544,8.4095,8.4939,8.5637,8.6151,8.6591,8.6775,8.6885,8.6958,8.7031,8.7031,8.7031,8.7031,6.1281,6.1997,6.2036,6.2074,6.2204,6.2935,6.3243,6.332,6.3358,6.3397,6.3243,6.2551,6.2243,6.2089,6.205,6.205,6.2243,6.2897,6.3205,6.3435,6.382,6.4628,6.5436,6.6128,6.7205,6.8667,6.9552,6.9629,7.0629,7.0629,7.0667,7.0744,7.0398,7.0514,7.0706,7.0783,7.0783,7.086,7.0898,7.0898,7.0898,7.1052,7.0986,7.0834,7.0754,7.1127,7.1578,7.2013,7.2661,7.3333,7.3835,7.3959,7.3954,7.3653,7.3763,7.3906,7.4009,7.3763,7.354,7.349,7.3372,7.3372,7.3447,7.3268,7.3199,7.3239,7.3646,7.4065,7.439,7.5235,7.6019,7.6507,7.6994,7.7201,7.7481,7.7694,7.7846,7.7886,7.7942,7.8146,7.8276,7.8462,7.8573,7.9,7.9426,7.9327,7.9519,7.9989,8.0651,8.1553,8.1737,8.1957,8.2159,8.2471,8.2571,8.2633,8.2633,8.2659,8.2571,8.2555,8.3014,8.3544,8.4168,8.486,8.549,8.6114,8.6554,8.6811,8.6921,8.7031,8.7031,8.7031,8.7031,8.7031,8.7031,6.0935,6.1166,6.1189,6.1166,6.1204,6.1396,6.2166,6.3205,6.3281,6.3051,6.2397,6.2204,6.1743,6.1204,6.1166,6.1204,6.1512,6.1935,6.232,6.2743,6.3435,6.432,6.5205,6.6128,6.7128,6.7859,6.8513,6.9013,6.9283,6.9667,7.0475,7.0706,7.0552,7.0706,7.0783,7.0898,7.0898,7.0898,7.0898,7.0898,7.1091,7.136,7.1245,7.1035,7.1276,7.1803,7.2556,7.2597,7.3336,7.4522,7.4518,7.454,7.4497,7.4369,7.4455,7.4374,7.4199,7.3916,7.3811,7.3591,7.3424,7.3424,7.3499,7.3372,7.3268,7.333,7.3628,7.4159,7.4559,7.5308,7.6287,7.6921,7.7201,7.7467,7.7694,7.7698,7.7849,7.7905,7.7961,7.8183,7.8276,7.8313,7.8388,7.8462,7.8815,7.859,7.8697,7.9187,7.9805,8.0787,8.1497,8.1718,8.2186,8.2597,8.2696,8.2758,8.2782,8.2782,8.2696,8.2866,8.3475,8.4146,8.4816,8.5484,8.6145,8.6518,8.6885,8.7031,8.7031,8.7031,8.7031,8.7031,8.7031,8.7031,8.7031,6.0781,6.0742,6.0396,6.0089,5.9858,5.9819,6.0589,6.1704,6.2166,6.2012,6.1627,6.155,6.1281,6.0896,6.0858,6.0858,6.0896,6.132,6.1743,6.2474,6.3281,6.4205,6.5166,6.6128,6.6974,6.7513,6.8013,6.8552,6.859,6.9206,7.0052,7.036,7.0629,7.086,7.0898,7.0898,7.0898,7.0898,7.0898,7.0898,7.1129,7.1437,7.1206,7.1168,7.1552,7.2322,7.3293,7.3092,7.398,7.5212,7.5167,7.4981,7.4942,7.4904,7.4748,7.4708,7.4708,7.446,7.4243,7.3906,7.3703,7.3665,7.3825,7.3892,7.384,7.3865,7.4367,7.4863,7.5117,7.5551,7.6589,7.7422,7.7614,7.7805,7.7735,7.7682,7.7738,7.7738,7.7979,7.8202,7.8276,7.8276,7.8313,7.8276,7.8351,7.8443,7.8664,7.9126,7.9675,8.0308,8.1059,8.1476,8.2154,8.2721,8.2782,8.2843,8.2904,8.2904,8.2843,8.3164,8.3861,8.4608,8.5279,8.6023,8.6696,8.6885,8.7031,8.7031,8.7031,8.7031,8.7031,8.7031,8.7031,8.7031,8.7031,6.0742,6.0589,5.9765,5.9072,5.8357,5.8434,5.8858,5.9473,6.0281,6.0704,6.0819,6.0704,6.0704,6.0742,6.0781,6.0781,6.0896,6.1166,6.1627,6.2166,6.2858,6.3897,6.5089,6.5974,6.6628,6.7667,6.8129,6.7821,6.8359,6.8821,6.9206,6.9667,7.036,7.0706,7.086,7.0898,7.0898,7.0898,7.0898,7.0898,7.0975,7.1014,7.0975,7.0937,7.1283,7.1822,7.3053,7.3755,7.4284,7.5242,7.5654,7.5417,7.5344,7.5344,7.5167,7.5056,7.5055,7.4943,7.4783,7.4476,7.4372,7.4404,7.4524,7.4848,7.4947,7.462,7.4977,7.5457,7.5785,7.6301,7.7208,7.7488,7.7678,7.794,7.8016,7.7998,7.7998,7.8053,7.8128,7.8276,7.8276,7.8276,7.8276,7.8276,7.8276,7.8425,7.8555,7.8981,7.9406,7.9897,8.0688,8.1329,8.2129,8.2806,8.2964,8.3061,8.3024,8.3024,8.3076,8.3621,8.4569,8.5244,8.5807,8.6384,8.7022,8.699,8.7031,8.7031,8.7031,8.7031,8.7031,8.7031,8.7031,8.7031,8.7031,6.0396,5.9742,5.8934,5.8434,5.8319,5.828,5.8396,5.8627,5.8781,5.9588,6.0512,6.0204,6.0165,6.055,6.0742,6.0781,6.0858,6.1358,6.182,6.2627,6.3243,6.4012,6.5013,6.5705,6.6205,6.6282,6.6551,6.6974,6.7436,6.7821,6.8475,6.9513,7.0052,7.0283,7.0783,7.0821,7.0898,7.0898,7.0898,7.0898,7.0937,7.1437,7.1706,7.1398,7.1437,7.2245,7.3168,7.3553,7.4514,7.5601,7.584,7.5818,7.5818,7.5818,7.5787,7.5654,7.5451,7.5348,7.5359,7.5357,7.5418,7.5626,7.5856,7.6195,7.6187,7.5664,7.5569,7.6106,7.6548,7.7103,7.7472,7.7567,7.7718,7.8016,7.8276,7.8276,7.8276,7.8276,7.8276,7.8276,7.8276,7.8276,7.8276,7.8276,7.8276,7.8313,7.8351,7.8611,7.8889,7.9426,8.057,8.1385,8.2251,8.2853,8.2987,8.3158,8.3195,8.3455,8.3641,8.4336,8.5212,8.6037,8.6685,8.6922,8.72,8.7169,8.71,8.7031,8.7031,8.7031,8.7031,8.7031,8.7031,8.7031,8.7031,5.9973,5.9358,5.8204,5.7511,5.7165,5.7126,5.7357,5.7627,5.7319,5.8088,5.9588,5.955,5.9627,6.0012,6.0396,6.0781,6.0935,6.1704,6.2589,6.3435,6.4012,6.4666,6.5243,6.5628,6.582,6.5897,6.5897,6.6244,6.659,6.709,6.7859,6.8706,6.9129,6.9898,7.0437,7.0667,7.0898,7.0898,7.0898,7.0898,7.0898,7.1283,7.1475,7.1168,7.1475,7.2322,7.3129,7.3591,7.4514,7.5515,7.5908,7.5947,7.5947,7.5947,7.5976,7.5917,7.5826,7.5775,7.6059,7.6306,7.6541,7.6842,7.716,7.7489,7.7679,7.7212,7.7105,7.7513,7.7293,7.7735,7.7772,7.7866,7.796,7.8183,7.8276,7.8276,7.8276,7.8276,7.8276,7.8276,7.8276,7.8276,7.8276,7.8276,7.8276,7.8313,7.8313,7.8573,7.8833,7.9094,8.0225,8.1244,8.2134,8.2802,8.3084,8.3292,8.3403,8.37,8.4109,8.4977,8.5856,8.6841,8.7563,8.7468,8.7335,8.7169,8.71,8.71,8.7031,8.7031,8.7031,8.7031,8.7031,8.71,8.71,5.9373,5.8973,5.7473,5.6434,5.578,5.5742,5.6165,5.6626,5.6088,5.6549,5.7934,5.8742,5.8704,5.905,5.9973,6.0473,6.1243,6.2358,6.3435,6.4128,6.4666,6.5205,6.5551,6.5859,6.5897,6.5897,6.5897,6.5897,6.6051,6.6513,6.7013,6.7475,6.8475,6.9629,7.0014,7.0437,7.0898,7.0898,7.0898,7.0898,7.0898,7.0898,7.0937,7.0937,7.1168,7.1937,7.2976,7.386,7.4591,7.5284,7.5976,7.5976,7.5976,7.5976,7.5976,7.5985,7.6254,7.6532,7.6963,7.7232,7.7628,7.8022,7.8405,7.8698,7.8849,7.8793,7.8678,7.8548,7.8372,7.8183,7.822,7.8202,7.8294,7.8239,7.8332,7.8332,7.8332,7.8276,7.8276,7.8276,7.8276,7.8276,7.8276,7.8276,7.8276,7.8276,7.8462,7.8759,7.9094,7.9354,8.0059,8.0968,8.1822,8.2474,8.3032,8.3329,8.3477,8.4072,8.4555,8.5558,8.6524,8.7365,8.7794,8.7563,8.7468,8.7335,8.72,8.72,8.7132,8.71,8.71,8.71,8.7169,8.7169,8.7305,5.8704,5.7379,5.6379,5.5818,5.5703,5.5703,5.578,5.5895,5.578,5.5934,5.6472,5.7165,5.7665,5.8396,6.005,6.0935,6.1512,6.2897,6.3897,6.4589,6.5205,6.5628,6.5859,6.5897,6.5897,6.5897,6.5897,6.5897,6.6128,6.6282,6.6898,6.809,6.8244,6.936,7.0591,7.086,7.0898,7.0898,7.0898,7.0898,7.0898,7.0898,7.0898,7.1129,7.1629,7.2476,7.336,7.413,7.4976,7.5668,7.5976,7.5976,7.5976,7.6015,7.6053,7.6322,7.6592,7.713,7.757,7.8346,7.8826,7.9287,7.966,8.0008,7.9972,7.9738,7.9733,7.9814,7.9545,7.9075,7.9015,7.8816,7.8854,7.8528,7.8404,7.8441,7.8386,7.8332,7.8276,7.8276,7.8276,7.8276,7.8276,7.8276,7.8276,7.8276,7.8276,7.8611,7.8871,7.9354,7.9911,8.0802,8.1694,8.2326,8.3032,8.3329,8.3626,8.4257,8.5112,8.6226,8.7118,8.7675,8.7921,8.773,8.7665,8.76,8.7468,8.7335,8.7335,8.7268,8.72,8.72,8.72,8.7268,8.7335]},{"header":{"parameterUnit":"m.s-1","parameterCategory":1,"la1":31.0,"la2":29.5877,"lo1":-88.7671,"lo2":-86.6584,"dx":0.0162,"dy":0.0185,"nx":115,"ny":88,"refTime":"2023-01-10T18:00:00:Z","depth":0,"parameterNumber":3,"parameterNumberName":"V-component_of_WINDS"},"data":[0.0,0.0,0.0,0.0,0.0,0.0,0.0,0.0,0.0,0.0,0.0,0.0,0.0,0.0,0.0,0.0,0.0,0.0,0.0,0.0,0.0,0.0,0.0,0.0,0.0,0.0,0.0,0.0,0.0,0.0,0.0,0.0,0.0,0.0,0.0,0.0,0.0,0.0,0.0,0.0,0.0,0.0,0.0,0.0,0.0,0.0,0.0,0.0,0.0,0.0,0.0,0.0,0.0,0.0,0.0,0.0,0.0,0.0,0.0,0.0,0.0,0.0,0.0,0.0,0.0,0.0,0.0,0.0,0.0,0.0,0.0,0.0,0.0,0.0,0.0,0.0,0.0,0.0,0.0,0.0,0.0,0.0,0.0,0.0,0.0,0.0,0.0,0.0,0.0,0.0,0.0,0.0,0.0,0.0,0.0,0.0,0.0,0.0,0.0,0.0,0.0,0.0,0.0,0.0,0.0,0.0,0.0,0.0,0.0,0.0,0.0,0.0,0.0,0.0,0.0,0.0,0.0,0.0,0.0,0.0,0.0,0.0,0.0,0.0,0.0,0.0,0.0,0.0,0.0,0.0,0.0,0.0,0.0,0.0,0.0,0.0,0.0,0.0,0.0,0.0,0.0,0.0,0.0,0.0,0.0,0.0,0.0,0.0,0.0,0.0,0.0,0.0,0.0,0.0,0.0,0.0,0.0,0.0,0.0,0.0,0.0,0.0,0.0,0.0,0.0,0.0,0.0,0.0,0.0,0.0,0.0,0.0,0.0,0.0,0.0,0.0,0.0,0.0,0.0,0.0,0.0,0.0,0.0,0.0,0.0,0.0,0.0,0.0,0.0,0.0,0.0,0.0,0.0,0.0,0.0,0.0,0.0,0.0,0.0,0.0,0.0,0.0,0.0,0.0,0.0,0.0,0.0,0.0,0.0,0.0,0.0,0.0,0.0,0.0,0.0,0.0,0.0,0.0,0.0,0.0,0.0,0.0,0.0,0.0,0.0,0.0,0.0,0.0,0.0,0.0,0.0,0.0,0.0,0.0,0.0,0.0,0.0,0.0,0.0,0.0,0.0,0.0,0.0,0.0,0.0,0.0,0.0,0.0,0.0,0.0,0.0,0.0,0.0,0.0,0.0,0.0,0.0,0.0,0.0,0.0,0.0,0.0,0.0,0.0,0.0,0.0,0.0,0.0,0.0,0.0,0.0,0.0,0.0,0.0,0.0,0.0,0.0,0.0,0.0,0.0,0.0,0.0,0.0,0.0,0.0,0.0,0.0,0.0,0.0,0.0,0.0,0.0,0.0,0.0,0.0,0.0,0.0,0.0,0.0,0.0,0.0,0.0,0.0,0.0,0.0,0.0,0.0,0.0,0.0,0.0,0.0,0.0,0.0,0.0,0.0,0.0,0.0,0.0,0.0,0.0,0.0,0.0,0.0,0.0,0.0,0.0,0.0,0.0,0.0,0.0,0.0,0.0,0.0,0.0,0.0,0.0,0.0,0.0,0.0,0.0,0.0,0.0,0.0,0.0,0.0,0.0,0.0,0.0,0.0,0.0,0.0,0.0,0.0,0.0,0.0,0.0,0.0,0.0,0.0,0.0,0.0,0.0,0.0,0.0,0.0,0.0,0.0,0.0,0.0,0.0,0.0,0.0,0.0,0.0,0.0,0.0,0.0,0.0,0.0,0.0,0.0,0.0,0.0,0.0,0.0,0.0,0.0,0.0,0.0,0.0,0.0,0.0,0.0,0.0,0.0,0.0,0.0,0.0,0.0,0.0,0.0,0.0,0.0,0.0,0.0,0.0,0.0,0.0,0.0,0.0,0.0,0.0,0.0,0.0,0.0,0.0,0.0,0.0,0.0,0.0,0.0,0.0,0.0,0.0,0.0,0.0,0.0,0.0,0.0,0.0,0.0,0.0,0.0,0.0,0.0,0.0,0.0,0.0,0.0,0.0,0.0,0.0,0.0,0.0,0.0,0.0,0.0,0.0,0.0,0.0,0.0,0.0,0.0,0.0,0.0,0.0,0.0,0.0,0.0,0.0,0.0,0.0,0.0,0.0,0.0,0.0,0.0,0.0,0.0,0.0,0.0,0.0,0.0,0.0,0.0,0.0,0.0,0.0,0.0,0.0,0.0,0.0,0.0,0.0,0.0,0.0,0.0,0.0,0.0,0.0,0.0,0.0,0.0,0.0,0.0,0.0,0.0,0.0,0.0,0.0,0.0,0.0,0.0,0.0,0.0,0.0,0.0,0.0,0.0,0.0,0.0,0.0,0.0,0.0,0.0,0.0,0.0,0.0,0.0,0.0,0.0,0.0,0.0,0.0,0.0,0.0,0.0,0.0,0.0,0.0,0.0,0.0,0.0,0.0,0.0,0.0,0.0,0.0,0.0,0.0,0.0,0.0,0.0,0.0,0.0,0.0,0.0,0.0,0.0,0.0,0.0,0.0,0.0,0.0,0.0,0.0,0.0,0.0,0.0,0.0,0.0,0.0,0.0,0.0,0.0,0.0,0.0,0.0,0.0,0.0,0.0,0.0,0.0,0.0,0.0,0.0,0.0,0.0,0.0,0.0,0.0,0.0,0.0,0.0,0.0,0.0,0.0,0.0,0.0,0.0,0.0,0.0,0.0,0.0,0.0,0.0,0.0,0.0,0.0,0.0,0.0,0.0,0.0,0.0,0.0,0.0,0.0,0.0,0.0,0.0,0.0,0.0,0.0,0.0,0.0,0.0,0.0,0.0,0.0,0.0,0.0,0.0,0.0,0.0,0.0,0.0,0.0,0.0,0.0,0.0,0.0,0.0,0.0,0.0,0.0,0.0,0.0,0.0,0.0,0.0,0.0,0.0,0.0,0.0,0.0,0.0,0.0,0.0,0.0,0.0,0.0,0.0,0.0,0.0,0.0,0.0,0.0,0.0,0.0,0.0,0.0,0.0,0.0,0.0,0.0,0.0,0.0,0.0,0.0,0.0,0.0,0.0,0.0,0.0,0.0,0.0,0.0,0.0,0.0,0.0,0.0,0.0,0.0,0.0,0.0,0.0,0.0,0.0,0.0,0.0,0.0,0.0,0.0,0.0,0.0,0.0,0.0,0.0,0.0,0.0,0.0,0.0,0.0,0.0,0.0,0.0,0.0,0.0,0.0,0.0,0.0,0.0,0.0,0.0,0.0,0.0,0.0,0.0,0.0,0.0,0.0,0.0,0.0,0.0,0.0,0.0,0.0,0.0,0.0,0.0,0.0,0.0,0.0,0.0,0.0,0.0,0.0,0.0,0.0,0.0,0.0,0.0,0.0,0.0,0.0,0.0,0.0,0.0,0.0,0.0,0.0,0.0,0.0,0.0,0.0,0.0,0.0,0.0,0.0,0.0,0.0,0.0,0.0,0.0,0.0,0.0,0.0,0.0,0.0,0.0,0.0,0.0,0.0,0.0,0.0,0.0,0.0,0.0,0.0,0.0,0.0,0.0,0.0,0.0,0.0,0.0,0.0,0.0,0.0,0.0,0.0,0.0,0.0,0.0,0.0,0.0,0.0,0.0,0.0,0.0,0.0,0.0,0.0,0.0,0.0,0.0,0.0,0.0,0.0,0.0,0.0,0.0,0.0,0.0,0.0,0.0,0.0,0.0,0.0,0.0,0.0,0.0,0.0,0.0,0.0,0.0,0.0,0.0,0.0,0.0,0.0,0.0,0.0,0.0,0.0,0.0,0.0,0.0,0.0,0.0,0.0,0.0,0.0,0.0,0.0,0.0,0.0,0.0,0.0,0.0,0.0,0.0,0.0,0.0,0.0,0.0,0.0,0.0,0.0,0.0,0.0,0.0,0.0,0.0,0.0,0.0,0.0,0.0,0.0,0.0,0.0,0.0,0.0,0.0,0.0,0.0,0.0,0.0,0.0,0.0,0.0,0.0,0.0,0.0,0.0,0.0,0.0,0.0,0.0,0.0,0.0,0.0,0.0,0.0,0.0,0.0,0.0,0.0,0.0,0.0,0.0,0.0,0.0,0.0,0.0,0.0,0.0,0.0,0.0,0.0,0.0,0.0,0.0,0.0,0.0,0.0,0.0,0.0,0.0,0.0,0.0,0.0,0.0,0.0,0.0,0.0,0.0,0.0,0.0,0.0,0.0,0.0,0.0,0.0,0.0,0.0,0.0,0.0,0.0,0.0,0.0,0.0,0.0,0.0,0.0,0.0,0.0,0.0,0.0,0.0,0.0,0.0,0.0,0.0,0.0,0.0,0.0,0.0,0.0,0.0,0.0,0.0,-0.9176,0.0,0.0,0.0,-0.8818,0.0,0.0,0.0,0.0,0.0,0.0,0.0,0.0,0.0,0.0,0.0,0.0,0.0,0.0,0.0,0.0,0.0,0.0,0.0,0.0,0.0,0.0,0.0,0.0,0.0,0.0,0.0,0.0,0.0,0.0,0.0,0.0,0.0,0.0,0.0,0.0,0.0,0.0,0.0,0.0,0.0,0.0,0.0,0.0,0.0,0.0,0.0,0.0,0.0,0.0,0.0,0.0,0.0,0.0,0.0,0.0,0.0,0.0,0.0,0.0,0.0,0.0,0.0,0.0,0.0,0.0,0.0,0.0,0.0,0.0,0.0,0.0,0.0,0.0,0.0,0.0,0.0,0.0,0.0,0.0,0.0,0.0,0.0,0.0,0.0,0.0,0.0,0.0,0.0,0.0,0.0,0.0,0.0,0.0,0.0,0.0,0.0,0.0,0.0,0.0,0.0,0.0,0.0,0.0,0.0,0.0,0.0,0.0,0.0,0.0,-0.9486,-0.9486,-0.9486,-0.9272,-0.8831,0.0,0.0,0.0,0.0,0.0,0.0,0.0,0.0,0.0,0.0,0.0,0.0,0.0,0.0,0.0,0.0,0.0,0.0,0.0,0.0,0.0,0.0,0.0,0.0,0.0,0.0,0.0,0.0,0.0,0.0,0.0,0.0,0.0,0.0,0.0,0.0,0.0,0.0,0.0,0.0,0.0,0.0,0.0,0.0,0.0,0.0,0.0,0.0,0.0,0.0,0.0,0.0,0.0,0.0,0.0,0.0,0.0,0.0,0.0,0.0,0.0,0.0,0.0,0.0,0.0,0.0,0.0,0.0,0.0,0.0,0.0,0.0,0.0,0.0,0.0,0.0,0.0,0.0,0.0,0.0,0.0,0.0,0.0,0.0,0.0,0.0,0.0,0.0,0.0,0.0,0.0,0.0,0.0,0.0,0.0,0.0,0.0,0.0,0.0,0.0,0.0,0.0,0.0,0.0,0.0,0.0,0.0,0.0,0.0,0.0,0.0,0.0,-0.9646,-0.9406,-0.8844,0.0,0.0,0.0,0.0,0.0,0.0,0.0,0.0,0.0,0.0,0.0,0.0,0.0,0.0,0.0,0.0,0.0,0.0,0.0,0.0,0.0,0.0,0.0,0.0,0.0,0.0,0.0,0.0,0.0,0.0,0.0,0.0,0.0,0.0,0.0,0.0,0.0,0.0,0.0,0.0,0.0,0.0,0.0,0.0,0.0,0.0,0.0,0.0,0.0,0.0,0.0,0.0,0.0,0.0,0.0,0.0,0.0,0.0,0.0,0.0,0.0,0.0,0.0,0.0,0.0,0.0,0.0,0.0,0.0,0.0,0.0,0.0,0.0,0.0,0.0,0.0,0.0,0.0,0.0,0.0,0.0,0.0,0.0,0.0,0.0,0.0,0.0,0.0,0.0,0.0,0.0,0.0,0.0,0.0,0.0,0.0,0.0,0.0,0.0,0.0,0.0,0.0,0.0,0.0,0.0,0.0,0.0,0.0,0.0,0.0,-0.9552,-0.9243,-0.9539,0.0,-0.8858,0.0,0.0,0.0,0.0,0.0,0.0,0.0,0.0,0.0,0.0,0.0,0.0,0.0,0.0,0.0,0.0,0.0,0.0,0.0,0.0,0.0,0.0,0.0,0.0,0.0,0.0,0.0,0.0,0.0,0.0,0.0,0.0,0.0,0.0,0.0,0.0,0.0,0.0,0.0,0.0,0.0,0.0,0.0,0.0,0.0,0.0,0.0,0.0,0.0,0.0,0.0,0.0,0.0,0.0,0.0,0.0,0.0,0.0,0.0,0.0,0.0,0.0,0.0,0.0,0.0,0.0,0.0,0.0,0.0,0.0,0.0,0.0,0.0,0.0,0.0,0.0,0.0,0.0,0.0,0.0,0.0,0.0,0.0,0.0,0.0,0.0,0.0,0.0,0.0,0.0,0.0,0.0,0.0,0.0,0.0,0.0,0.0,0.0,0.0,0.0,0.0,0.0,0.0,0.0,0.0,0.0,0.0,0.0,0.0,0.0,-0.9539,-0.9245,-0.9137,-0.8991,0.0,0.0,0.0,0.0,0.0,0.0,0.0,0.0,0.0,0.0,0.0,0.0,0.0,0.0,0.0,0.0,0.0,0.0,0.0,0.0,0.0,0.0,0.0,0.0,0.0,0.0,0.0,0.0,0.0,0.0,0.0,0.0,0.0,0.0,0.0,0.0,0.0,0.0,0.0,0.0,0.0,0.0,0.0,0.0,0.0,0.0,0.0,0.0,0.0,0.0,0.0,0.0,0.0,0.0,0.0,0.0,0.0,0.0,0.0,0.0,0.0,0.0,0.0,0.0,0.0,0.0,0.0,0.0,0.0,0.0,0.0,0.0,0.0,0.0,0.0,0.0,0.0,0.0,0.0,0.0,0.0,0.0,0.0,0.0,0.0,0.0,0.0,0.0,0.0,0.0,0.0,0.0,0.0,0.0,0.0,0.0,0.0,0.0,0.0,0.0,0.0,0.0,0.0,0.0,0.0,0.0,0.0,0.0,0.0,0.0,-0.9429,-0.9522,-0.9365,-0.8883,-0.8685,-0.8804,0.0,0.0,0.0,0.0,0.0,0.0,0.0,0.0,0.0,0.0,0.0,0.0,0.0,0.0,0.0,0.0,0.0,0.0,0.0,0.0,0.0,0.0,0.0,0.0,0.0,0.0,0.0,0.0,0.0,0.0,0.0,0.0,0.0,0.0,0.0,0.0,0.0,0.0,0.0,0.0,0.0,0.0,0.0,0.0,0.0,0.0,0.0,0.0,0.0,0.0,0.0,0.0,0.0,0.0,0.0,0.0,0.0,0.0,0.0,0.0,0.0,0.0,0.0,0.0,0.0,0.0,0.0,0.0,0.0,0.0,0.0,0.0,0.0,0.0,0.0,0.0,0.0,0.0,0.0,0.0,0.0,0.0,0.0,0.0,0.0,0.0,0.0,0.0,0.0,0.0,0.0,0.0,0.0,0.0,0.0,0.0,0.0,0.0,0.0,0.0,0.0,0.0,0.0,0.0,0.0,0.0,0.0,0.0,-0.8672,-0.9223,-0.957,-0.9646,-0.9112,-0.8804,0.0,0.0,0.0,0.0,0.0,0.0,0.0,0.0,0.0,0.0,0.0,0.0,0.0,0.0,0.0,0.0,0.0,0.0,0.0,0.0,0.0,0.0,0.0,0.0,0.0,0.0,0.0,0.0,0.0,0.0,0.0,0.0,0.0,0.0,0.0,0.0,0.0,0.0,0.0,0.0,0.0,0.0,0.0,0.0,0.0,0.0,0.0,0.0,0.0,0.0,0.0,0.0,0.0,0.0,0.0,0.0,0.0,0.0,0.0,0.0,0.0,0.0,0.0,0.0,0.0,0.0,0.0,0.0,0.0,0.0,0.0,0.0,0.0,0.0,0.0,0.0,0.0,0.0,0.0,0.0,0.0,0.0,0.0,0.0,0.0,0.0,0.0,0.0,0.0,0.0,0.0,0.0,0.0,0.0,0.0,0.0,0.0,0.0,0.0,0.0,0.0,0.0,0.0,0.0,0.0,0.0,0.0,0.0,0.0,-0.8867,-0.9359,-0.9721,-0.994,-0.9279,-0.8976,0.0,0.0,0.0,0.0,0.0,0.0,0.0,0.0,0.0,0.0,0.0,0.0,0.0,0.0,0.0,0.0,0.0,0.0,0.0,0.0,0.0,0.0,0.0,0.0,0.0,0.0,0.0,0.0,0.0,0.0,0.0,0.0,0.0,0.0,0.0,0.0,0.0,0.0,0.0,0.0,0.0,0.0,0.0,0.0,0.0,0.0,0.0,0.0,0.0,0.0,0.0,0.0,0.0,0.0,0.0,0.0,0.0,0.0,0.0,0.0,0.0,0.0,0.0,0.0,0.0,0.0,0.0,0.0,0.0,0.0,0.0,0.0,0.0,0.0,0.0,0.0,0.0,0.0,0.0,0.0,0.0,0.0,0.0,0.0,0.0,0.0,0.0,0.0,0.0,0.0,0.0,0.0,0.0,0.0,0.0,0.0,0.0,0.0,0.0,0.0,0.0,0.0,0.0,0.0,0.0,0.0,0.0,0.0,0.0,-0.9154,-0.9464,-0.9761,-1.0087,-0.9381,-0.9079,0.0,0.0,0.0,0.0,0.0,0.0,0.0,0.0,0.0,0.0,0.0,0.0,0.0,0.0,0.0,0.0,0.0,0.0,0.0,0.0,0.0,0.0,0.0,0.0,0.0,0.0,0.0,0.0,0.0,0.0,0.0,0.0,0.0,0.0,0.0,0.0,0.0,0.0,0.0,0.0,0.0,0.0,0.0,0.0,0.0,0.0,0.0,0.0,0.0,0.0,0.0,0.0,0.0,0.0,0.0,0.0,0.0,0.0,0.0,0.0,0.0,0.0,0.0,0.0,0.0,0.0,0.0,0.0,0.0,0.0,0.0,0.0,0.0,0.0,0.0,0.0,0.0,0.0,0.0,0.0,0.0,0.0,0.0,0.0,0.0,0.0,0.0,0.0,0.0,0.0,0.0,0.0,0.0,0.0,0.0,0.0,0.0,0.0,0.0,0.0,0.0,0.0,0.0,0.0,0.0,0.0,0.0,0.0,-0.877,-0.9427,-0.9467,-0.9682,-1.0026,-0.9407,-0.9092,0.0,0.0,0.0,0.0,0.0,0.0,0.0,0.0,0.0,0.0,0.0,0.0,0.0,0.0,0.0,0.0,0.0,0.0,0.0,0.0,0.0,0.0,0.0,0.0,0.0,0.0,0.0,0.0,0.0,0.0,0.0,0.0,0.0,0.0,0.0,0.0,0.0,0.0,0.0,0.0,0.0,0.0,0.0,0.0,0.0,0.0,0.0,0.0,0.0,0.0,0.0,0.0,0.0,0.0,0.0,0.0,0.0,0.0,0.0,0.0,0.0,0.0,0.0,0.0,0.0,0.0,0.0,0.0,0.0,0.0,0.0,0.0,0.0,0.0,0.0,0.0,0.0,0.0,0.0,0.0,0.0,0.0,0.0,0.0,0.0,0.0,0.0,0.0,0.0,0.0,0.0,0.0,0.0,0.0,0.0,0.0,0.0,0.0,0.0,0.0,0.0,0.0,0.0,0.0,0.0,0.0,0.0,0.0,0.0,-0.974,-0.9813,-0.9955,-1.022,-0.9819,-0.9519,0.0,0.0,0.0,0.0,0.0,0.0,0.0,0.0,0.0,0.0,0.0,0.0,0.0,0.0,0.0,0.0,0.0,0.0,0.0,0.0,0.0,0.0,0.0,0.0,0.0,0.0,0.0,0.0,0.0,0.0,0.0,0.0,0.0,0.0,0.0,0.0,0.0,0.0,0.0,0.0,0.0,0.0,0.0,0.0,0.0,0.0,0.0,0.0,0.0,0.0,0.0,0.0,0.0,0.0,0.0,0.0,0.0,0.0,0.0,0.0,0.0,0.0,0.0,0.0,0.0,0.0,0.0,0.0,0.0,0.0,0.0,0.0,0.0,0.0,0.0,0.0,0.0,0.0,0.0,0.0,0.0,0.0,0.0,0.0,0.0,0.0,0.0,0.0,0.0,0.0,0.0,0.0,0.0,0.0,0.0,0.0,0.0,0.0,0.0,0.0,0.0,0.0,0.0,0.0,0.0,0.0,0.0,0.0,0.0,-1.0353,-1.0377,-1.04,-1.0483,-1.0316,-0.9994,-0.9577,0.0,0.0,0.0,0.0,0.0,0.0,0.0,0.0,0.0,0.0,0.0,0.0,0.0,0.0,0.0,0.0,0.0,0.0,0.0,0.0,0.0,0.0,0.0,0.0,0.0,0.0,0.0,0.0,0.0,0.0,0.0,0.0,0.0,0.0,0.0,0.0,0.0,0.0,0.0,0.0,0.0,0.0,0.0,0.0,0.0,0.0,0.0,0.0,0.0,0.0,0.0,0.0,0.0,0.0,0.0,0.0,0.0,0.0,0.0,0.0,0.0,0.0,0.0,0.0,0.0,0.0,0.0,0.0,0.0,0.0,0.0,0.0,0.0,0.0,0.0,0.0,0.0,0.0,0.0,0.0,0.0,0.0,0.0,0.0,0.0,0.0,0.0,0.0,0.0,0.0,0.0,0.0,0.0,0.0,0.0,0.0,0.0,0.0,0.0,0.0,0.0,0.0,0.0,0.0,0.0,0.0,0.0,0.0,-1.127,-1.1158,-1.1028,-1.0855,-1.0805,-1.0492,0.0,0.0,0.0,0.0,0.0,0.0,0.0,0.0,0.0,0.0,0.0,0.0,0.0,0.0,0.0,0.0,0.0,0.0,0.0,0.0,0.0,0.0,0.0,0.0,0.0,0.0,0.0,0.0,0.0,0.0,0.0,0.0,0.0,0.0,0.0,0.0,0.0,0.0,0.0,0.0,0.0,0.0,0.0,0.0,0.0,0.0,0.0,0.0,0.0,0.0,0.0,0.0,0.0,0.0,0.0,0.0,0.0,0.0,0.0,0.0,0.0,0.0,0.0,0.0,0.0,0.0,0.0,0.0,0.0,0.0,0.0,0.0,0.0,0.0,0.0,0.0,0.0,0.0,0.0,0.0,0.0,0.0,0.0,0.0,0.0,0.0,0.0,0.0,0.0,0.0,0.0,0.0,0.0,0.0,0.0,0.0,0.0,0.0,0.0,0.0,0.0,0.0,0.0,0.0,0.0,0.0,0.0,0.0,0.0,-1.1728,-1.2261,-1.2131,-1.1509,-1.0962,-1.0479,0.0,0.0,0.0,0.0,0.0,0.0,0.0,0.0,0.0,0.0,0.0,0.0,0.0,0.0,0.0,0.0,0.0,0.0,0.0,0.0,0.0,0.0,0.0,0.0,0.0,0.0,0.0,0.0,0.0,0.0,0.0,0.0,0.0,0.0,0.0,0.0,0.0,0.0,0.0,0.0,0.0,0.0,0.0,0.0,0.0,0.0,0.0,0.0,0.0,0.0,0.0,0.0,0.0,0.0,0.0,0.0,0.0,0.0,0.0,0.0,0.0,0.0,0.0,0.0,0.0,0.0,0.0,0.0,0.0,0.0,0.0,0.0,0.0,0.0,0.0,0.0,0.0,0.0,0.0,0.0,0.0,0.0,0.0,0.0,0.0,0.0,0.0,0.0,0.0,0.0,0.0,0.0,0.0,0.0,0.0,0.0,0.0,0.0,0.0,0.0,0.0,0.0,0.0,0.0,0.0,0.0,0.0,0.0,-1.1436,-1.2054,-1.2926,-1.3086,-1.2603,-1.1677,-1.0953,0.0,0.0,0.0,0.0,0.0,0.0,0.0,0.0,0.0,0.0,0.0,0.0,0.0,0.0,0.0,0.0,0.0,0.0,0.0,0.0,0.0,0.0,0.0,0.0,0.0,0.0,0.0,0.0,0.0,0.0,0.0,0.0,0.0,0.0,0.0,0.0,0.0,0.0,0.0,0.0,0.0,0.0,0.0,0.0,0.0,0.0,0.0,0.0,0.0,0.0,0.0,0.0,0.0,0.0,0.0,0.0,0.0,0.0,0.0,0.0,0.0,0.0,0.0,0.0,0.0,0.0,0.0,0.0,0.0,0.0,0.0,0.0,0.0,0.0,0.0,0.0,0.0,0.0,0.0,0.0,0.0,0.0,0.0,0.0,0.0,0.0,0.0,0.0,0.0,0.0,0.0,0.0,0.0,0.0,0.0,0.0,0.0,0.0,0.0,0.0,0.0,0.0,0.0,0.0,0.0,0.0,0.0,0.0,-1.208,-1.2247,-1.329,-1.3837,-1.3773,-1.273,-1.1776,0.0,0.0,0.0,0.0,0.0,0.0,0.0,0.0,0.0,0.0,0.0,0.0,0.0,0.0,0.0,0.0,0.0,0.0,0.0,0.0,0.0,0.0,0.0,0.0,0.0,0.0,0.0,0.0,0.0,0.0,0.0,0.0,0.0,0.0,0.0,0.0,0.0,0.0,0.0,0.0,0.0,0.0,0.0,0.0,0.0,0.0,0.0,0.0,0.0,0.0,0.0,0.0,0.0,0.0,0.0,0.0,0.0,0.0,0.0,0.0,0.0,0.0,0.0,0.0,0.0,0.0,0.0,0.0,0.0,0.0,0.0,0.0,0.0,0.0,0.0,0.0,0.0,0.0,0.0,0.0,0.0,0.0,0.0,0.0,0.0,0.0,0.0,0.0,0.0,0.0,0.0,0.0,0.0,0.0,0.0,0.0,0.0,0.0,0.0,0.0,0.0,0.0,0.0,0.0,0.0,0.0,0.0,0.0,-1.2388,-1.305,-1.3783,-1.404,-1.3811,-1.2743,-1.1967,0.0,0.0,0.0,0.0,0.0,0.0,0.0,0.0,0.0,0.0,0.0,0.0,0.0,0.0,0.0,0.0,0.0,0.0,0.0,0.0,0.0,0.0,0.0,0.0,0.0,0.0,0.0,0.0,0.0,0.0,0.0,0.0,0.0,0.0,0.0,0.0,0.0,0.0,0.0,0.0,0.0,0.0,0.0,0.0,0.0,0.0,0.0,0.0,-1.2258,0.0,0.0,0.0,0.0,0.0,0.0,0.0,0.0,0.0,0.0,0.0,0.0,0.0,0.0,0.0,0.0,0.0,0.0,0.0,0.0,0.0,0.0,0.0,0.0,0.0,0.0,0.0,0.0,0.0,0.0,0.0,0.0,0.0,0.0,0.0,0.0,0.0,0.0,0.0,0.0,0.0,0.0,0.0,0.0,0.0,0.0,0.0,0.0,0.0,0.0,0.0,0.0,0.0,0.0,0.0,0.0,0.0,0.0,0.0,-1.2568,-1.3175,-1.4015,-1.4216,-1.3824,-1.3231,-1.2473,0.0,0.0,0.0,0.0,0.0,0.0,0.0,0.0,0.0,0.0,0.0,0.0,0.0,0.0,0.0,0.0,0.0,0.0,0.0,0.0,0.0,0.0,0.0,0.0,0.0,0.0,0.0,0.0,0.0,0.0,0.0,0.0,0.0,0.0,0.0,0.0,0.0,0.0,0.0,0.0,0.0,0.0,0.0,0.0,0.0,0.0,0.0,0.0,0.0,0.0,0.0,0.0,0.0,0.0,0.0,0.0,0.0,0.0,0.0,0.0,0.0,0.0,0.0,0.0,0.0,0.0,0.0,0.0,0.0,0.0,0.0,0.0,0.0,0.0,0.0,0.0,0.0,0.0,0.0,0.0,0.0,0.0,0.0,0.0,0.0,0.0,0.0,0.0,0.0,0.0,0.0,0.0,0.0,0.0,0.0,0.0,0.0,0.0,0.0,0.0,0.0,0.0,0.0,0.0,0.0,0.0,0.0,-1.1681,-1.2667,-1.3151,-1.406,-1.4334,-1.4006,-1.3824,-1.3092,-1.1602,0.0,0.0,0.0,0.0,0.0,0.0,0.0,0.0,0.0,0.0,0.0,0.0,0.0,0.0,0.0,0.0,0.0,0.0,0.0,0.0,0.0,0.0,0.0,0.0,0.0,0.0,0.0,0.0,0.0,0.0,0.0,0.0,0.0,0.0,0.0,0.0,0.0,0.0,-1.0806,-1.0752,0.0,0.0,0.0,0.0,0.0,0.0,0.0,0.0,-1.211,0.0,0.0,0.0,0.0,0.0,0.0,0.0,0.0,0.0,0.0,0.0,0.0,0.0,0.0,0.0,0.0,0.0,0.0,0.0,0.0,0.0,0.0,0.0,0.0,0.0,0.0,0.0,0.0,0.0,0.0,0.0,0.0,0.0,0.0,0.0,0.0,0.0,0.0,0.0,0.0,0.0,0.0,0.0,0.0,0.0,0.0,0.0,0.0,0.0,0.0,0.0,0.0,0.0,0.0,0.0,0.0,-1.1274,-1.2005,-1.2862,-1.3952,-1.4239,-1.4303,-1.4242,-1.3742,-1.3012,-1.1812,0.0,0.0,0.0,0.0,0.0,0.0,0.0,0.0,0.0,0.0,0.0,0.0,0.0,0.0,0.0,0.0,0.0,0.0,0.0,0.0,0.0,0.0,0.0,0.0,0.0,0.0,0.0,0.0,0.0,0.0,0.0,0.0,0.0,0.0,0.0,0.0,0.0,0.0,0.0,-1.1236,-1.1263,0.0,0.0,0.0,0.0,0.0,0.0,0.0,0.0,-1.2906,0.0,0.0,0.0,0.0,0.0,0.0,0.0,0.0,0.0,0.0,0.0,0.0,0.0,0.0,0.0,0.0,0.0,0.0,0.0,0.0,0.0,0.0,0.0,0.0,0.0,0.0,0.0,0.0,0.0,0.0,0.0,0.0,0.0,0.0,0.0,0.0,0.0,0.0,0.0,0.0,0.0,0.0,0.0,0.0,0.0,0.0,0.0,0.0,0.0,0.0,0.0,0.0,0.0,0.0,0.0,-1.1582,-1.2481,-1.3399,-1.4251,-1.4327,-1.4304,-1.428,-1.3622,-1.2868,0.0,0.0,0.0,0.0,0.0,0.0,0.0,0.0,0.0,0.0,0.0,0.0,0.0,0.0,0.0,0.0,0.0,0.0,0.0,0.0,0.0,0.0,0.0,0.0,0.0,0.0,0.0,0.0,0.0,0.0,0.0,0.0,0.0,0.0,0.0,0.0,0.0,0.0,0.0,0.0,-1.1623,-1.1824,-1.2852,0.0,0.0,0.0,0.0,0.0,0.0,-1.3505,-1.3173,0.0,0.0,0.0,0.0,0.0,0.0,0.0,0.0,0.0,0.0,0.0,0.0,0.0,0.0,0.0,0.0,0.0,0.0,0.0,0.0,0.0,0.0,0.0,0.0,0.0,0.0,0.0,0.0,0.0,0.0,0.0,0.0,0.0,0.0,0.0,0.0,0.0,0.0,0.0,0.0,0.0,0.0,0.0,0.0,0.0,0.0,0.0,0.0,0.0,0.0,0.0,0.0,0.0,0.0,0.0,-1.1665,-1.2804,-1.3713,-1.434,-1.4377,-1.4413,-1.4437,-1.3495,-1.2614,0.0,0.0,0.0,0.0,0.0,0.0,0.0,0.0,0.0,0.0,0.0,0.0,0.0,0.0,0.0,0.0,0.0,0.0,0.0,0.0,0.0,0.0,0.0,0.0,0.0,0.0,0.0,0.0,0.0,0.0,0.0,0.0,0.0,0.0,0.0,0.0,0.0,0.0,0.0,0.0,0.0,-1.2452,-1.3574,-1.3863,0.0,0.0,0.0,0.0,-1.3722,-1.3694,0.0,0.0,0.0,0.0,0.0,0.0,0.0,0.0,0.0,0.0,0.0,0.0,0.0,0.0,0.0,0.0,0.0,0.0,0.0,0.0,0.0,0.0,0.0,0.0,0.0,0.0,0.0,0.0,0.0,0.0,0.0,0.0,0.0,0.0,0.0,0.0,0.0,0.0,0.0,0.0,0.0,0.0,0.0,0.0,0.0,0.0,0.0,0.0,0.0,0.0,0.0,0.0,0.0,0.0,0.0,0.0,-1.1928,-1.2903,-1.3811,-1.4606,-1.4666,-1.4787,-1.498,-1.3326,-1.2322,0.0,0.0,0.0,0.0,0.0,0.0,0.0,0.0,0.0,0.0,0.0,0.0,0.0,0.0,0.0,0.0,0.0,0.0,0.0,0.0,0.0,0.0,0.0,0.0,0.0,0.0,0.0,0.0,0.0,0.0,0.0,0.0,0.0,0.0,0.0,0.0,0.0,0.0,0.0,0.0,0.0,-1.305,-1.3908,-1.4058,-1.3937,0.0,0.0,-1.5021,-1.511,-1.5364,0.0,0.0,0.0,0.0,0.0,0.0,0.0,0.0,0.0,0.0,0.0,0.0,0.0,0.0,0.0,0.0,0.0,0.0,0.0,0.0,0.0,0.0,0.0,0.0,0.0,0.0,0.0,0.0,0.0,0.0,0.0,0.0,0.0,0.0,0.0,0.0,0.0,0.0,0.0,0.0,0.0,0.0,0.0,0.0,0.0,0.0,0.0,0.0,0.0,0.0,0.0,0.0,0.0,0.0,0.0,-1.15,-1.2151,-1.3273,-1.4254,-1.4896,-1.4799,-1.4775,-1.4871,-1.3218,-1.2201,0.0,0.0,0.0,0.0,0.0,0.0,0.0,0.0,0.0,0.0,0.0,0.0,0.0,0.0,0.0,0.0,0.0,0.0,0.0,0.0,0.0,0.0,0.0,0.0,0.0,0.0,0.0,0.0,0.0,0.0,0.0,0.0,0.0,0.0,0.0,0.0,0.0,0.0,0.0,0.0,0.0,0.0,-1.4015,-1.4229,0.0,0.0,0.0,-1.5137,-1.4937,0.0,0.0,0.0,0.0,0.0,0.0,0.0,0.0,0.0,0.0,0.0,0.0,0.0,0.0,0.0,0.0,0.0,0.0,0.0,0.0,0.0,0.0,0.0,0.0,0.0,0.0,0.0,0.0,0.0,0.0,0.0,0.0,0.0,0.0,0.0,0.0,0.0,0.0,0.0,0.0,0.0,0.0,0.0,0.0,0.0,0.0,0.0,0.0,0.0,0.0,0.0,0.0,0.0,0.0,0.0,0.0,0.0,-1.2178,-1.3647,-1.463,-1.5089,-1.498,-1.4908,-1.4883,-1.3483,0.0,0.0,0.0,0.0,0.0,0.0,0.0,0.0,0.0,0.0,0.0,0.0,0.0,0.0,0.0,0.0,0.0,0.0,0.0,0.0,0.0,0.0,0.0,0.0,0.0,0.0,0.0,-0.9726,0.0,0.0,0.0,0.0,0.0,0.0,0.0,0.0,0.0,0.0,0.0,0.0,0.0,0.0,-1.3975,-1.4269,-1.4683,-1.5084,0.0,0.0,-1.5631,-1.5337,-1.6339,-1.6553,0.0,0.0,0.0,0.0,0.0,0.0,0.0,0.0,0.0,0.0,0.0,0.0,0.0,0.0,0.0,0.0,0.0,0.0,0.0,0.0,0.0,0.0,0.0,0.0,0.0,0.0,0.0,0.0,0.0,0.0,0.0,0.0,0.0,0.0,0.0,0.0,0.0,0.0,0.0,0.0,0.0,0.0,0.0,0.0,0.0,0.0,0.0,0.0,0.0,0.0,0.0,0.0,0.0,0.0,0.0,-1.2203,-1.3841,-1.4823,-1.5101,-1.533,-1.5451,-1.5427,-1.4377,-1.3302,0.0,0.0,0.0,0.0,0.0,0.0,0.0,0.0,0.0,0.0,0.0,0.0,0.0,0.0,0.0,0.0,0.0,0.0,0.0,0.0,0.0,0.0,0.0,0.0,0.0,0.0,0.0,0.0,0.0,0.0,0.0,0.0,0.0,0.0,0.0,0.0,0.0,0.0,0.0,0.0,0.0,-1.4576,-1.487,-1.5618,-1.6353,0.0,0.0,-1.6794,-1.7288,-1.7916,-1.7769,-1.5992,0.0,0.0,0.0,0.0,0.0,0.0,0.0,0.0,0.0,0.0,0.0,0.0,0.0,0.0,0.0,0.0,0.0,0.0,0.0,0.0,0.0,0.0,0.0,0.0,0.0,0.0,0.0,0.0,0.0,0.0,0.0,0.0,0.0,0.0,0.0,0.0,0.0,0.0,0.0,0.0,0.0,0.0,0.0,0.0,0.0,0.0,0.0,0.0,0.0,0.0,0.0,0.0,0.0,-1.1784,-1.2018,-1.3761,-1.4847,-1.5101,-1.5366,-1.5415,-1.5258,-1.4533,-1.3568,0.0,0.0,0.0,0.0,0.0,0.0,0.0,0.0,0.0,0.0,0.0,0.0,0.0,0.0,0.0,0.0,0.0,0.0,0.0,0.0,0.0,0.0,0.0,0.0,0.0,0.0,0.0,0.0,-1.2692,-1.2679,-1.1944,0.0,0.0,0.0,0.0,0.0,0.0,0.0,0.0,0.0,0.0,-1.5097,-1.5912,-1.6633,0.0,0.0,-1.7756,-1.7756,-1.7609,-1.809,-1.7822,-1.5872,-1.5565,0.0,0.0,0.0,0.0,0.0,0.0,0.0,0.0,0.0,0.0,0.0,0.0,0.0,0.0,0.0,0.0,0.0,0.0,0.0,0.0,0.0,0.0,0.0,0.0,0.0,0.0,0.0,0.0,0.0,0.0,0.0,0.0,0.0,0.0,0.0,0.0,0.0,0.0,0.0,0.0,0.0,0.0,0.0,0.0,0.0,0.0,0.0,0.0,0.0,0.0,0.0,0.0,-1.1812,-1.1926,-1.3918,-1.504,-1.5221,-1.5475,-1.5559,-1.5451,-1.4944,-1.4111,0.0,0.0,0.0,0.0,0.0,0.0,0.0,0.0,0.0,0.0,0.0,0.0,0.0,0.0,0.0,0.0,0.0,0.0,0.0,0.0,0.0,0.0,0.0,0.0,0.0,0.0,0.0,0.0,-1.2946,-1.2786,-1.1957,0.0,0.0,0.0,0.0,0.0,0.0,0.0,0.0,0.0,0.0,-1.5818,-1.6714,-1.7261,-1.7716,-1.8116,-1.8196,-1.813,-1.7889,-1.8223,-1.7969,-1.6446,0.0,0.0,0.0,0.0,0.0,0.0,0.0,0.0,0.0,0.0,0.0,0.0,0.0,0.0,0.0,0.0,0.0,0.0,0.0,0.0,0.0,0.0,0.0,0.0,0.0,0.0,0.0,0.0,0.0,0.0,-0.6805,0.0,0.0,0.0,0.0,0.0,0.0,0.0,0.0,0.0,0.0,0.0,0.0,0.0,0.0,0.0,0.0,0.0,0.0,0.0,0.0,0.0,0.0,-1.1994,-1.1962,-1.4268,-1.5475,-1.5499,-1.5753,-1.5994,-1.6223,-1.5741,-1.5089,-1.4256,0.0,0.0,0.0,0.0,0.0,0.0,0.0,0.0,0.0,0.0,0.0,0.0,0.0,0.0,0.0,0.0,0.0,0.0,0.0,0.0,0.0,0.0,0.0,0.0,0.0,0.0,-1.086,-1.1478,-1.1989,0.0,0.0,0.0,0.0,0.0,0.0,0.0,0.0,0.0,0.0,-1.5391,-1.678,-1.7088,-1.7395,-1.7836,-1.841,-1.8009,-1.7822,-1.8384,-1.8464,-1.837,0.0,0.0,0.0,0.0,0.0,0.0,0.0,0.0,0.0,0.0,0.0,0.0,0.0,0.0,0.0,0.0,0.0,0.0,0.0,0.0,0.0,0.0,0.0,0.0,0.0,0.0,0.0,-0.7364,-0.7206,0.0,0.0,0.0,0.0,0.0,0.0,0.0,0.0,0.0,0.0,0.0,-1.0953,-1.0885,0.0,0.0,0.0,0.0,0.0,0.0,0.0,0.0,0.0,0.0,0.0,0.0,-1.2264,-1.253,-1.4461,-1.5584,-1.5753,-1.6018,-1.6284,-1.6549,-1.6211,-1.5559,-1.4594,0.0,0.0,0.0,0.0,0.0,0.0,0.0,0.0,0.0,0.0,0.0,0.0,0.0,0.0,0.0,0.0,0.0,0.0,0.0,0.0,0.0,0.0,0.0,0.0,0.0,-1.1931,0.0,0.0,0.0,0.0,0.0,0.0,0.0,0.0,0.0,0.0,0.0,-1.4068,-1.5244,-1.5979,-1.666,-1.7341,-1.8036,-1.8677,0.0,0.0,0.0,0.0,0.0,0.0,0.0,0.0,0.0,0.0,0.0,0.0,0.0,0.0,-1.6852,-1.582,-1.6238,-1.6685,-1.6521,0.0,0.0,0.0,0.0,0.0,0.0,0.0,0.0,0.0,0.0,0.0,0.0,0.0,0.0,-0.8664,0.0,-0.8244,0.0,0.0,0.0,0.0,0.0,0.0,0.0,0.0,-1.123,-1.1744,-1.2134,-1.1897,-1.1897,0.0,-1.1695,-1.0973,0.0,0.0,0.0,0.0,0.0,0.0,0.0,0.0,-1.259,-1.2662,-1.4678,-1.5849,-1.603,-1.6296,-1.6561,-1.6815,-1.6573,-1.6103,-1.5427,-1.4208,-1.3254,0.0,0.0,0.0,0.0,0.0,0.0,0.0,0.0,0.0,0.0,0.0,0.0,0.0,0.0,0.0,0.0,0.0,0.0,0.0,0.0,0.0,0.0,0.0,-1.2465,0.0,0.0,0.0,0.0,0.0,0.0,0.0,0.0,0.0,-1.3387,-1.4135,-1.5164,-1.642,-1.6847,-1.7221,-1.7675,0.0,0.0,0.0,0.0,0.0,0.0,0.0,-1.7916,-1.7555,-1.7756,-1.8009,-1.8196,-1.8384,-1.8685,-1.9111,0.0,0.0,-1.7048,-1.7265,-1.7943,-1.8393,-1.8397,-1.8369,-1.8177,-1.836,-1.8531,0.0,0.0,0.0,0.0,0.0,0.0,0.0,0.0,-1.0695,-1.0803,0.0,-1.0248,0.0,0.0,0.0,0.0,0.0,-1.0912,0.0,0.0,-1.3387,-1.3882,-1.3194,-1.3169,-1.3169,-1.3121,-1.2385,-1.2143,-1.2312,-1.1924,0.0,0.0,0.0,0.0,0.0,0.0,-1.2892,-1.2542,-1.4992,-1.6296,-1.6296,-1.6573,-1.6827,-1.7068,-1.6827,-1.6694,-1.667,-1.5668,-1.5004,-1.4714,-1.2759,0.0,0.0,0.0,0.0,0.0,0.0,0.0,0.0,0.0,0.0,0.0,0.0,0.0,0.0,0.0,0.0,0.0,0.0,0.0,0.0,-1.2358,0.0,0.0,0.0,0.0,0.0,0.0,0.0,0.0,0.0,0.0,-1.3908,-1.499,-1.6179,-1.7021,0.0,0.0,0.0,0.0,-1.8624,-1.7836,-1.7675,-1.7716,-1.7742,-1.8424,-1.9145,-1.9693,0.0,0.0,-2.0361,-1.9813,-1.9412,-1.9105,-1.9987,-2.0468,-1.9599,-1.9666,-2.016,-2.1262,-2.0644,-1.9986,-1.9847,-1.9608,-1.9212,-1.2986,0.0,0.0,0.0,0.0,-1.0873,-1.0936,-1.0997,-1.0997,-1.1045,-1.1093,-1.0876,0.0,0.0,0.0,0.0,0.0,0.0,-1.2216,-1.2964,-1.3688,-1.4111,-1.4268,-1.4268,-1.4256,-1.4244,-1.3821,-1.3761,-1.4002,-1.389,-1.293,-1.1202,0.0,0.0,0.0,0.0,-1.3701,-1.4352,-1.5813,-1.6585,-1.6585,-1.6839,-1.702,-1.708,-1.6839,-1.6791,-1.6972,-1.6332,-1.5753,-1.5282,-1.434,0.0,0.0,0.0,0.0,0.0,0.0,0.0,0.0,0.0,0.0,0.0,0.0,0.0,0.0,0.0,0.0,0.0,0.0,0.0,-1.2674,-1.3387,-1.352,0.0,0.0,0.0,0.0,0.0,0.0,0.0,0.0,0.0,-1.6166,-1.6313,-1.6633,0.0,0.0,-1.7502,-1.7408,-1.8277,-1.8971,-1.9145,-1.9345,0.0,-2.004,-1.996,-1.9907,-2.008,-2.0842,-2.1363,-2.1203,-2.1376,-2.1523,-2.1416,-2.1683,-2.1804,-2.1523,-2.1457,-2.1447,-2.182,-2.1692,-2.1665,-2.1679,-2.1652,-2.1643,-1.3918,-1.2363,-1.245,-1.2308,-1.2072,-1.206,-1.2147,-1.2373,-1.2373,-1.2493,-1.2674,-1.2361,-1.2216,-1.2204,-1.1902,0.0,0.0,0.0,-1.323,-1.4159,-1.4304,-1.4558,-1.4871,-1.498,-1.5028,-1.5028,-1.4956,-1.5077,-1.5342,-1.5028,-1.428,-1.3121,0.0,0.0,-1.265,-1.364,-1.4413,-1.498,-1.6103,-1.6754,-1.6851,-1.7117,-1.7249,-1.7237,-1.7092,-1.7129,-1.7382,-1.6996,-1.6622,-1.6296,-1.5475,-1.4352,0.0,0.0,0.0,0.0,0.0,0.0,0.0,0.0,0.0,0.0,0.0,-1.2151,0.0,0.0,0.0,0.0,-1.3387,-1.3641,-1.3935,-1.4202,0.0,0.0,0.0,0.0,0.0,0.0,0.0,-1.4905,-1.638,-1.7502,-1.7502,-1.7662,-1.7916,-1.8317,-1.837,-1.837,-1.837,0.0,-1.984,-1.996,-2.012,-2.0361,-2.0708,-2.0762,-2.0869,-2.1229,-2.1697,-2.2004,-2.1924,-2.2285,-2.2809,-2.3116,-2.2916,-2.2849,-2.3574,-2.2941,-2.2325,-2.2338,-2.2472,-2.2592,-2.2592,-2.2739,-2.2806,-1.457,-1.514,-1.4791,-1.4269,-1.3655,-1.3655,-1.3988,-1.4352,-1.4352,-1.4642,-1.504,-1.4328,-1.4002,-1.3954,-1.323,0.0,-1.4026,-1.4039,-1.4425,-1.5137,-1.5173,-1.5185,-1.5185,-1.5439,-1.5559,-1.5572,-1.5789,-1.603,-1.6247,-1.5559,-1.5306,-1.5511,-1.5077,-1.4304,-1.3375,-1.4485,-1.5004,-1.4835,-1.6066,-1.6839,-1.7117,-1.7358,-1.7491,-1.7515,-1.7515,-1.7624,-1.7853,-1.7648,-1.7515,-1.7479,-1.6308,-1.5378,-1.4787,0.0,0.0,0.0,0.0,0.0,0.0,0.0,0.0,0.0,0.0,0.0,0.0,0.0,0.0,0.0,-1.5124,0.0,-1.5939,-1.5003,0.0,0.0,0.0,-1.487,-1.6233,-1.67,-1.6994,-1.7194,0.0,0.0,-1.8223,-1.8945,-1.9706,-2.0321,-2.0307,-2.0241,-2.0241,-2.0708,-2.0949,-2.0441,-2.0428,-2.0468,-2.0695,-2.1216,-2.1884,-2.2565,-2.2859,-2.2726,-2.2512,-2.2645,-2.327,-2.4123,-2.3607,-2.3393,-2.5143,-2.3896,-2.2873,-2.2886,-2.2873,-2.2859,-2.2846,-2.2859,-2.2859,-1.6995,-1.694,-1.6152,-1.5652,-1.5266,-1.5266,-1.5152,-1.4908,-1.4908,-1.4992,-1.5089,-1.4908,-1.4823,-1.4811,-1.4618,-1.4751,-1.5113,-1.5125,-1.5221,-1.5427,-1.5813,-1.5897,-1.5716,-1.5982,-1.6115,-1.6115,-1.597,-1.603,-1.6272,-1.6091,-1.5934,-1.5813,-1.5885,-1.5403,-1.4401,-1.4859,-1.5282,-1.5608,-1.6332,-1.6923,-1.737,-1.7455,-1.7575,-1.7781,-1.7781,-1.7817,-1.7865,-1.7817,-1.7781,-1.7768,-1.7092,-1.638,-1.5632,-1.4171,0.0,0.0,0.0,0.0,0.0,0.0,0.0,0.0,0.0,-1.2935,-1.2443,0.0,-1.3641,0.0,-1.5725,-1.6847,-1.7141,-1.6914,0.0,0.0,-1.658,-1.6647,-1.7221,-1.8143,-1.849,-1.7876,-1.8931,-1.972,-1.972,-2.0094,-2.0748,-2.171,-2.0935,-2.0241,-2.0254,-2.0935,-2.1403,-2.1323,-2.1777,-2.2231,-2.2191,-2.2392,-2.2605,-2.2819,-2.2873,-2.2832,-2.2766,-2.2819,-2.2969,-2.3311,-2.3079,-2.3133,-2.3557,-2.3133,-2.3131,-2.3233,-2.3086,-2.2859,-2.2859,-2.2873,-2.2873,-1.7908,-1.8094,-1.8222,-1.7652,-1.6553,-1.6241,-1.572,-1.5282,-1.5679,-1.5754,-1.5451,-1.5451,-1.5463,-1.5451,-1.5451,-1.5535,-1.5668,-1.5668,-1.5741,-1.5861,-1.6139,-1.6272,-1.626,-1.6525,-1.6658,-1.6658,-1.6622,-1.667,-1.6815,-1.6936,-1.6911,-1.6779,-1.7056,-1.6718,-1.5801,-1.5451,-1.5427,-1.5716,-1.6368,-1.702,-1.7624,-1.766,-1.7612,-1.7527,-1.7636,-1.7648,-1.7527,-1.7418,-1.7406,-1.7503,-1.702,-1.6489,-1.5897,-1.463,-1.3532,0.0,0.0,0.0,0.0,0.0,0.0,0.0,0.0,0.0,0.0,0.0,-1.4701,-1.5231,-1.6887,-1.7836,-1.7595,-1.7582,-1.7675,-1.7916,-1.7929,-1.821,-1.8878,-1.9666,-2.0,-1.9639,-2.0428,-2.1015,-2.1015,-2.1269,-2.167,-2.2338,-2.183,-2.1403,-2.143,-2.1844,-2.2138,-2.2151,-2.2552,-2.2859,-2.2859,-2.2859,-2.2913,-2.3033,-2.3073,-2.3113,-2.3247,-2.326,-2.3579,-2.4233,-2.3759,-2.3705,-2.4456,-2.3872,-2.342,-2.3794,-2.3607,-2.33,-2.326,-2.326,-2.3273,-1.8434,-1.9117,-2.041,-1.9749,-1.7823,-1.709,-1.6328,-1.554,-1.6151,-1.624,-1.5753,-1.5837,-1.5885,-1.5885,-1.5885,-1.5885,-1.5885,-1.5922,-1.6054,-1.6284,-1.6356,-1.6513,-1.6754,-1.702,-1.7141,-1.7153,-1.737,-1.7503,-1.7539,-1.7768,-1.7841,-1.7793,-1.8058,-1.7793,-1.6984,-1.6103,-1.5632,-1.562,-1.6392,-1.7129,-1.7793,-1.7756,-1.7515,-1.7129,-1.731,-1.7322,-1.7092,-1.6875,-1.6851,-1.7056,-1.6622,-1.6296,-1.6127,-1.492,-1.4123,0.0,-1.3126,0.0,0.0,0.0,0.0,0.0,0.0,0.0,0.0,-1.5573,-1.6117,-1.6941,-1.817,-1.8664,-1.8036,-1.8009,-1.837,-1.9158,-1.9292,-1.972,-2.0722,-2.1069,-2.1323,-2.1577,-2.1857,-2.2044,-2.2017,-2.2298,-2.2472,-2.2498,-2.2632,-2.2686,-2.2819,-2.2792,-2.2792,-2.2859,-2.2899,-2.2953,-2.2966,-2.2979,-2.31,-2.3327,-2.3714,-2.3809,-2.3768,-2.4133,-2.4657,-2.5555,-2.4726,-2.4501,-2.6354,-2.51,-2.4075,-2.4543,-2.4275,-2.3941,-2.3821,-2.3794,-2.3834,-2.0397,-2.0531,-2.0743,-2.024,-1.9314,-1.9126,-1.7612,-1.5351,-1.4982,-1.4841,-1.498,-1.5608,-1.5885,-1.5885,-1.5885,-1.5885,-1.5897,-1.6115,-1.6235,-1.6296,-1.673,-1.6972,-1.7032,-1.7286,-1.7406,-1.7406,-1.7455,-1.7587,-1.7793,-1.7853,-1.766,-1.7261,-1.7503,-1.7237,-1.6477,0.0,0.0,0.0,-1.6936,-1.7406,-1.7527,-1.7141,-1.6972,-1.7092,-1.7141,0.0,-1.7092,-1.7044,-1.7032,-1.708,-1.6791,0.0,0.0,0.0,0.0,0.0,0.0,0.0,0.0,0.0,0.0,0.0,-1.624,-1.6625,-1.6823,-1.7042,-1.7595,-1.8424,-1.8771,-1.9252,-2.0013,-2.0307,-2.0601,-2.1002,-2.1256,-2.1496,-2.1724,-2.1777,-2.1844,-2.1897,-2.2164,-2.2338,-2.2352,-2.2592,-2.2779,-2.2766,-2.2819,-2.2859,-2.2859,-2.2859,-2.2859,-2.2873,-2.3073,-2.322,-2.3233,-2.342,-2.3567,-2.3843,-2.5158,-2.5456,-2.4575,-2.5478,-2.5909,-2.529,-2.4649,-2.4476,-2.497,-2.4636,-2.4583,-2.493,-2.4903,-2.469,-2.4222,-2.4128,-2.4182,-2.0925,0.0,-2.0885,-2.0382,0.0,-1.9552,-1.8198,-1.5885,-1.6238,-1.6004,-1.5318,-1.5716,-1.5885,-1.5873,-1.562,-1.5499,-1.5499,-1.5366,-1.5584,-1.6091,-1.6368,-1.6779,-1.7286,-1.7418,-1.7479,-1.7491,-1.7612,-1.7744,-1.7877,-1.8143,-1.8143,-1.7889,-1.8143,-1.8058,-1.7684,-1.7925,-1.7744,-1.7092,-1.7467,-1.7865,-1.8239,-1.801,-1.7817,-1.7696,-1.7684,0.0,0.0,0.0,0.0,0.0,0.0,0.0,0.0,0.0,0.0,-1.6682,-1.632,-1.6151,-1.6393,-1.6636,-1.6903,-1.7171,-1.8034,-1.8326,-1.7846,-1.8552,-1.9359,-1.9933,-2.0134,-2.0521,-2.1229,-2.1456,-2.1603,-2.1764,-2.1897,-2.1991,-2.2004,-2.2111,-2.2205,-2.2231,-2.2458,-2.2632,-2.2645,-2.2766,-2.2859,-2.2859,-2.2859,-2.2859,-2.2859,-2.2859,-2.2899,-2.306,-2.3207,-2.338,-2.3514,-2.3661,-2.3901,-2.426,-2.5029,-2.5395,-2.4945,-2.5703,-2.5991,-2.5375,-2.517,-2.5144,-2.5424,-2.5277,-2.5157,-2.5411,-2.5398,-2.5291,-2.5064,-2.4957,-2.489,-2.0925,-2.0925,-2.0925,-2.0432,-1.9654,-1.9654,-1.8659,-1.7143,0.0,0.0,0.0,-1.5825,-1.5922,-1.5922,-1.5511,-1.5342,-1.5354,-1.498,-1.527,-1.6091,-1.6151,-1.6634,-1.7467,-1.7479,-1.7503,-1.7563,-1.7768,-1.7925,-1.8034,-1.8469,-1.871,-1.877,-1.8976,-1.9096,-1.9157,-1.941,-1.9108,-1.8275,-1.8131,-1.8408,-1.9048,-1.8939,-1.8662,-1.8227,-1.8167,-1.7937,-1.7503,-1.7479,-1.7479,-1.7479,-1.689,-1.6819,-1.7286,-1.7486,-1.7551,-1.7189,-1.7189,-1.7394,-1.7877,-1.8106,-1.8444,-1.9054,-1.9714,-1.9686,-1.869,-2.006,-2.0876,-2.1243,-2.1483,-2.1724,-2.1964,-2.2044,-2.2058,-2.2058,-2.2111,-2.2151,-2.2164,-2.2338,-2.2498,-2.2525,-2.2699,-2.2859,-2.2846,-2.2859,-2.2859,-2.2859,-2.2859,-2.2899,-2.2926,-2.2966,-2.3073,-2.334,-2.3487,-2.3594,-2.3781,-2.3995,-2.4182,-2.4609,-2.508,-2.5337,-2.559,-2.5932,-2.6067,-2.6087,-2.5825,-2.6034,-2.6527,-2.627,-2.6067,-2.6735,-2.6148,-2.5886,-2.6256,-2.6034,-2.5732,-2.0925,-2.0925,-2.0925,-2.0845,-2.0702,-2.0702,-2.0101,-1.9108,-1.6973,-1.5569,-1.492,-1.5596,-1.6018,-1.6223,-1.6151,-1.6247,-1.6489,-1.6634,-1.6779,-1.6936,-1.7153,-1.7334,-1.7479,-1.7479,-1.7599,-1.7805,-1.7853,-1.8118,-1.8541,-1.865,-1.8794,-1.9,-1.906,-1.9193,-1.941,-1.9688,-1.976,-1.9591,-1.9145,-1.8963,-1.906,-1.8396,-1.801,-1.7925,-1.7744,-1.7563,-1.7491,-1.7503,-1.7479,-1.7479,-1.7443,-1.7636,-1.8082,-1.8216,-1.8507,-1.9012,-1.9072,-1.9217,-1.9519,-1.9591,-1.9856,-2.0404,-2.0451,-2.0273,-2.0093,-2.0773,-2.1411,-2.1569,-2.1753,-2.1937,-2.2004,-2.2218,-2.2352,-2.2378,-2.2579,-2.2739,-2.2712,-2.2752,-2.2779,-2.2779,-2.2832,-2.2859,-2.2859,-2.2859,-2.2859,-2.2859,-2.2899,-2.2979,-2.322,-2.326,-2.3394,-2.3661,-2.3928,-2.4075,-2.4209,-2.4596,-2.4863,-2.4997,-2.646,-2.7058,-2.6007,-2.7128,-2.7579,-2.6621,-2.654,-2.7052,-2.8104,-2.7264,-2.7507,-2.9109,-2.7976,-2.6751,-2.7905,-2.7388,-2.6533,-2.0925,-2.0925,-2.0925,-2.0925,-2.0925,-2.0395,-2.0101,-1.9554,-1.8039,-1.6909,-1.6125,-1.663,-1.6609,-1.6284,-1.6139,-1.6139,-1.626,-1.6091,-1.6247,-1.6646,-1.6779,-1.7068,-1.7467,-1.7624,-1.7756,-1.7889,-1.8179,-1.8444,-1.8674,-1.8819,-1.8963,-1.9084,-1.9217,-1.9422,-1.9688,-1.9965,-2.0098,-2.0086,-1.9857,-1.9736,-1.9724,-1.9374,-1.9181,-1.9181,-1.8927,-1.8782,-1.8782,-1.8794,-1.8782,-1.8782,-1.8656,-1.8764,-1.9145,-1.9297,-1.9455,-1.9664,-1.9688,-1.9748,-1.9881,-1.9881,-2.0075,-2.0319,-2.0356,-2.0294,-2.0256,-2.0908,-2.1515,-2.1938,-2.2085,-2.2151,-2.2163,-2.2443,-2.2659,-2.2659,-2.2779,-2.2859,-2.2859,-2.2859,-2.2859,-2.2859,-2.2859,-2.2859,-2.2859,-2.2859,-2.2859,-2.2873,-2.2993,-2.3273,-2.3714,-2.3808,-2.3848,-2.3995,-2.4249,-2.4489,-2.4663,-2.5024,-2.5344,-2.5518,-2.6375,-2.6763,-2.6289,-2.7706,-2.8388,-2.809,-2.8403,-2.893,-2.9218,-2.849,-2.8561,-2.8415,-2.8123,-2.7336,-2.7831,-2.7459,-2.7163,-2.0925,-2.0925,-2.0925,-2.0925,-2.0822,-2.0189,-2.0028,-2.0015,-1.9608,-1.8772,-1.7809,-1.7698,-1.7405,-1.6796,-1.6369,-1.6187,-1.6187,-1.5837,-1.5982,-1.6513,-1.6549,-1.6911,-1.7539,-1.7781,-1.7937,-1.8082,-1.8493,-1.871,-1.8794,-1.8976,-1.9108,-1.9193,-1.9495,-1.976,-1.9977,-2.0231,-2.0364,-2.0364,-2.0364,-2.0364,-2.0364,-2.0315,-2.0279,-2.0267,-2.0014,-1.9881,-1.9881,-1.9881,-1.9881,-1.9881,-1.9735,-1.9735,-1.9881,-2.0026,-2.0051,-1.9965,-1.9977,-2.0002,-2.0062,-2.0062,-2.0062,-2.0062,-2.0243,-2.0352,-2.0427,-2.0956,-2.1468,-2.1945,-2.2255,-2.2334,-2.2369,-2.2709,-2.2859,-2.2859,-2.2859,-2.2859,-2.2859,-2.2859,-2.2859,-2.2859,-2.2859,-2.2859,-2.2859,-2.2859,-2.2899,-2.3006,-2.3287,-2.3714,-2.4115,-2.4289,-2.4396,-2.4449,-2.4596,-2.4796,-2.5064,-2.5384,-2.5665,-2.5932,-2.6168,-2.6302,-2.6477,-2.7504,-2.8189,-2.8218,-2.9203,-2.965,-2.9383,-2.8964,-2.873,-2.8754,-2.8149,-2.7255,-2.7485,-2.7499,-2.7321,-2.0925,-2.0925,-2.0925,-2.0925,-2.0941,-2.0822,-2.0908,-2.1176,-2.1118,-2.0437,-1.9125,-1.8397,-1.8125,-1.812,-1.7313,-1.7068,-1.7274,-1.7274,-1.7274,-1.7334,-1.737,-1.7539,-1.7817,-1.7877,-1.8143,-1.8541,-1.8674,-1.8819,-1.9012,-1.9072,-1.9205,-1.9458,-1.9941,-2.0207,-2.0267,-2.0496,-2.0629,-2.0629,-2.0629,-2.0629,-2.0617,-2.04,-2.0279,-2.0267,-2.0026,-1.9881,-1.9917,-1.9881,-1.9893,-1.9881,-1.9905,-1.9893,-1.9893,-1.9893,-2.0002,-2.0219,-2.0243,-2.034,-2.0557,-2.0593,-2.0569,-2.0593,-2.0593,-2.0756,-2.102,-2.1145,-2.1258,-2.1546,-2.1971,-2.2271,-2.231,-2.2722,-2.2859,-2.2859,-2.2859,-2.2859,-2.2859,-2.2859,-2.2859,-2.2859,-2.2859,-2.2859,-2.2859,-2.2886,-2.3006,-2.33,-2.3754,-2.4128,-2.4302,-2.469,-2.4957,-2.497,-2.5037,-2.5064,-2.5184,-2.5571,-2.5905,-2.6012,-2.6186,-2.6373,-2.6652,-2.6813,-2.7094,-2.8053,-2.79,-2.8859,-2.9091,-2.8649,-2.8663,-2.9748,-2.8981,-2.7362,-2.7575,-2.7655,-2.7589,-2.0925,-2.0925,-2.0925,-2.1052,-2.1227,-2.1242,-2.1433,-2.1751,-2.1325,-2.0838,-2.0197,-1.9118,-1.8275,-1.7678,-1.7365,-1.7382,-1.7479,-1.7479,-1.7563,-1.7708,-1.772,-1.7853,-1.8106,-1.8287,-1.8481,-1.8686,-1.8843,-1.8963,-1.9084,-1.9229,-1.9519,-1.9917,-2.0183,-2.0352,-2.0509,-2.0617,-2.0665,-2.0665,-2.0665,-2.0665,-2.0653,-2.0569,-2.0509,-2.0496,-2.0412,-2.0352,-2.0352,-2.0352,-2.0352,-2.0352,-2.0352,-2.0352,-2.0352,-2.0352,-2.04,-2.0496,-2.0509,-2.0557,-2.0665,-2.0665,-2.0665,-2.0665,-2.0665,-2.0804,-2.0943,-2.1081,-2.1207,-2.1333,-2.1885,-2.231,-2.231,-2.2722,-2.2859,-2.2859,-2.2859,-2.2859,-2.2859,-2.2859,-2.2859,-2.2859,-2.2859,-2.2873,-2.2899,-2.302,-2.3327,-2.3754,-2.4222,-2.4502,-2.4703,-2.5077,-2.5291,-2.5358,-2.5478,-2.5598,-2.5625,-2.5932,-2.6239,-2.6426,-2.656,-2.6667,-2.7028,-2.7914,-2.8494,-2.8508,-2.912,-2.9616,-2.9894,-2.9612,-2.9478,-3.0069,-2.9391,-2.7829,-2.7936,-2.7963,-2.7896,-2.0925,-2.0941,-2.102,-2.1211,-2.1449,-2.1544,-2.1676,-2.1666,-2.1284,-2.0862,-2.0401,-1.9367,-1.83,-1.7365,-1.7394,-1.7479,-1.7491,-1.7551,-1.7696,-1.7877,-1.795,-1.8143,-1.8408,-1.8589,-1.8722,-1.8807,-1.8976,-1.9108,-1.9217,-1.9543,-1.9893,-2.0243,-2.0352,-2.0472,-2.0641,-2.0665,-2.0665,-2.0665,-2.0665,-2.0665,-2.0665,-2.0665,-2.0665,-2.0665,-2.0665,-2.0665,-2.0665,-2.0665,-2.0665,-2.0665,-2.0665,-2.0665,-2.0665,-2.0665,-2.0665,-2.0665,-2.0665,-2.0665,-2.0665,-2.0665,-2.0665,-2.0665,-2.0804,-2.0804,-2.0943,-2.122,-2.1358,-2.1484,-2.1897,-2.2173,-2.231,-2.2722,-2.2859,-2.2859,-2.2859,-2.2859,-2.2859,-2.2859,-2.2859,-2.2859,-2.2953,-2.3033,-2.3153,-2.346,-2.3888,-2.4249,-2.4636,-2.493,-2.517,-2.5438,-2.5638,-2.5651,-2.5945,-2.6092,-2.6039,-2.6266,-2.6573,-2.6747,-2.6841,-2.7014,-2.7241,-2.8409,-2.9129,-2.8343,-3.016,-3.0764,-2.9707,-2.9462,-2.9943,-2.9188,-2.8628,-2.8278,-2.8096,-2.8136,-2.8136,-2.0925,-2.0972,-2.129,-2.1449,-2.1481,-2.1798,-2.1698,-2.1233,-2.1056,-2.0302,-1.9176,-1.8868,-1.8402,-1.7455,-1.7491,-1.7491,-1.7527,-1.7732,-1.7865,-1.7937,-1.8167,-1.842,-1.8662,-1.8686,-1.8819,-1.9012,-1.9084,-1.9229,-1.9483,-1.9965,-2.0255,-2.0291,-2.0509,-2.0641,-2.0665,-2.0665,-2.0665,-2.0665,-2.0665,-2.0665,-2.0665,-2.0665,-2.0665,-2.0665,-2.0665,-2.0665,-2.0665,-2.0665,-2.0665,-2.0665,-2.0665,-2.0665,-2.0665,-2.0665,-2.0665,-2.0665,-2.0665,-2.0665,-2.0665,-2.0665,-2.0665,-2.0665,-2.0943,-2.1081,-2.1081,-2.1484,-2.176,-2.2173,-2.1897,-2.2035,-2.231,-2.2585,-2.2859,-2.2859,-2.2859,-2.2859,-2.2859,-2.2899,-2.2873,-2.2926,-2.3166,-2.3447,-2.3714,-2.4235,-2.4489,-2.473,-2.5117,-2.5464,-2.5504,-2.5745,-2.5919,-2.6066,-2.6333,-2.6587,-2.6159,-2.6453,-2.6774,-2.6961,-2.7161,-2.7281,-2.7362,-2.762,-2.7741,-2.8041,-2.8662,-2.8952,-2.8728,-2.9258,-3.0064,-2.9635,-2.881,-2.8305,-2.8136,-2.815,-2.815,-2.1187,-2.1667,-2.2185,-2.2231,-2.2024,-2.1588,-2.1375,-2.1323,-2.0202,-1.9354,-1.8868,-1.8298,-1.783,-1.7491,-1.766,-1.7732,-1.7744,-1.7841,-1.8058,-1.8372,-1.8505,-1.8686,-1.8915,-1.8939,-1.8976,-1.9084,-1.9241,-1.9555,-1.9965,-2.0195,-2.0364,-2.0521,-2.0617,-2.0665,-2.0665,-2.0665,-2.0665,-2.0665,-2.0665,-2.0665,-2.0665,-2.0665,-2.0665,-2.0665,-2.0665,-2.0665,-2.0665,-2.0665,-2.0665,-2.0665,-2.0665,-2.0665,-2.0665,-2.0665,-2.0665,-2.0665,-2.0665,-2.0665,-2.0665,-2.0665,-2.0665,-2.0665,-2.0804,-2.0967,-2.0943,-2.1207,-2.1496,-2.1634,-2.2035,-2.2173,-2.231,-2.2448,-2.2585,-2.2859,-2.2873,-2.2899,-2.2899,-2.3033,-2.3153,-2.3233,-2.3567,-2.3995,-2.4315,-2.4676,-2.4983,-2.5197,-2.5545,-2.5758,-2.5838,-2.6052,-2.6279,-2.648,-2.668,-2.6827,-2.6867,-2.6934,-2.7148,-2.7335,-2.7522,-2.7669,-2.7776,-2.7816,-2.809,-2.8077,-2.8096,-2.846,-2.8628,-2.8628,-2.9467,-2.9467,-2.8642,-2.8372,-2.815,-2.8243,-2.8217,-2.244,-2.3385,-2.3145,-2.2803,-2.2261,-2.1942,-2.1308,-2.0702,-1.9795,-1.8997,-1.8415,-1.7713,-1.7527,-1.7624,-1.7793,-1.7986,-1.8131,-1.8143,-1.8336,-1.8674,-1.877,-1.8903,-1.9048,-1.9072,-1.912,-1.9253,-1.9567,-1.9929,-2.0243,-2.0364,-2.0496,-2.0653,-2.0665,-2.0665,-2.0665,-2.0665,-2.0665,-2.0665,-2.0665,-2.0665,-2.0665,-2.0665,-2.0665,-2.0665,-2.0665,-2.0665,-2.0665,-2.0665,-2.0665,-2.0678,-2.075,-2.0834,-2.0907,-2.0919,-2.0931,-2.0931,-2.0931,-2.0931,-2.0931,-2.0931,-2.0931,-2.0931,-2.1072,-2.1072,-2.1212,-2.1492,-2.1657,-2.186,-2.2167,-2.2613,-2.2845,-2.2884,-2.2933,-2.3207,-2.3153,-2.3247,-2.342,-2.3634,-2.3808,-2.3968,-2.4249,-2.4596,-2.489,-2.5184,-2.5424,-2.5651,-2.5919,-2.6092,-2.6132,-2.6346,-2.6573,-2.68,-2.7001,-2.7201,-2.7321,-2.7455,-2.7455,-2.7602,-2.7762,-2.7949,-2.8043,-2.811,-2.815,-2.815,-2.8305,-2.8473,-2.8642,-2.8473,-2.8487,-2.8837,-2.8609,-2.839,-2.839,-2.8417,-2.8457,-2.4792,-2.5934,-2.4282,-2.2812,-2.2213,-2.227,-2.1274,-1.9448,-1.9809,-1.901,-1.7762,-1.7503,-1.766,-1.7841,-1.795,-1.8191,-1.8553,-1.8625,-1.8662,-1.8746,-1.8939,-1.9048,-1.9072,-1.9108,-1.9277,-1.9519,-2.0002,-2.0255,-2.0327,-2.0521,-2.0653,-2.0665,-2.0665,-2.0665,-2.0665,-2.0665,-2.0665,-2.0665,-2.0665,-2.0665,-2.0665,-2.0665,-2.0665,-2.0665,-2.0665,-2.0678,-2.069,-2.069,-2.0702,-2.0726,-2.0931,-2.1185,-2.1378,-2.1246,-2.1282,-2.1402,-2.145,-2.145,-2.1438,-2.1426,-2.139,-2.139,-2.1713,-2.1808,-2.1795,-2.2131,-2.2519,-2.2683,-2.2942,-2.3216,-2.3702,-2.3875,-2.3984,-2.3888,-2.3768,-2.3981,-2.4369,-2.4596,-2.4743,-2.493,-2.505,-2.5197,-2.5478,-2.5718,-2.5905,-2.5985,-2.6199,-2.64,-2.6413,-2.664,-2.68,-2.6961,-2.7241,-2.7522,-2.7736,-2.7896,-2.7843,-2.7829,-2.7963,-2.811,-2.8096,-2.815,-2.815,-2.815,-2.815,-2.8487,-2.8988,-2.8988,-2.9029,-2.9239,-2.8839,-2.8631,-2.8644,-2.8698,-2.8831,-2.5451,-2.6334,-2.4259,-2.3039,-2.2143,-2.0787,-1.9564,-1.8881,-1.8648,-1.8177,-1.7839,-1.7744,-1.7901,-1.8167,-1.8348,-1.8529,-1.8698,-1.8855,-1.8951,-1.8963,-1.9036,-1.9072,-1.912,-1.9265,-1.9579,-1.9977,-2.0183,-2.0376,-2.0533,-2.0629,-2.0665,-2.0665,-2.0665,-2.0665,-2.0665,-2.0665,-2.0665,-2.0665,-2.0665,-2.0665,-2.0665,-2.0665,-2.0665,-2.0665,-2.0665,-2.075,-2.0919,-2.0931,-2.0931,-2.0943,-2.1197,-2.139,-2.1462,-2.1486,-2.1486,-2.1474,-2.1474,-2.1474,-2.1474,-2.1486,-2.1498,-2.1486,-2.1631,-2.1618,-2.1655,-2.1946,-2.2372,-2.2631,-2.305,-2.3523,-2.4031,-2.4341,-2.4449,-2.4382,-2.4369,-2.4436,-2.4703,-2.4863,-2.5064,-2.5344,-2.5558,-2.5718,-2.5838,-2.6066,-2.6226,-2.6279,-2.6493,-2.6667,-2.672,-2.6934,-2.7215,-2.7415,-2.7655,-2.7789,-2.7936,-2.803,-2.8003,-2.7963,-2.807,-2.815,-2.815,-2.815,-2.815,-2.819,-2.819,-2.8439,-2.9097,-2.9418,-2.933,-2.9494,-2.9192,-2.9032,-2.8951,-2.9072,-2.9299,-2.5611,-2.6336,-2.4239,-2.3087,-2.2636,-2.0702,-1.9448,-1.8894,-1.8412,-1.8077,-1.7985,-1.7986,-1.8179,-1.8432,-1.8613,-1.8734,-1.8831,-1.9012,-1.9072,-1.9072,-1.9072,-1.912,-1.9265,-1.9603,-1.9917,-2.0231,-2.0376,-2.0509,-2.0653,-2.0665,-2.0665,-2.0665,-2.0665,-2.0665,-2.0665,-2.0665,-2.0665,-2.0665,-2.0665,-2.0665,-2.0665,-2.0665,-2.0665,-2.0678,-2.0762,-2.0895,-2.1064,-2.1245,-2.1317,-2.1281,-2.1474,-2.1498,-2.1752,-2.1934,-2.1922,-2.1764,-2.1776,-2.1788,-2.1776,-2.18,-2.1764,-2.1764,-2.1764,-2.1776,-2.1824,-2.2017,-2.2323,-2.2918,-2.3468,-2.4099,-2.467,-2.5152,-2.5291,-2.5291,-2.509,-2.509,-2.5224,-2.5438,-2.5625,-2.5852,-2.5999,-2.6092,-2.6172,-2.6239,-2.644,-2.6547,-2.6707,-2.6894,-2.6987,-2.7241,-2.7495,-2.7696,-2.7829,-2.7949,-2.8096,-2.8136,-2.8136,-2.8123,-2.8123,-2.815,-2.815,-2.815,-2.815,-2.8337,-2.839,-2.8537,-2.9028,-2.9325,-2.9326,-2.9352,-2.9499,-2.9646,-2.9686,-2.9793,-2.9953,-2.5284,-2.5975,-2.3762,-2.2862,-2.2749,-2.1531,-2.0081,-1.8959,-1.9089,-1.8633,-1.8119,-1.8081,-1.8321,-1.8662,-1.8608,-1.8843,-1.9036,-1.906,-1.9108,-1.912,-1.9145,-1.9265,-1.9591,-1.9989,-2.0231,-2.0352,-2.0545,-2.0641,-2.0665,-2.0665,-2.0653,-2.0617,-2.0641,-2.0653,-2.0629,-2.0641,-2.0665,-2.0665,-2.0665,-2.0665,-2.0665,-2.0665,-2.069,-2.0714,-2.0919,-2.1076,-2.1233,-2.1607,-2.1764,-2.1595,-2.1606,-2.1822,-2.2186,-2.2259,-2.2211,-2.2186,-2.2247,-2.2211,-2.2235,-2.2174,-2.2211,-2.2235,-2.2235,-2.2295,-2.2331,-2.2688,-2.3071,-2.3728,-2.4313,-2.5062,-2.5728,-2.6082,-2.6253,-2.6279,-2.5825,-2.5798,-2.6266,-2.6306,-2.6253,-2.6306,-2.6373,-2.64,-2.6386,-2.644,-2.6587,-2.6787,-2.6907,-2.7081,-2.7268,-2.7509,-2.7669,-2.7829,-2.7976,-2.803,-2.815,-2.815,-2.815,-2.815,-2.815,-2.815,-2.8203,-2.8217,-2.827,-2.8444,-2.8644,-2.8791,-2.9005,-2.9299,-2.9472,-2.9566,-2.982,-3.0221,-3.0354,-3.0327,-3.0301,-2.3167,-2.2445,-2.1358,-2.0916,-2.0615,-1.9429,-1.8707,-1.8282,-1.8784,-1.8766,-1.8568,-1.8778,-1.8836,-1.8951,-1.8963,-1.9012,-1.9072,-1.9084,-1.9193,-1.935,-1.9362,-1.9639,-1.9989,-2.0195,-2.0388,-2.0545,-2.0617,-2.0665,-2.0665,-2.0641,-2.0569,-2.04,-2.0569,-2.0569,-2.0424,-2.0581,-2.0665,-2.0665,-2.0665,-2.0665,-2.0665,-2.0678,-2.0762,-2.0955,-2.104,-2.1269,-2.1619,-2.1981,-2.2138,-2.2078,-2.2102,-2.2174,-2.2247,-2.2271,-2.2271,-2.2271,-2.2271,-2.2271,-2.2271,-2.2271,-2.2343,-2.2524,-2.2524,-2.2633,-2.2838,-2.3377,-2.386,-2.4478,-2.5152,-2.5648,-2.6056,-2.6386,-2.6386,-2.6386,-2.6199,-2.6186,-2.6333,-2.64,-2.64,-2.64,-2.64,-2.6493,-2.6627,-2.672,-2.6827,-2.7094,-2.7295,-2.7455,-2.7602,-2.7776,-2.7949,-2.8003,-2.8096,-2.8123,-2.815,-2.815,-2.815,-2.815,-2.815,-2.8163,-2.827,-2.8377,-2.8457,-2.8591,-2.8858,-2.9032,-2.9312,-2.9606,-2.9686,-2.9766,-3.0181,-3.0555,-3.0501,-3.0461,-3.0448,-2.1798,-2.1057,-2.047,-2.0308,-2.035,-1.9231,-1.8638,-1.8688,-1.8705,-1.8778,-1.8811,-1.9059,-1.9181,-1.906,-1.9072,-1.9145,-1.9229,-1.9241,-1.9386,-1.9639,-1.976,-1.9989,-2.0243,-2.0376,-2.0521,-2.0641,-2.0665,-2.0605,-2.0521,-2.0496,-2.0412,-2.034,-2.0424,-2.0472,-2.0484,-2.0581,-2.0665,-2.0665,-2.0665,-2.0665,-2.0665,-2.0786,-2.0895,-2.11,-2.1257,-2.1619,-2.2005,-2.2174,-2.2259,-2.2259,-2.2259,-2.2271,-2.2271,-2.2271,-2.2271,-2.2271,-2.2271,-2.2271,-2.2271,-2.2271,-2.2392,-2.2585,-2.2657,-2.279,-2.3162,-2.3597,-2.407,-2.471,-2.5281,-2.5727,-2.6228,-2.64,-2.64,-2.6386,-2.64,-2.64,-2.64,-2.64,-2.64,-2.6413,-2.6507,-2.6627,-2.6814,-2.6921,-2.7148,-2.7375,-2.7549,-2.7709,-2.7869,-2.8043,-2.815,-2.815,-2.815,-2.815,-2.815,-2.815,-2.819,-2.819,-2.8417,-2.8377,-2.847,-2.8617,-2.8778,-2.8938,-2.9112,-2.9312,-2.9579,-2.9806,-2.9927,-3.0127,-3.0541,-3.0688,-3.0621,-3.0595,-3.0581,-2.0974,-2.0816,-2.0268,-2.0496,-2.076,-2.0,-1.9402,-1.9466,-1.91,-1.886,-1.8794,-1.9103,-1.9176,-1.9084,-1.9132,-1.9253,-1.9458,-1.9483,-1.9688,-1.9929,-2.0146,-2.0327,-2.0364,-2.0545,-2.0629,-2.0653,-2.0653,-2.0496,-2.0352,-2.0279,-2.0231,-2.0231,-2.0255,-2.04,-2.0521,-2.0629,-2.0665,-2.0665,-2.0665,-2.0714,-2.0774,-2.0931,-2.1076,-2.1293,-2.1655,-2.1945,-2.2162,-2.2259,-2.2271,-2.2271,-2.2271,-2.2271,-2.2271,-2.2271,-2.2271,-2.2271,-2.2271,-2.2271,-2.2283,-2.2307,-2.244,-2.2669,-2.2718,-2.2838,-2.3295,-2.3538,-2.4095,-2.4786,-2.499,-2.574,-2.6241,-2.64,-2.64,-2.64,-2.64,-2.64,-2.6426,-2.6426,-2.6426,-2.6453,-2.6694,-2.6841,-2.6974,-2.7134,-2.7415,-2.7682,-2.7816,-2.7896,-2.7989,-2.8083,-2.815,-2.815,-2.815,-2.815,-2.815,-2.815,-2.8203,-2.827,-2.8657,-2.8791,-2.8831,-2.8978,-2.9179,-2.9339,-2.9419,-2.9566,-2.978,-2.9967,-3.0074,-3.0181,-3.0368,-3.0568,-3.0702,-3.0702,-3.0702,-1.9349,-1.922,-1.8941,-1.8854,-1.8947,-1.8964,-1.8963,-1.8988,-1.9247,-1.9218,-1.9127,-1.9444,-1.9468,-1.9096,-1.9277,-1.9553,-1.9543,-1.9724,-1.9941,-2.0207,-2.046,-2.0569,-2.0581,-2.0653,-2.0665,-2.0629,-2.046,-2.034,-2.0243,-2.0086,-1.9977,-2.0002,-2.0195,-2.0303,-2.04,-2.0593,-2.0665,-2.0665,-2.0678,-2.0786,-2.0943,-2.1064,-2.1293,-2.1643,-2.1993,-2.2174,-2.2247,-2.2271,-2.2271,-2.2271,-2.2271,-2.2271,-2.2271,-2.2271,-2.2271,-2.2271,-2.2271,-2.2271,-2.2295,-2.244,-2.2681,-2.2887,-2.2971,-2.3152,-2.3611,-2.4132,-2.4522,-2.5123,-2.5727,-2.607,-2.6386,-2.64,-2.6426,-2.6426,-2.6453,-2.652,-2.6667,-2.672,-2.6707,-2.6787,-2.6987,-2.7241,-2.7455,-2.7509,-2.7736,-2.7976,-2.8043,-2.807,-2.811,-2.8136,-2.815,-2.815,-2.815,-2.815,-2.8163,-2.8243,-2.8417,-2.8551,-2.8911,-2.9192,-2.9232,-2.9272,-2.9446,-2.9579,-2.9673,-2.982,-2.9913,-2.9927,-2.998,-3.0087,-3.0181,-3.0327,-3.0488,-3.0621,-3.0648,-1.889,-1.8797,-1.8691,-1.8582,-1.8505,-1.8758,-1.8867,-1.8891,-1.9267,-1.9328,-1.92,-1.934,-1.9401,-1.9265,-1.941,-1.9579,-1.9881,-2.0122,-2.0327,-2.0472,-2.0617,-2.0653,-2.0665,-2.0665,-2.0665,-2.0629,-2.04,-2.0243,-2.0086,-1.9965,-1.9893,-1.9905,-2.0146,-2.0352,-2.0448,-2.0593,-2.0653,-2.0702,-2.0798,-2.0931,-2.1052,-2.1329,-2.1607,-2.1969,-2.2186,-2.2271,-2.2271,-2.2271,-2.2271,-2.2271,-2.2271,-2.2271,-2.2271,-2.2271,-2.2271,-2.2271,-2.2271,-2.2271,-2.2319,-2.25,-2.2754,-2.3019,-2.3152,-2.3454,-2.3879,-2.4331,-2.4648,-2.5079,-2.5594,-2.6228,-2.64,-2.6547,-2.6573,-2.6613,-2.672,-2.6867,-2.6974,-2.6921,-2.6894,-2.7028,-2.7281,-2.7482,-2.7655,-2.7789,-2.7909,-2.8083,-2.8083,-2.811,-2.811,-2.815,-2.815,-2.815,-2.815,-2.815,-2.819,-2.835,-2.8657,-2.8898,-2.9219,-2.9459,-2.9593,-2.9633,-2.9686,-2.9766,-2.9806,-2.9847,-2.9913,-2.9913,-2.9913,-2.998,-3.006,-3.0127,-3.0181,-3.0261,-3.0261,-1.9063,-1.8717,-1.8951,-1.8949,-1.877,-1.8976,-1.906,-1.906,-1.9072,-1.9108,-1.9132,-1.9132,-1.9431,-1.9495,-1.9603,-1.9893,-2.0267,-2.0496,-2.0605,-2.0629,-2.0641,-2.0665,-2.0665,-2.0665,-2.0665,-2.0629,-2.04,-2.0171,-1.9965,-1.9881,-1.9881,-1.9929,-2.0146,-2.0388,-2.0605,-2.0665,-2.0714,-2.0774,-2.0931,-2.1136,-2.1269,-2.1631,-2.1933,-2.2174,-2.2247,-2.2271,-2.2271,-2.2271,-2.2271,-2.2271,-2.2271,-2.2271,-2.2271,-2.2271,-2.2271,-2.2271,-2.2271,-2.2271,-2.2331,-2.2549,-2.2838,-2.3056,-2.3225,-2.3514,-2.3744,-2.4209,-2.4698,-2.5181,-2.5749,-2.6281,-2.6547,-2.6747,-2.6881,-2.6921,-2.7121,-2.7268,-2.7281,-2.7108,-2.7148,-2.7308,-2.7575,-2.7789,-2.7869,-2.7963,-2.807,-2.815,-2.815,-2.815,-2.815,-2.815,-2.815,-2.8217,-2.8243,-2.8444,-2.8497,-2.8684,-2.8978,-2.9165,-2.9486,-2.9659,-2.9833,-2.982,-2.9806,-2.986,-2.99,-2.9913,-2.9913,-2.9913,-2.9913,-2.9913,-2.994,-3.0007,-2.998,-2.9927,-2.9953,-1.9233,-1.8976,-1.8912,-1.8933,-1.9,-1.906,-1.9072,-1.9072,-1.9084,-1.9205,-1.9374,-1.941,-1.9555,-1.9796,-2.005,-2.0315,-2.0533,-2.0653,-2.0665,-2.0665,-2.0665,-2.0665,-2.0665,-2.0665,-2.0665,-2.0605,-2.0287,-2.0035,-1.9941,-1.9881,-1.9917,-1.9953,-2.0171,-2.0436,-2.0605,-2.0678,-2.0798,-2.0943,-2.1088,-2.1317,-2.1619,-2.1824,-2.2005,-2.2247,-2.2271,-2.2271,-2.2271,-2.2271,-2.2271,-2.2271,-2.2271,-2.2271,-2.2271,-2.2271,-2.2271,-2.2271,-2.2271,-2.2271,-2.2319,-2.2681,-2.2935,-2.3043,-2.3164,-2.3418,-2.3794,-2.4194,-2.4857,-2.5693,-2.6462,-2.7081,-2.7121,-2.7148,-2.7175,-2.7215,-2.7281,-2.7402,-2.7549,-2.7562,-2.7522,-2.7642,-2.7869,-2.803,-2.8043,-2.8056,-2.8096,-2.815,-2.815,-2.815,-2.815,-2.815,-2.8163,-2.827,-2.839,-2.8644,-2.8885,-2.9125,-2.9366,-2.9432,-2.9646,-2.9766,-2.9887,-2.99,-2.9913,-2.9913,-2.9913,-2.9913,-2.9913,-2.9913,-2.9913,-2.9913,-2.9913,-2.9913,-2.9927,-2.9953,-2.998,-1.9125,-1.912,-1.9006,-1.8951,-1.906,-1.9072,-1.9072,-1.9096,-1.9217,-1.935,-1.9483,-1.9627,-1.9833,-2.0062,-2.0207,-2.0424,-2.0617,-2.0665,-2.0665,-2.0665,-2.0665,-2.0665,-2.0665,-2.0665,-2.0665,-2.0352,-1.9819,-1.9562,-1.9941,-2.0038,-1.9867,-2.0002,-2.0267,-2.0545,-2.0678,-2.081,-2.0931,-2.1088,-2.1329,-2.1583,-2.1873,-2.1981,-2.215,-2.2223,-2.2271,-2.2271,-2.2271,-2.2271,-2.2271,-2.2271,-2.2271,-2.2271,-2.2271,-2.2271,-2.2271,-2.2271,-2.2271,-2.2271,-2.2307,-2.2645,-2.2935,-2.3249,-2.3357,-2.3707,-2.4195,-2.4914,-2.5481,-2.6287,-2.6809,-2.7268,-2.7241,-2.7402,-2.7482,-2.7522,-2.7602,-2.7749,-2.7869,-2.7909,-2.7909,-2.7896,-2.8016,-2.8096,-2.811,-2.8123,-2.8136,-2.815,-2.815,-2.815,-2.815,-2.819,-2.823,-2.8497,-2.8671,-2.8925,-2.9179,-2.9379,-2.9593,-2.9686,-2.9753,-2.9873,-2.9913,-2.9913,-2.9913,-2.9913,-2.9913,-2.9913,-2.9913,-2.9913,-2.9913,-2.9913,-2.9913,-2.9927,-2.9967,-2.9993,-3.006,-1.9132,-1.9072,-1.9072,-1.9072,-1.9084,-1.9132,-1.9157,-1.9205,-1.9434,-1.9591,-1.9664,-1.9869,-2.011,-2.0303,-2.0376,-2.0484,-2.0665,-2.0665,-2.0665,-2.0665,-2.0665,-2.0665,-2.0665,-2.0665,-2.0527,-1.982,-1.9228,-1.8749,-1.9151,-1.9118,-1.9356,-1.9481,-1.9898,-2.0563,-2.0786,-2.0943,-2.1064,-2.1341,-2.1607,-2.1873,-2.1993,-2.215,-2.2271,-2.2271,-2.2271,-2.2271,-2.2271,-2.2271,-2.2271,-2.2271,-2.2271,-2.2271,-2.2271,-2.2271,-2.2283,-2.2331,-2.2343,-2.2343,-2.244,-2.279,-2.3212,-2.3502,-2.3719,-2.4069,-2.4535,-2.5275,-2.6246,-2.7171,-2.7455,-2.7495,-2.7562,-2.7655,-2.7762,-2.7816,-2.7976,-2.8136,-2.8096,-2.8096,-2.8083,-2.8096,-2.815,-2.815,-2.815,-2.815,-2.815,-2.815,-2.815,-2.815,-2.8163,-2.8297,-2.8417,-2.8764,-2.9018,-2.9245,-2.9432,-2.9553,-2.9713,-2.982,-2.9833,-2.99,-2.9913,-2.9913,-2.9913,-2.9913,-2.9913,-2.9913,-2.9913,-2.9913,-2.9913,-2.9913,-2.9913,-2.998,-3.0087,-3.0194,-3.0287,-1.9419,-1.9072,-1.9072,-1.9072,-1.912,-1.9314,-1.9422,-1.9458,-1.9712,-1.9977,-2.011,-2.0219,-2.0376,-2.0545,-2.0455,-2.0629,-2.0527,-2.0237,-2.0098,-2.0098,-2.0098,-2.0237,-2.0527,-2.0665,-1.968,-1.8971,-1.8412,-1.825,-1.7962,-1.7246,-1.7374,-1.811,-1.856,-1.9363,-2.0297,-2.0414,-2.1305,-2.1679,-2.1836,-2.1981,-2.2013,-2.2085,-2.2109,-2.2271,-2.2271,-2.2271,-2.2271,-2.2271,-2.2271,-2.2271,-2.2271,-2.2271,-2.2271,-2.2271,-2.2404,-2.2524,-2.2609,-2.2609,-2.2705,-2.3116,-2.3575,-2.3731,-2.3852,-2.4009,-2.4711,-2.5437,-2.6427,-2.7476,-2.7829,-2.7936,-2.7909,-2.803,-2.8083,-2.807,-2.8096,-2.815,-2.815,-2.815,-2.815,-2.815,-2.7981,-2.7981,-2.7981,-2.815,-2.815,-2.815,-2.815,-2.8163,-2.827,-2.847,-2.8684,-2.9032,-2.9299,-2.9526,-2.9606,-2.974,-2.9793,-2.9913,-2.9913,-2.9913,-2.9913,-2.9913,-2.9913,-2.9913,-2.9913,-2.9913,-2.9913,-2.9913,-2.9913,-2.998,-3.0074,-3.0181,-3.0287,-3.0394,-3.0555,-1.9249,-1.9072,-1.9072,-1.9169,-1.9301,-1.9422,-1.9555,-1.9748,-1.9989,-2.0171,-2.0303,-2.0448,-2.0569,-2.0515,-1.982,-1.9401,-1.9251,-1.8681,-1.811,-1.825,-1.825,-1.8681,-1.8971,-1.8541,-1.783,-1.7981,-1.6705,-1.5557,-1.5634,-1.6065,-1.6486,-1.6767,-1.7208,-1.7581,-1.8806,-1.8799,-1.9409,-2.0047,-2.0637,-2.0773,-2.0853,-2.1037,-2.1337,-2.2259,-2.2259,-2.2271,-2.2271,-2.2271,-2.2271,-2.2271,-2.2271,-2.2343,-2.244,-2.2512,-2.2597,-2.285,-2.3031,-2.3031,-2.2959,-2.3249,-2.3611,-2.3973,-2.4106,-2.4498,-2.5384,-2.6007,-2.6607,-2.7923,-2.7896,-2.7976,-2.811,-2.8136,-2.815,-2.815,-2.815,-2.815,-2.815,-2.815,-2.815,-2.7981,-2.7812,-2.7812,-2.7656,-2.7865,-2.8034,-2.8203,-2.8243,-2.831,-2.8551,-2.8898,-2.9112,-2.9352,-2.9566,-2.9766,-2.9806,-2.986,-2.9847,-2.9913,-2.9913,-2.9913,-2.9913,-2.9913,-2.9913,-2.9913,-2.9913,-2.9913,-2.9927,-2.9967,-3.002,-3.014,-3.0287,-3.0408,-3.0541,-3.0822,-3.0996,-1.8277,-1.8125,-1.8947,-1.9314,-1.9483,-1.9603,-1.9784,-2.0002,-2.0267,-2.0376,-2.0424,-2.0569,-2.0515,-1.9959,-1.8971,-1.8272,-1.77,-1.6554,-1.6272,-1.6131,-1.6272,-1.6836,-1.7268,-1.6836,-1.6554,-1.7278,-1.5292,-1.4047,-1.3945,-1.4231,-1.4954,-1.5524,-1.5705,-1.6341,-1.6683,-1.726,-1.7971,-1.8829,-1.9564,-1.9639,-1.9359,-1.9661,-2.0575,-2.1337,-2.196,-2.2271,-2.2271,-2.2271,-2.2271,-2.2271,-2.2355,-2.2476,-2.2597,-2.2705,-2.2874,-2.3104,-2.3297,-2.3357,-2.3321,-2.3478,-2.3683,-2.3997,-2.4251,-2.4735,-2.5994,-2.6274,-2.6671,-2.7909,-2.7843,-2.7896,-2.8056,-2.8136,-2.815,-2.815,-2.815,-2.815,-2.815,-2.7981,-2.7981,-2.7643,-2.7474,-2.7135,-2.7161,-2.7395,-2.7591,-2.8101,-2.8337,-2.8444,-2.8791,-2.9219,-2.9419,-2.9593,-2.9713,-2.986,-2.9887,-2.9913,-2.9913,-2.9913,-2.9913,-2.9913,-2.9913,-2.9913,-2.9913,-2.9913,-2.9927,-3.0034,-3.0127,-3.0127,-3.014,-3.0301,-3.0461,-3.0648,-3.0849,-3.1129,-3.133,-1.5994,-1.5585,-1.8347,-1.9304,-1.9388,-2.0014,-2.0219,-1.9847,-2.0371,-2.0328,-2.0178,-2.0515,-1.9541,-1.8692,-1.7981,-1.7268,-1.6272,-1.6131,-1.5707,-1.5707,-1.6131,-1.5849,-1.599,-1.5707,-1.5283,-1.4733,-1.3769,-1.3001,-1.2372,-1.2568,-1.3275,-1.4011,-1.4318,-1.5519,-1.6256,-1.6505,-1.6596,-1.7435,-1.828,-1.8441,-1.829,-1.8592,-1.9661,-2.0263,-2.1337,-2.2259,-2.2271,-2.2271,-2.2307,-2.2307,-2.2464,-2.2669,-2.279,-2.2935,-2.314,-2.3381,-2.3466,-2.3562,-2.3647,-2.3804,-2.4094,-2.4202,-2.4299,-2.4711,-2.5729,-2.574,-2.6371,-2.7516,-2.7669,-2.7829,-2.8016,-2.815,-2.815,-2.815,-2.815,-2.8136,-2.7981,-2.7812,-2.7643,-2.7474,-2.7148,-2.6808,-2.6923,-2.6999,-2.7551,-2.7905,-2.8698,-2.8831,-2.9098,-2.9459,-2.9619,-2.9766,-2.9833,-2.99,-2.99,-2.9913,-2.9913,-2.9913,-2.9913,-2.9913,-2.9913,-2.9913,-2.9913,-2.994,-2.998,-3.0154,-3.0341,-3.0421,-3.0488,-3.0528,-3.0648,-3.0875,-3.1102,-3.1356,-3.1503,-1.5329,-1.5091,-1.4919,-1.571,-1.7235,-1.7412,-1.7569,-1.7694,-1.7788,-1.783,-1.797,-1.783,-1.7549,-1.6846,-1.5858,-1.5434,-1.4583,-1.3603,-1.3595,-1.3317,-1.3317,-1.388,-1.4022,-1.4022,-1.3452,-1.3484,-1.3123,-1.2474,-1.1969,-1.1993,-1.2244,-1.2885,-1.3214,-1.3476,-1.4182,-1.5278,-1.5336,-1.5064,-1.6007,-1.6312,-1.6312,-1.6465,-1.7683,-1.9811,-2.0124,-2.1349,-2.2109,-2.2259,-2.2355,-2.2476,-2.2445,-2.2814,-2.3056,-2.3225,-2.3406,-2.3635,-2.3659,-2.3731,-2.3804,-2.3961,-2.4057,-2.4311,-2.4504,-2.4955,-2.5564,-2.5766,-2.6462,-2.7192,-2.7535,-2.7642,-2.8043,-2.8136,-2.815,-2.815,-2.8136,-2.8136,-2.7812,-2.7643,-2.7304,-2.6965,-2.6664,-2.6348,-2.6485,-2.6623,-2.7177,-2.7732,-2.8578,-2.9219,-2.9446,-2.9619,-2.9753,-2.9833,-2.9887,-2.9913,-2.9734,-2.9913,-2.9913,-2.9913,-2.9913,-2.9913,-2.9913,-2.9913,-2.9927,-2.9967,-3.0074,-3.0261,-3.0474,-3.0715,-3.0862,-3.0942,-3.1036,-3.1169,-3.1383,-3.157,-3.1623,-1.3763,-1.3713,-1.2283,-1.3245,-1.5552,-1.5746,-1.5859,-1.6112,-1.6131,-1.6131,-1.6122,-1.6075,-1.5765,-1.5202,-1.4497,-1.3507,-1.3097,-1.2294,-1.1893,-1.1756,-1.2043,-1.2323,-1.2466,-1.2481,-1.2352,-1.2827,-1.2489,-1.185,-1.2006,-1.2196,-1.2429,-1.2471,-1.2359,-1.2574,-1.2916,-1.3876,-1.403,-1.3267,-1.403,-1.4483,-1.433,-1.4944,-1.5701,-1.829,-1.9208,-2.0274,-2.1383,-2.1893,-2.2488,-2.2645,-2.2673,-2.2913,-2.3164,-2.338,-2.35,-2.3768,-2.384,-2.384,-2.384,-2.3864,-2.3925,-2.4106,-2.4347,-2.4772,-2.5275,-2.5552,-2.6053,-2.6967,-2.7295,-2.7482,-2.7989,-2.8056,-2.8123,-2.815,-2.815,-2.815,-2.7643,-2.7317,-2.6965,-2.6626,-2.6323,-2.6031,-2.6425,-2.6587,-2.7444,-2.8082,-2.8771,-2.9336,-2.9633,-2.9766,-2.9847,-2.9887,-2.99,-2.9734,-2.9734,-2.9734,-2.9913,-2.9734,-2.9734,-2.9913,-2.9913,-2.9927,-3.0007,-3.0127,-3.0261,-3.0394,-3.0648,-3.0955,-3.1196,-3.1396,-3.1423,-3.141,-3.149,-3.1637,-3.165,-1.117,-1.1283,-1.1586,-1.3189,-1.5274,-1.5896,-1.583,-1.5539,-1.5698,-1.5698,-1.552,-1.5523,-1.4875,-1.3899,-1.334,-1.2788,-1.1988,-1.1674,-1.1592,-1.1579,-1.1606,-1.1756,-1.177,-1.1784,-1.1846,-1.1803,-1.1898,-1.204,-1.2237,-1.2298,-1.2379,-1.244,-1.2461,-1.2474,-1.2656,-1.4022,-1.4022,-1.2958,-1.4184,-1.3722,-1.3421,-1.403,-1.4944,-1.616,-1.7834,-1.9057,-1.9919,-2.1406,-2.2013,-2.2354,-2.2973,-2.32,-2.349,-2.3695,-2.3792,-2.3828,-2.384,-2.384,-2.384,-2.384,-2.3876,-2.3925,-2.4142,-2.4255,-2.4739,-2.5059,-2.5583,-2.662,-2.6985,-2.7402,-2.7709,-2.7963,-2.8083,-2.8123,-2.8123,-2.7772,-2.7435,-2.6876,-2.6512,-2.6261,-2.5799,-2.5542,-2.6142,-2.6735,-2.7673,-2.8268,-2.896,-2.9283,-2.9641,-2.986,-2.9913,-2.9913,-2.9913,-2.9734,-2.9554,-2.9734,-2.9734,-2.9554,-2.9554,-2.9734,-2.9953,-2.9993,-3.0114,-3.0274,-3.0501,-3.0688,-3.0942,-3.1209,-3.1383,-3.1517,-3.1597,-3.161,-3.1664,-3.1677,-3.1677,-1.0792,-1.1029,-1.1262,-1.1877,-1.265,-1.3051,-1.3113,-1.3036,-1.3105,-1.3113,-1.3013,-1.2935,-1.2704,-1.2095,-1.2066,-1.1788,-1.1406,-1.1396,-1.1463,-1.1477,-1.1545,-1.1613,-1.1633,-1.1694,-1.1782,-1.1877,-1.1999,-1.2149,-1.2277,-1.2366,-1.2433,-1.2494,-1.2488,-1.2501,-1.2628,-1.3048,-1.2699,-1.2635,-1.2958,-1.2958,-1.2656,-1.3112,-1.3876,-1.479,-1.616,-1.7283,-1.8325,-2.0145,-2.1089,-2.1491,-2.2303,-2.321,-2.3488,-2.3668,-2.368,-2.368,-2.368,-2.384,-2.384,-2.384,-2.384,-2.3888,-2.3961,-2.411,-2.416,-2.4987,-2.5673,-2.6502,-2.6958,-2.7455,-2.7923,-2.8043,-2.8123,-2.8083,-2.7901,-2.7356,-2.6993,-2.6386,-2.5843,-2.5689,-2.5458,-2.5566,-2.5944,-2.6475,-2.7234,-2.7938,-2.8549,-2.9191,-2.9793,-2.986,-2.9913,-2.9913,-2.9913,-2.9554,-2.9554,-2.9554,-2.9554,-2.9362,-2.9554,-2.9913,-2.9967,-3.0074,-3.0247,-3.0434,-3.0728,-3.0996,-3.1196,-3.137,-3.1476,-3.1597,-3.1637,-3.1664,-3.1677,-3.1677,-3.1677,-1.0766,-1.0955,-1.105,-1.1084,-1.1124,-1.1355,-1.1402,-1.1335,-1.1416,-1.1402,-1.1454,-1.126,-1.1185,-1.1104,-1.109,-1.109,-1.1104,-1.124,-1.1314,-1.1328,-1.1402,-1.1504,-1.1613,-1.1728,-1.1857,-1.1972,-1.2155,-1.2305,-1.2379,-1.2454,-1.2494,-1.2488,-1.2461,-1.2461,-1.2447,-1.2587,-1.2574,-1.2494,-1.2656,-1.2656,-1.2501,-1.2804,-1.3112,-1.3876,-1.4806,-1.5633,-1.687,-1.8271,-1.9522,-2.0295,-2.1453,-2.2669,-2.298,-2.3359,-2.3359,-2.3187,-2.2854,-2.3187,-2.352,-2.384,-2.384,-2.3852,-2.4021,-2.4146,-2.4172,-2.4924,-2.5809,-2.6488,-2.6958,-2.7482,-2.7869,-2.7989,-2.7888,-2.7667,-2.7369,-2.7006,-2.65,-2.6061,-2.5711,-2.5556,-2.5458,-2.5578,-2.5687,-2.6215,-2.6748,-2.7409,-2.8088,-2.8889,-2.9521,-2.9793,-2.986,-2.9873,-2.9721,-2.9375,-2.9195,-2.9195,-2.9015,-2.9002,-2.9195,-2.9734,-3.01,-3.0234,-3.0408,-3.0608,-3.0915,-3.1169,-3.1356,-3.1517,-3.1583,-3.1623,-3.165,-3.1677,-3.1677,-3.1677,-3.1677,-1.0806,-1.0792,-1.0799,-1.0806,-1.0968,-1.1097,-1.1151,-1.1165,-1.1172,-1.1179,-1.1151,-1.1029,-1.0975,-1.0948,-1.0941,-1.0941,-1.0975,-1.109,-1.1145,-1.1185,-1.1253,-1.1396,-1.1538,-1.166,-1.185,-1.2108,-1.2264,-1.2277,-1.2454,-1.2454,-1.2461,-1.2474,-1.2413,-1.2433,-1.2467,-1.2481,-1.2481,-1.2494,-1.2501,-1.2501,-1.2501,-1.2528,-1.2677,-1.3288,-1.3913,-1.4633,-1.5705,-1.6791,-1.778,-1.8795,-1.9957,-2.0684,-2.1556,-2.2694,-2.22,-2.1717,-2.1222,-2.22,-2.3187,-2.3348,-2.384,-2.384,-2.3864,-2.416,-2.4492,-2.4861,-2.5718,-2.641,-2.6892,-2.7197,-2.7669,-2.7469,-2.7265,-2.7149,-2.7058,-2.6563,-2.6236,-2.5871,-2.5701,-2.558,-2.5433,-2.5494,-2.553,-2.5859,-2.6191,-2.6735,-2.7381,-2.7933,-2.8758,-2.9482,-2.9548,-2.9628,-2.9296,-2.9002,-2.8835,-2.8655,-2.8655,-2.8462,-2.8835,-2.9234,-2.9805,-3.0408,-3.0635,-3.0677,-3.1116,-3.1343,-3.1503,-3.1597,-3.1637,-3.1677,-3.1677,-3.1677,-3.1677,-3.1677,-3.1677,-1.0744,-1.0785,-1.0652,-1.0785,-1.0792,-1.0826,-1.0962,-1.1145,-1.1158,-1.1118,-1.1002,-1.0968,-1.0887,-1.0792,-1.0785,-1.0792,-1.0846,-1.0921,-1.0989,-1.1063,-1.1185,-1.1341,-1.1497,-1.166,-1.1837,-1.1965,-1.2081,-1.2169,-1.2216,-1.2284,-1.2427,-1.2467,-1.244,-1.2467,-1.2481,-1.2501,-1.2501,-1.2501,-1.2501,-1.2501,-1.2535,-1.2583,-1.2562,-1.2845,-1.3049,-1.3632,-1.4268,-1.5431,-1.6258,-1.6863,-1.8407,-1.9277,-1.944,-1.9927,-1.9602,-1.9755,-2.0403,-2.1545,-2.2039,-2.3027,-2.368,-2.368,-2.3704,-2.384,-2.416,-2.4714,-2.5532,-2.6261,-2.6769,-2.7224,-2.739,-2.7239,-2.7149,-2.6863,-2.6563,-2.6186,-2.5859,-2.5689,-2.5519,-2.5592,-2.5433,-2.5446,-2.547,-2.5494,-2.5799,-2.6105,-2.6523,-2.7266,-2.7869,-2.8608,-2.906,-2.9139,-2.9104,-2.8642,-2.8474,-2.8294,-2.8101,-2.8101,-2.8474,-2.8938,-2.956,-3.0005,-3.0452,-3.0903,-3.1142,-3.149,-3.1623,-3.1677,-3.1677,-3.1677,-3.1677,-3.1677,-3.1677,-3.1677,-3.1677,-1.0717,-1.0711,-1.0649,-1.0595,-1.0555,-1.0548,-1.0683,-1.088,-1.0962,-1.0934,-1.0867,-1.0853,-1.0806,-1.0738,-1.0731,-1.0731,-1.0738,-1.0812,-1.0887,-1.1016,-1.1158,-1.1321,-1.1491,-1.166,-1.1809,-1.1904,-1.1993,-1.2088,-1.2094,-1.2203,-1.2352,-1.2406,-1.2454,-1.2494,-1.2501,-1.2501,-1.2501,-1.2501,-1.2501,-1.2501,-1.2542,-1.2596,-1.2556,-1.2549,-1.2617,-1.2752,-1.3089,-1.4373,-1.4716,-1.5131,-1.6664,-1.7483,-1.7647,-1.7638,-1.8291,-1.8454,-1.8454,-1.943,-2.0241,-2.1717,-2.2533,-2.305,-2.3454,-2.4009,-2.417,-2.4715,-2.5425,-2.6143,-2.66,-2.7126,-2.7122,-2.7227,-2.6914,-2.6601,-2.6198,-2.5616,-2.5446,-2.5446,-2.5337,-2.5409,-2.5433,-2.5433,-2.5446,-2.5433,-2.5458,-2.5677,-2.613,-2.6475,-2.7046,-2.7849,-2.8307,-2.8652,-2.8488,-2.8281,-2.8101,-2.792,-2.7739,-2.7739,-2.792,-2.8433,-2.9286,-2.9754,-3.0199,-3.0674,-3.1341,-3.1623,-3.1677,-3.1677,-3.1677,-3.1677,-3.1677,-3.1677,-3.1677,-3.1677,-3.1677,-1.0711,-1.0683,-1.0404,-1.0283,-1.029,-1.0304,-1.0378,-1.0487,-1.0629,-1.0704,-1.0724,-1.0704,-1.0704,-1.0711,-1.0717,-1.0717,-1.0738,-1.0785,-1.0867,-1.0962,-1.1084,-1.1267,-1.1477,-1.1633,-1.1748,-1.1932,-1.2013,-1.1959,-1.2054,-1.2135,-1.2203,-1.2284,-1.2406,-1.2467,-1.2494,-1.2501,-1.2501,-1.2501,-1.2501,-1.2501,-1.2515,-1.2522,-1.2515,-1.2508,-1.2569,-1.2664,-1.2881,-1.3171,-1.3098,-1.3945,-1.4706,-1.5687,-1.5843,-1.5843,-1.6664,-1.7156,-1.6983,-1.7474,-1.8472,-2.013,-2.08,-2.1687,-2.2784,-2.3062,-2.3272,-2.4425,-2.5451,-2.5982,-2.6465,-2.6646,-2.6773,-2.6681,-2.6368,-2.6078,-2.5726,-2.5531,-2.5531,-2.5361,-2.5385,-2.5433,-2.5433,-2.5433,-2.5433,-2.5433,-2.5433,-2.5482,-2.5714,-2.6044,-2.6376,-2.7121,-2.7586,-2.8004,-2.8079,-2.7908,-2.7558,-2.739,-2.7377,-2.7377,-2.7595,-2.8182,-2.8913,-2.9352,-2.9755,-3.059,-3.1244,-3.1447,-3.1677,-3.1677,-3.1677,-3.1677,-3.1677,-3.1677,-3.1677,-3.1677,-3.1677,-1.0649,-1.0534,-1.0392,-1.0304,-1.0283,-1.0276,-1.0297,-1.0337,-1.0365,-1.0507,-1.067,-1.0616,-1.0609,-1.0677,-1.0711,-1.0717,-1.0731,-1.0819,-1.09,-1.1043,-1.1151,-1.1287,-1.1463,-1.1586,-1.1674,-1.1687,-1.1735,-1.1809,-1.1891,-1.1959,-1.2074,-1.2257,-1.2352,-1.2393,-1.2481,-1.2488,-1.2501,-1.2501,-1.2501,-1.2501,-1.2508,-1.2596,-1.2644,-1.2589,-1.2596,-1.2739,-1.2901,-1.2969,-1.3139,-1.3501,-1.3714,-1.4052,-1.4052,-1.4052,-1.4217,-1.4706,-1.5522,-1.6016,-1.6879,-1.8266,-1.9154,-1.9911,-2.0859,-2.0952,-2.1846,-2.3857,-2.5285,-2.565,-2.6171,-2.6361,-2.6487,-2.633,-2.6004,-2.5726,-2.5433,-2.5433,-2.5433,-2.5433,-2.5433,-2.5433,-2.5433,-2.5433,-2.5433,-2.5433,-2.5433,-2.5446,-2.5458,-2.5542,-2.5823,-2.6191,-2.6958,-2.7231,-2.772,-2.7521,-2.7365,-2.722,-2.7233,-2.7318,-2.7378,-2.8014,-2.8719,-2.9206,-2.9848,-3.0355,-3.1093,-3.1297,-3.1487,-3.1677,-3.1677,-3.1677,-3.1677,-3.1677,-3.1677,-3.1677,-3.1677,-1.0575,-1.0466,-1.0263,-1.0141,-1.008,-1.0073,-1.0114,-1.0161,-1.0107,-1.0243,-1.0507,-1.05,-1.0514,-1.0582,-1.0649,-1.0717,-1.0744,-1.088,-1.1036,-1.1185,-1.1287,-1.1402,-1.1504,-1.1572,-1.1606,-1.1619,-1.1619,-1.1681,-1.1742,-1.183,-1.1965,-1.2115,-1.2189,-1.2325,-1.242,-1.2461,-1.2501,-1.2501,-1.2501,-1.2501,-1.2501,-1.2569,-1.2603,-1.2549,-1.2603,-1.2752,-1.2895,-1.2976,-1.3139,-1.3315,-1.3556,-1.3562,-1.3562,-1.3562,-1.3397,-1.3728,-1.4225,-1.4901,-1.5474,-1.6393,-1.7671,-1.8271,-1.9596,-2.004,-2.0089,-2.1958,-2.3023,-2.3698,-2.5674,-2.6198,-2.6211,-2.6054,-2.5896,-2.5592,-2.5433,-2.5433,-2.5433,-2.5433,-2.5433,-2.5433,-2.5433,-2.5433,-2.5433,-2.5433,-2.5433,-2.5446,-2.5446,-2.553,-2.5615,-2.5699,-2.626,-2.679,-2.7084,-2.7304,-2.7196,-2.7063,-2.7099,-2.7196,-2.7329,-2.7816,-2.8519,-2.9267,-2.9937,-3.0331,-3.0713,-3.1297,-3.1487,-3.1487,-3.1677,-3.1677,-3.1677,-3.1677,-3.1677,-3.1487,-3.1487,-1.0603,-1.0399,-1.0134,-0.9951,-0.9836,-0.9829,-0.9903,-0.9985,-0.989,-0.9971,-1.0215,-1.0358,-1.0351,-1.0412,-1.0575,-1.0663,-1.0799,-1.0995,-1.1185,-1.1307,-1.1402,-1.1497,-1.1558,-1.1613,-1.1619,-1.1619,-1.1619,-1.1619,-1.1647,-1.1728,-1.1816,-1.1898,-1.2074,-1.2277,-1.2345,-1.242,-1.2501,-1.2501,-1.2501,-1.2501,-1.2501,-1.2501,-1.2508,-1.2508,-1.2549,-1.2684,-1.2868,-1.3024,-1.3152,-1.3275,-1.3397,-1.3397,-1.3397,-1.3397,-1.3397,-1.3569,-1.3617,-1.3839,-1.4091,-1.5187,-1.5794,-1.6584,-1.8281,-1.9075,-1.9112,-1.9828,-2.0898,-2.1968,-2.3961,-2.5215,-2.5227,-2.5409,-2.5251,-2.5421,-2.5263,-2.5263,-2.5263,-2.5433,-2.5433,-2.5433,-2.5433,-2.5433,-2.5433,-2.5433,-2.5433,-2.5433,-2.5494,-2.559,-2.5699,-2.5784,-2.6013,-2.6503,-2.6783,-2.6798,-2.6979,-2.7075,-2.7123,-2.7317,-2.7473,-2.7799,-2.8113,-2.8809,-2.9375,-2.9937,-3.0331,-3.0713,-3.1093,-3.1093,-3.1284,-3.1487,-3.1487,-3.1487,-3.1297,-3.1297,-3.0916,-1.0351,-0.9988,-0.9814,-0.9842,-0.9822,-0.9822,-0.9836,-0.9856,-0.9836,-0.9863,-0.9958,-1.008,-1.0168,-1.0297,-1.0588,-1.0744,-1.0846,-1.109,-1.1267,-1.1389,-1.1497,-1.1572,-1.1613,-1.1619,-1.1619,-1.1619,-1.1619,-1.1619,-1.166,-1.1687,-1.1796,-1.2006,-1.2033,-1.223,-1.2447,-1.2494,-1.2501,-1.2501,-1.2501,-1.2501,-1.2501,-1.2501,-1.2501,-1.2542,-1.263,-1.2779,-1.2935,-1.3071,-1.322,-1.3342,-1.3397,-1.3397,-1.3397,-1.3403,-1.341,-1.3458,-1.3505,-1.36,-1.4027,-1.4344,-1.4966,-1.5053,-1.6388,-1.6824,-1.7364,-1.8409,-1.8775,-1.8427,-2.0202,-2.2115,-2.2471,-2.3159,-2.317,-2.4384,-2.4909,-2.4921,-2.5092,-2.5263,-2.5433,-2.5433,-2.5433,-2.5433,-2.5433,-2.5433,-2.5433,-2.5433,-2.5433,-2.5542,-2.5627,-2.5784,-2.5965,-2.6254,-2.6544,-2.6749,-2.6979,-2.7075,-2.7172,-2.7377,-2.7655,-2.8017,-2.8306,-2.8487,-2.8992,-2.9567,-2.9758,-2.9949,-3.0331,-3.0713,-3.0713,-3.0903,-3.1093,-3.1093,-3.1093,-3.0903,-3.0713]}]]